GFSSGP_850_thetae_000.txt.gz
Theta_e
326 317 316 322 325 325 329 332 329 332 329 325 325 324 325 325 325 321 328 328 327 330 331 327 328 335 336 335 334 332 329 324 318 330 329 330 326 323 325 324 324 326 327 323 327 328 326 328 328
323 317 321 324 324 330 328 327 332 330 331 325 324 325 324 325 326 325 326 326 326 327 328 328 330 334 334 333 332 331 326 321 319 325 330 329 328 328 324 326 321 323 320 316 314 323 322 323 327
321 319 320 319 322 326 328 330 329 330 325 324 324 324 325 324 324 326 325 323 321 324 329 326 330 334 332 331 331 327 320 318 325 329 329 330 329 328 324 319 318 315 311 310 311 314 311 314 322
321 319 317 320 324 323 326 324 325 329 328 324 324 324 325 325 325 326 325 319 320 324 329 330 327 330 328 332 332 325 321 317 325 330 329 330 328 327 323 319 316 313 311 310 309 310 311 310 311
321 318 314 317 318 320 319 321 324 328 328 326 324 325 327 325 324 324 321 318 320 324 327 329 331 332 331 331 330 326 324 319 321 329 329 328 329 327 321 320 319 315 315 312 309 308 308 308 308
321 317 314 316 317 316 316 320 322 328 329 327 323 325 327 327 323 321 318 320 324 324 326 330 331 332 332 331 330 325 323 317 318 328 330 328 328 326 318 318 318 318 318 315 312 309 307 307 308
320 316 317 316 316 317 318 324 323 327 327 324 324 326 329 328 321 322 318 324 326 326 328 329 331 330 330 330 329 326 320 315 324 328 324 322 324 319 316 316 319 317 320 319 317 313 309 306 307
322 317 318 315 316 318 319 322 326 326 326 324 325 325 328 329 325 321 321 325 326 326 327 328 328 325 322 326 325 316 311 311 319 320 313 312 312 312 313 316 318 315 317 318 318 316 312 309 307
322 318 317 316 318 320 320 320 325 326 325 324 325 327 328 327 326 321 322 326 326 325 326 326 324 323 320 319 314 310 309 310 312 313 313 312 312 312 311 313 316 314 311 312 313 314 312 309 308
321 319 320 317 318 320 320 321 323 324 324 325 325 325 327 327 326 323 322 324 325 324 324 323 323 323 323 320 316 314 312 311 312 313 312 312 312 312 311 315 315 312 311 311 312 311 311 310 307
321 321 320 322 323 323 321 321 323 322 323 325 325 326 328 328 328 323 323 323 324 325 324 322 322 323 324 322 318 317 316 315 312 312 312 312 313 315 315 315 315 314 313 312 312 311 311 310 307
324 323 322 323 324 323 320 322 322 323 323 324 324 325 326 327 327 324 323 323 323 324 324 324 323 322 322 322 321 317 316 317 314 315 315 315 316 317 318 318 319 318 317 315 314 313 312 311 309
323 323 325 325 324 322 321 321 321 322 324 324 325 325 326 326 326 326 324 325 325 324 325 325 324 322 322 321 320 319 318 317 317 317 318 318 319 320 320 320 320 321 320 320 318 316 314 313 311
324 322 321 321 321 321 320 321 321 323 324 323 323 325 325 325 325 326 326 325 326 326 325 326 327 326 323 321 321 321 320 318 317 319 320 320 321 321 321 322 322 323 322 322 321 320 319 317 315
322 321 319 320 321 320 321 319 319 323 322 322 321 324 324 325 326 325 327 327 327 327 328 328 327 327 326 323 320 319 321 321 320 319 320 321 322 322 322 322 323 323 322 322 322 322 321 320 318
320 319 320 318 319 321 320 320 318 322 321 321 322 322 322 323 323 324 324 325 326 326 326 327 327 328 327 326 324 322 320 321 320 320 321 322 322 323 323 323 323 323 323 323 323 324 323 322 322
318 320 318 318 318 319 318 320 318 321 321 322 321 319 319 319 320 320 321 321 323 324 324 325 327 327 327 327 327 326 324 322 321 320 322 325 327 327 326 325 325 324 324 325 325 324 324 324 324
320 319 317 317 318 317 317 318 317 320 319 318 317 318 319 319 319 319 319 319 319 320 322 324 326 329 329 328 328 328 327 326 325 325 324 323 325 328 329 329 329 329 328 328 326 326 326 326 325
317 318 317 315 316 319 318 318 317 317 315 314 317 319 319 319 318 317 318 318 319 319 320 322 324 326 329 329 329 329 328 328 327 327 327 329 330 331 331 331 330 330 330 330 330 329 328 328 327
317 317 316 316 319 320 319 318 316 314 314 317 318 319 320 319 318 318 318 318 318 319 319 319 319 321 322 326 329 329 328 328 328 329 330 331 330 330 330 330 331 330 330 330 330 330 330 330 329
317 316 317 320 319 318 320 319 317 316 317 318 319 320 320 320 319 318 317 317 317 318 318 318 319 319 321 324 326 329 329 328 329 331 331 329 329 329 329 330 330 330 330 330 330 330 330 329 328
317 316 319 321 319 321 318 320 316 315 316 316 317 319 319 319 319 318 318 318 317 317 317 317 318 319 321 322 324 325 328 328 326 325 324 325 325 325 326 326 327 327 328 329 329 329 329 329 328
318 319 320 319 317 317 318 318 316 315 317 316 315 318 318 318 318 318 317 317 317 317 317 317 316 317 317 317 317 318 318 317 316 316 317 319 321 324 325 325 326 327 327 327 328 329 330 330 328
317 317 315 314 315 319 317 318 317 316 317 315 315 317 317 318 318 317 318 317 317 317 316 316 316 315 315 315 315 315 315 315 315 315 315 315 314 314 313 314 316 318 319 319 322 324 325 326 327
315 316 320 321 320 321 316 317 318 315 314 317 314 316 317 317 317 317 317 317 317 316 316 315 315 315 315 315 315 314 314 314 315 315 315 315 315 315 314 314 313 313 313 313 313 314 316 318 320
314 316 320 326 324 323 317 318 317 313 315 318 318 318 317 318 317 317 317 317 316 316 315 315 315 315 314 314 313 312 312 312 313 314 314 314 313 312 310 309 308 307 307 307 309 311 312 312 313
316 318 317 320 318 320 319 318 316 313 314 315 316 317 317 318 318 317 316 316 316 315 315 315 315 314 314 311 308 309 309 309 309 310 310 310 310 309 308 307 306 306 305 305 304 304 305 307 309
316 314 319 317 324 323 318 319 319 317 316 314 314 316 318 317 317 317 316 315 315 315 314 314 314 313 311 307 307 308 308 308 308 308 308 308 307 307 306 305 304 304 304 304 304 304 304 305 305
315 314 314 314 316 320 319 318 313 313 313 315 315 318 318 317 317 316 316 315 315 315 314 314 314 312 309 306 307 307 307 308 308 308 307 307 307 306 304 303 302 302 303 303 303 305 305 306 308
315 316 313 316 318 314 313 317 312 312 311 314 317 319 318 317 316 316 315 314 314 314 313 312 311 309 306 306 307 306 305 305 306 306 305 304 303 301 300 300 300 300 300 301 303 303 305 306 305

GFSSGP_850_thetae_003.txt.gz
Theta_e
326 320 316 320 323 323 327 330 327 329 329 324 324 323 324 324 323 321 325 326 325 324 326 326 327 333 335 334 333 333 331 328 321 328 329 328 326 325 325 327 325 327 325 325 328 328 326 327 327
325 320 319 323 323 327 325 325 330 328 330 327 324 324 323 324 326 324 325 325 325 324 325 326 329 336 335 333 332 332 331 326 321 326 329 329 328 327 327 327 321 322 323 317 319 326 325 323 328
325 319 319 318 319 325 326 325 327 325 325 324 323 323 324 324 324 325 325 323 322 322 326 326 331 332 333 331 330 330 326 320 319 324 329 330 329 327 326 322 318 318 314 313 315 316 313 317 321
323 319 317 317 322 322 324 322 320 320 327 325 322 323 325 325 324 323 323 321 320 323 327 328 332 332 332 331 330 329 324 318 319 327 326 330 330 328 328 321 319 316 314 312 310 310 312 311 312
323 317 312 315 316 317 317 318 320 321 326 326 323 323 326 325 324 322 322 319 321 324 327 328 330 328 329 328 330 329 323 319 317 328 330 330 329 328 327 320 321 319 316 314 311 309 308 309 309
322 316 313 313 315 315 313 318 320 321 326 325 322 324 326 326 324 322 320 319 323 324 326 328 329 331 331 330 329 327 322 319 316 321 329 330 329 329 327 322 320 319 317 316 315 312 309 307 307
319 315 316 315 315 315 317 320 321 322 326 326 324 324 327 328 323 322 320 321 325 325 326 327 328 330 332 330 329 328 326 320 316 319 330 329 329 327 325 321 316 317 314 314 314 314 312 309 307
322 316 318 315 314 316 317 321 322 323 323 323 323 325 326 328 324 323 322 323 326 326 325 326 327 328 326 324 327 327 324 317 312 322 317 315 320 324 317 312 313 314 312 312 314 313 313 312 309
321 318 318 318 316 316 319 319 322 323 324 324 324 326 328 328 325 324 322 324 326 326 325 326 325 326 324 322 323 323 316 312 310 313 312 312 312 312 311 311 311 314 312 311 312 313 312 313 312
320 319 321 317 315 318 321 320 321 322 322 324 325 326 326 328 325 325 323 324 325 326 325 326 325 325 324 323 321 317 314 312 312 312 312 312 313 312 312 311 313 314 313 313 312 313 313 312 311
319 320 319 320 321 322 321 321 322 321 320 323 324 325 324 327 326 326 324 323 324 325 325 325 324 324 325 324 323 319 317 315 314 312 312 312 312 313 314 315 316 317 317 316 315 314 314 312 311
322 321 321 322 324 323 320 323 320 321 322 323 323 323 324 326 327 327 326 324 323 323 324 324 324 323 323 324 324 322 319 317 316 315 314 314 314 316 317 318 319 319 319 319 318 317 317 315 313
323 323 324 325 325 323 322 319 318 320 322 323 323 323 324 325 326 326 326 325 324 324 324 325 325 324 323 323 324 323 321 318 317 317 316 318 318 318 319 320 320 320 320 321 321 320 319 319 317
324 324 324 323 323 319 319 319 320 321 323 323 322 322 323 325 326 327 327 326 327 327 326 326 326 327 327 326 324 323 323 321 319 317 318 319 320 320 320 321 321 322 322 322 322 322 322 321 320
324 321 319 319 321 319 320 319 318 323 322 321 321 321 321 324 325 326 326 326 327 326 327 327 328 328 328 327 327 325 323 322 320 320 320 320 320 321 321 322 322 322 322 323 323 323 323 323 323
318 318 320 319 319 319 320 321 318 322 320 319 319 320 321 322 322 322 322 323 323 324 325 325 328 328 328 328 327 327 325 324 322 321 321 322 324 325 325 325 326 326 326 325 325 325 324 324 324
319 319 318 317 316 318 318 319 317 320 319 319 318 318 319 319 319 320 320 320 320 321 322 323 324 326 328 328 328 327 327 327 326 325 324 324 325 327 329 329 330 330 330 330 329 329 328 327 327
322 320 318 317 317 317 317 317 317 318 318 316 316 318 318 318 318 318 318 319 319 319 320 321 323 325 327 328 328 328 328 328 327 327 327 327 328 329 331 331 331 331 331 330 330 331 330 330 329
319 318 318 315 314 315 315 316 316 316 317 313 316 318 318 317 317 318 318 319 319 319 319 320 321 321 322 325 327 328 328 328 328 328 328 329 330 331 332 331 331 330 330 330 330 330 330 330 330
318 318 318 316 317 316 317 316 315 313 313 313 316 318 318 318 317 317 318 318 318 318 318 319 319 320 322 323 326 327 328 328 328 329 330 330 331 330 329 329 328 329 329 329 328 329 330 330 329
318 318 318 317 317 317 317 318 317 314 315 316 316 318 319 318 317 317 317 317 317 317 317 317 318 320 321 323 326 328 328 328 328 327 325 324 324 324 324 324 325 325 326 326 327 328 329 328 328
328 316 317 317 318 320 316 320 315 314 315 314 316 318 318 318 318 317 317 317 317 316 316 316 317 317 317 318 320 321 322 320 318 316 316 317 318 319 319 319 319 321 323 323 325 325 326 327 327
322 316 316 317 317 316 317 317 316 313 315 314 313 315 317 317 317 317 317 317 316 316 315 315 315 315 315 315 315 315 315 315 315 315 315 314 314 314 313 313 313 313 313 313 315 317 318 321 323
316 316 314 314 314 318 316 317 318 314 315 314 313 314 317 317 317 317 317 316 316 315 315 315 315 315 315 315 315 314 314 314 314 313 313 312 312 312 312 311 311 310 310 309 308 309 311 312 313
314 316 320 321 320 321 315 316 320 316 312 314 313 314 316 316 316 316 316 316 316 316 315 315 315 315 314 314 314 313 312 311 311 310 309 309 309 309 309 309 309 308 307 306 305 305 305 304 305
313 317 319 323 322 319 313 317 318 312 311 316 317 315 316 316 316 316 316 316 316 315 315 315 314 314 314 311 309 309 309 309 308 308 307 307 307 307 307 307 307 306 305 304 304 304 304 304 304
314 317 315 320 317 319 318 316 315 313 312 312 314 314 316 316 316 315 315 315 315 315 314 314 314 313 313 309 307 307 307 307 307 307 307 307 306 306 306 305 304 304 303 302 302 302 302 303 304
314 312 318 315 324 323 317 316 318 316 315 312 311 313 316 316 315 315 315 315 314 314 314 314 313 313 310 306 306 307 306 306 305 305 305 305 304 303 302 301 300 299 298 298 299 300 301 302 305
312 312 312 314 314 319 318 317 312 314 313 313 312 316 316 315 315 315 315 314 314 314 313 313 312 310 307 306 306 306 306 305 304 303 302 300 298 297 295 294 293 293 293 294 296 297 299 304 303
313 313 311 315 316 312 312 315 309 311 311 314 315 315 315 315 315 315 314 314 313 314 313 311 309 308 305 306 305 305 304 304 301 299 296 294 293 292 292 291 291 291 291 291 292 293 298 298 295

GFSSGP_850_thetae_006.txt.gz
Theta_e
324 324 317 319 321 321 326 328 326 327 328 324 323 322 322 323 322 322 323 325 325 324 326 326 330 332 333 331 332 331 331 329 324 325 327 328 327 325 327 325 328 326 327 324 327 327 328 324 327
324 324 318 323 322 325 324 323 328 326 326 324 323 323 322 323 325 324 325 323 324 322 324 324 328 330 335 334 330 331 331 328 322 324 326 329 328 327 327 327 322 322 321 316 319 325 327 323 326
324 322 318 318 319 324 324 324 325 322 321 324 322 323 323 324 325 324 324 322 321 321 324 325 328 336 336 332 329 329 329 324 320 317 327 330 329 328 327 323 320 318 316 313 315 318 314 317 318
325 320 316 315 321 321 322 321 319 317 324 325 322 321 325 325 325 324 323 321 321 322 325 326 331 334 331 331 330 329 326 321 317 321 328 331 329 329 327 324 319 318 316 314 312 312 311 311 313
325 317 311 313 315 316 315 316 317 317 321 325 322 321 325 326 326 324 323 321 322 323 325 327 332 332 329 329 328 329 327 322 317 327 328 328 331 329 328 323 321 317 315 315 314 312 310 308 309
323 316 315 315 313 313 313 316 317 320 321 326 322 322 326 326 326 323 322 322 324 324 325 327 330 333 331 330 329 327 324 320 317 319 329 330 330 329 329 322 320 315 316 316 318 317 315 311 308
319 315 318 315 315 314 315 320 319 320 320 325 322 323 326 327 326 323 322 322 324 325 325 327 328 333 335 332 331 328 325 323 318 315 320 329 327 329 322 322 318 315 316 325 328 325 319 317 313
321 316 318 316 316 315 315 321 321 321 321 323 322 322 325 327 327 323 323 323 324 325 326 327 328 329 330 328 329 329 327 325 320 314 324 318 321 317 312 314 313 313 316 320 323 314 316 315 315
321 318 319 319 316 316 317 319 322 323 321 322 323 325 326 326 328 324 324 324 324 326 326 326 327 328 328 325 323 326 326 324 320 314 314 316 313 313 312 312 311 311 314 315 315 320 314 315 313
319 318 320 317 314 316 319 320 322 321 320 321 323 324 324 324 327 325 325 324 324 325 326 326 326 327 327 324 323 322 320 319 316 314 313 314 313 313 313 313 313 313 314 317 317 317 317 316 314
318 320 318 320 321 320 321 322 323 320 319 321 322 323 323 323 325 326 325 325 323 324 325 326 325 326 325 325 325 323 321 319 317 315 313 313 313 313 313 314 316 315 317 319 319 319 318 317 317
321 320 320 321 323 322 321 323 321 321 321 322 322 322 323 322 324 326 326 327 325 324 324 325 325 326 325 325 324 324 323 321 317 317 316 315 315 315 315 316 318 318 319 319 320 321 321 320 320
322 322 323 324 324 323 323 319 318 319 321 322 322 322 322 322 324 325 327 328 327 326 325 325 325 326 326 326 325 324 323 323 320 318 317 318 317 318 318 319 320 320 321 322 322 322 322 322 322
323 324 324 324 324 321 319 319 319 321 321 322 322 321 321 321 322 324 326 327 327 327 327 327 327 327 327 327 327 327 326 324 323 321 319 318 318 319 320 321 321 322 322 323 323 323 323 323 323
324 323 320 319 321 319 320 319 317 322 321 321 320 320 320 320 322 323 324 325 325 326 326 326 326 328 328 327 327 327 327 326 325 323 322 322 322 323 324 325 326 326 328 328 328 328 327 327 327
319 318 321 319 318 318 318 318 316 319 320 320 320 318 318 320 321 321 321 322 322 322 322 323 324 326 327 328 328 328 328 327 326 326 325 326 326 327 327 328 329 330 330 331 330 330 330 330 330
318 322 318 318 316 316 317 317 315 318 318 318 317 317 318 319 319 319 319 319 319 319 319 319 321 323 325 328 328 328 327 327 327 327 327 328 328 329 330 330 331 331 331 331 331 330 330 329 329
325 321 319 318 317 316 316 315 316 317 317 317 316 317 317 317 318 318 318 318 318 319 319 320 320 321 324 326 327 328 328 328 328 328 329 329 329 330 331 331 332 331 331 330 329 329 329 329 329
320 319 321 316 314 315 314 313 314 315 316 315 314 316 317 317 317 318 318 318 318 318 319 318 318 319 319 321 324 326 327 327 328 328 329 329 330 330 330 330 328 327 327 326 327 326 327 327 327
319 319 318 317 315 315 315 315 314 313 314 314 314 316 317 316 317 317 317 317 317 317 317 318 318 319 320 322 325 326 327 327 328 327 327 325 324 324 323 323 323 323 323 324 325 325 326 327 327
320 320 320 320 315 315 314 316 315 313 314 314 315 316 317 316 316 316 316 316 316 317 317 317 317 317 317 318 321 325 327 325 322 319 317 317 318 318 318 317 316 315 314 315 316 317 316 319 322
327 317 319 318 318 319 315 319 315 313 314 312 314 317 317 317 316 316 316 316 316 315 315 315 315 315 315 315 315 316 316 315 314 314 314 314 314 314 314 314 313 312 311 310 309 309 309 310 310
327 318 318 318 316 315 316 317 315 312 314 314 312 315 317 316 316 316 316 316 315 315 315 315 315 315 314 314 314 314 314 314 314 313 312 311 310 310 309 309 309 309 309 308 307 307 306 305 304
318 317 315 313 313 318 316 317 316 314 313 313 312 314 316 316 316 316 315 315 315 315 315 315 315 315 314 314 313 313 312 311 310 309 309 308 308 308 307 307 307 306 306 305 305 304 304 304 304
317 318 323 322 320 320 314 315 316 314 312 312 312 314 316 316 316 316 315 315 315 315 315 315 315 314 313 311 309 309 309 308 308 307 307 307 308 308 307 306 305 304 303 302 302 301 301 301 302
318 317 318 324 321 319 312 317 316 313 311 312 315 316 316 315 316 316 315 315 315 315 315 315 314 313 312 311 307 307 307 307 306 306 306 306 305 304 303 302 300 299 298 296 296 296 297 298 299
314 318 315 317 315 318 318 314 314 313 311 310 312 314 315 315 315 315 315 315 315 314 314 314 314 313 311 308 306 307 307 307 307 307 306 305 302 299 297 295 294 293 293 293 292 292 292 294 298
313 313 318 315 324 323 318 315 317 315 315 311 309 312 314 315 315 315 314 314 314 314 314 313 313 311 308 306 306 307 307 308 307 305 302 299 295 293 293 293 293 292 292 292 292 291 291 291 296
312 313 311 314 314 319 318 317 311 312 312 311 310 312 314 315 315 315 314 314 313 313 313 313 311 309 306 306 307 307 307 305 302 299 296 293 293 292 292 292 292 292 292 292 291 290 290 289 290
311 311 312 317 316 311 312 315 310 308 308 311 312 313 314 315 315 315 314 313 313 313 312 311 309 306 305 307 307 307 304 301 297 294 292 292 292 292 292 292 292 291 291 291 290 289 288 288 289

GFSSGP_850_thetae_009.txt.gz
Theta_e
324 324 319 319 326 326 328 330 326 328 329 326 325 322 323 323 324 329 324 324 324 321 322 325 337 335 336 337 333 331 329 329 326 321 328 327 328 327 328 323 327 326 327 322 327 326 326 327 326
323 324 318 322 326 328 328 325 328 326 323 321 322 322 322 325 325 325 324 323 322 320 321 323 331 332 333 332 331 331 330 329 325 322 328 329 328 327 326 325 324 321 321 315 315 324 327 327 325
323 323 317 321 322 327 328 324 324 320 321 320 322 322 322 324 325 325 324 323 321 321 322 323 325 330 335 334 333 330 328 328 321 318 327 330 329 328 327 326 318 315 315 314 314 316 316 319 320
323 321 315 318 321 322 324 323 319 317 323 323 322 322 323 325 325 324 323 322 322 323 323 324 329 336 336 331 329 328 328 324 317 318 327 331 330 329 327 320 318 317 317 316 314 312 314 314 314
323 318 317 316 316 316 317 316 316 319 320 322 322 323 323 326 326 325 323 322 323 324 324 325 331 337 329 328 327 326 326 323 318 319 325 329 330 330 329 322 320 320 316 316 316 315 314 311 310
323 316 321 323 317 315 314 315 317 319 320 322 321 321 324 326 326 324 323 321 324 325 324 325 328 336 331 333 329 328 325 321 319 319 327 330 331 331 329 326 323 321 316 319 326 326 321 318 315
322 321 322 318 318 318 315 318 319 319 319 322 322 323 324 327 327 325 323 321 324 325 325 325 326 331 335 333 332 330 327 326 323 317 319 327 329 327 330 325 325 323 318 325 328 327 326 327 325
321 319 318 318 320 320 315 318 321 321 322 322 321 323 325 325 326 327 323 322 324 326 326 325 326 327 328 329 330 333 331 329 326 322 316 321 324 322 322 323 323 325 315 316 328 327 326 326 317
320 321 322 321 317 321 316 320 322 323 321 322 322 323 325 323 324 327 324 323 323 326 326 326 326 326 326 326 325 326 330 332 323 320 316 319 318 317 316 316 314 314 314 314 316 326 326 325 322
319 322 322 319 316 317 317 320 322 322 321 321 321 322 322 322 323 324 327 324 323 325 326 327 326 326 325 325 324 323 323 322 320 317 316 314 315 315 314 314 314 315 315 316 318 319 319 319 318
319 322 319 320 320 319 319 321 322 321 322 321 321 322 322 322 322 322 325 326 325 324 324 325 326 326 326 325 325 324 324 322 319 318 317 314 314 314 314 314 315 316 318 318 319 320 320 321 321
321 319 320 321 322 322 321 322 321 321 322 322 322 321 321 322 322 322 324 326 326 327 325 324 325 325 326 326 325 325 324 324 322 319 318 318 317 316 316 317 318 318 320 321 321 322 322 322 322
320 321 322 322 322 322 323 322 322 320 324 324 321 321 321 321 321 321 324 326 327 327 327 326 326 326 326 327 327 326 326 325 324 323 321 319 319 319 319 320 321 321 322 323 324 325 325 325 324
323 323 323 323 323 322 320 322 320 324 324 324 322 321 320 321 321 321 324 325 326 326 326 327 327 327 327 327 327 327 327 327 325 325 325 325 324 323 323 324 325 326 327 328 328 329 329 329 329
324 324 321 321 322 322 320 321 319 324 320 320 320 320 319 318 319 321 322 323 324 324 324 323 324 326 327 327 327 327 328 328 327 327 327 327 327 327 327 327 328 329 330 330 330 330 330 330 330
323 320 327 322 317 318 319 324 319 318 316 318 318 318 318 318 319 320 321 321 321 320 320 320 320 323 326 327 328 328 328 328 328 328 328 328 328 329 329 329 329 330 330 331 330 329 329 328 328
320 326 322 323 318 319 318 320 317 317 318 317 317 317 318 318 318 318 318 318 318 318 319 320 321 321 323 326 328 328 328 328 328 329 329 329 329 329 329 329 329 330 330 329 328 328 327 327 327
322 325 320 320 317 315 317 317 316 315 316 317 316 316 317 317 318 318 318 318 318 318 318 318 319 320 323 325 327 327 327 327 328 328 328 328 328 329 329 329 329 327 325 324 324 324 324 325 325
319 322 323 320 315 315 316 315 317 316 315 314 313 315 316 317 317 317 318 318 318 318 318 318 319 320 321 322 324 325 326 327 327 328 328 327 326 324 323 322 322 321 321 320 319 319 319 319 318
319 321 320 318 315 315 317 318 317 315 314 314 313 315 316 316 316 316 316 316 317 317 317 317 317 317 318 319 323 326 327 326 325 322 321 319 317 317 316 315 314 313 312 312 311 310 309 309 309
321 322 320 322 317 315 315 319 316 314 313 312 313 316 316 316 316 315 316 316 316 316 316 316 316 316 316 316 318 321 321 318 315 314 314 314 314 314 313 312 311 309 308 308 308 307 306 305 306
327 319 321 319 322 325 316 323 317 316 313 312 313 315 315 315 315 315 315 315 315 315 315 315 315 315 315 314 315 315 314 314 314 314 313 311 309 308 308 307 307 307 307 306 306 306 305 304 303
325 321 322 320 320 315 316 319 318 311 314 314 312 315 315 315 316 315 315 315 315 315 315 315 315 315 314 314 314 313 313 311 310 308 308 308 308 308 308 308 307 305 304 302 301 301 300 300 300
314 318 318 315 315 320 317 320 320 317 314 312 311 314 315 315 315 315 315 315 315 314 315 314 314 314 312 312 310 310 309 308 308 308 308 309 309 309 308 307 304 301 298 296 295 294 294 294 294
318 324 327 325 321 324 313 316 319 314 312 313 314 313 315 316 315 315 314 314 314 314 314 314 314 313 312 310 308 307 307 307 308 309 309 309 309 308 305 301 298 296 294 294 294 294 293 293 292
323 324 325 327 323 321 312 319 319 312 312 312 314 315 315 315 315 314 314 314 314 314 314 314 313 312 310 308 307 307 307 308 308 309 308 306 303 300 297 295 294 294 294 294 293 293 293 292 291
318 324 317 317 314 320 319 317 315 313 311 309 311 313 315 315 315 314 314 314 313 313 313 313 312 311 309 307 306 307 308 309 309 307 305 302 298 296 294 293 293 293 293 292 292 292 292 292 291
318 316 323 317 324 324 319 316 321 315 314 310 309 312 314 314 315 314 313 313 313 313 313 312 311 310 308 306 307 308 308 307 306 304 301 298 294 293 292 292 292 292 292 292 292 292 291 291 290
314 318 315 316 316 322 320 319 311 312 311 312 310 312 314 314 314 314 313 312 312 312 312 311 310 307 306 306 308 307 307 305 302 299 296 293 292 291 291 291 291 291 291 291 291 291 290 289 288
311 314 315 319 316 312 314 319 310 308 308 310 310 312 314 314 314 314 313 312 312 311 311 310 308 305 306 307 307 307 305 303 299 295 292 291 291 290 290 291 291 291 291 290 290 289 288 287 287

GFSSGP_850_thetae_012.txt.gz
Theta_e
323 322 322 322 327 329 327 329 331 330 331 326 325 326 328 327 329 332 325 324 323 321 323 325 337 333 334 336 336 334 330 329 327 321 328 325 323 325 328 322 324 326 326 318 323 325 326 328 326
323 322 320 324 324 326 326 330 332 330 325 324 325 326 326 329 327 329 328 324 322 321 322 331 334 337 335 337 330 329 329 329 328 320 328 328 329 328 326 323 324 319 320 317 315 320 326 327 325
324 322 322 324 325 325 327 329 326 324 324 324 327 324 326 328 325 328 324 323 322 322 322 324 330 331 333 334 333 333 329 328 326 320 327 330 330 329 328 326 324 317 317 315 314 313 316 320 321
324 322 319 322 320 324 326 326 321 324 326 325 325 328 325 325 327 325 324 323 323 324 323 322 327 331 335 334 333 329 328 327 320 316 326 330 332 330 329 327 319 319 318 318 316 313 312 314 314
324 321 326 325 324 320 321 321 320 324 325 326 325 330 327 325 325 325 324 322 324 325 325 324 331 335 336 331 329 328 324 321 319 316 325 329 331 331 330 328 323 324 322 316 317 320 320 315 313
325 322 326 328 327 324 324 320 322 324 324 325 326 325 328 326 326 325 324 322 324 326 326 327 331 336 330 329 330 327 324 320 318 317 326 329 330 332 331 330 328 325 323 321 327 325 326 325 325
326 326 327 326 326 326 322 320 322 323 325 326 323 326 327 328 325 326 324 322 324 326 326 327 331 334 334 334 333 330 327 325 323 318 318 322 329 330 329 329 328 325 326 323 322 326 325 326 325
324 325 326 325 326 327 323 319 324 323 324 323 322 327 328 327 322 327 325 323 323 326 326 328 331 336 337 338 330 332 332 330 327 323 317 318 320 321 326 322 321 318 321 314 314 317 322 325 325
321 326 327 326 325 326 321 324 325 324 323 323 323 324 324 322 322 323 327 324 323 324 326 326 328 333 337 337 335 327 330 334 330 322 318 315 324 327 321 319 315 315 315 315 316 317 319 319 320
325 327 326 325 325 325 323 324 325 326 325 324 323 323 322 322 324 326 330 331 325 324 324 326 327 327 333 331 333 333 334 332 332 331 329 326 326 327 317 316 315 315 316 318 318 319 320 320 325
325 327 326 324 323 322 324 325 325 326 327 325 324 323 322 322 322 324 326 328 330 326 324 324 325 327 329 329 331 335 333 333 332 327 324 323 317 318 317 317 316 317 318 320 321 322 323 324 324
326 325 325 324 324 324 325 325 325 326 326 326 325 324 321 322 322 322 323 326 327 326 327 326 324 325 327 328 328 330 329 327 328 324 321 320 320 320 320 320 320 320 322 323 323 325 326 326 326
326 325 324 324 324 324 324 325 326 326 326 326 325 323 321 321 321 321 321 323 326 327 327 327 326 326 326 327 328 328 328 327 327 325 325 324 323 323 323 323 324 325 326 327 327 328 328 328 328
326 325 325 325 325 325 325 326 324 326 326 326 324 322 321 321 320 321 321 323 325 326 326 326 326 327 327 327 327 328 328 329 328 327 327 327 327 327 327 327 327 328 328 329 330 330 330 329 328
326 327 326 326 326 326 325 327 327 325 322 320 320 320 319 319 318 319 320 322 323 324 324 323 323 323 326 327 328 328 328 329 328 328 328 328 328 328 328 328 329 329 329 330 330 330 328 328 328
328 328 330 327 326 326 324 328 326 323 320 321 319 319 320 318 319 319 320 320 321 320 320 319 320 321 323 328 328 328 328 329 329 329 329 329 329 329 329 329 329 329 330 330 328 326 327 326 326
329 330 329 327 325 326 324 327 324 319 320 320 321 320 320 319 318 318 318 318 319 319 319 320 321 321 323 327 328 328 328 328 328 329 329 328 329 329 329 329 329 329 326 324 323 323 323 322 322
328 328 327 328 325 321 324 325 323 322 320 321 320 319 319 319 318 318 318 318 319 319 319 319 320 324 325 326 328 328 327 328 328 328 328 328 328 327 325 323 321 320 317 316 314 316 317 318 319
324 325 327 326 323 322 325 326 323 324 322 321 320 319 319 318 317 318 318 319 319 319 319 320 321 322 323 325 326 327 327 327 326 325 324 322 320 318 316 314 313 313 312 311 309 308 308 310 311
326 326 326 325 320 321 326 327 326 325 322 321 320 319 319 317 317 316 317 317 317 316 316 316 317 318 320 324 325 326 325 323 321 318 315 314 314 313 312 310 309 308 308 308 307 306 306 308 308
326 325 325 326 323 323 323 328 326 320 317 316 317 319 318 318 317 316 316 316 315 315 315 316 316 315 316 318 319 319 317 315 314 314 313 312 309 308 308 309 309 308 307 305 303 301 301 304 304
328 325 325 326 328 331 324 331 327 324 321 318 317 318 318 317 316 316 315 315 315 315 315 315 315 315 315 314 314 314 314 313 312 309 308 308 309 309 309 308 306 304 301 299 297 296 296 299 302
326 325 326 326 327 325 328 327 327 320 321 319 319 318 317 317 316 316 315 314 315 315 315 315 315 315 314 314 313 312 310 308 307 308 309 309 310 308 306 304 301 299 297 295 294 294 294 297 299
322 323 324 323 323 330 327 326 327 324 321 319 318 318 317 317 316 315 314 314 314 314 314 314 314 313 312 311 310 308 308 308 308 309 310 308 307 305 304 301 298 295 295 294 294 294 294 294 294
324 327 331 332 331 330 319 322 326 322 318 319 319 318 317 316 315 314 314 314 314 314 314 314 313 313 311 309 308 308 308 309 310 309 308 307 306 304 302 299 296 294 294 293 293 293 293 294 293
323 327 328 330 330 328 318 325 324 318 316 315 318 318 317 316 316 315 314 314 314 314 313 313 312 311 309 308 308 308 309 309 308 308 307 305 303 300 297 294 293 293 293 293 293 292 292 293 293
323 327 322 323 321 325 325 323 321 317 317 315 316 317 317 316 315 315 314 314 313 313 313 312 311 310 308 307 307 308 309 309 309 307 304 303 299 296 293 293 292 292 292 292 292 292 292 291 292
324 324 325 323 328 328 325 324 325 321 319 316 316 317 317 316 315 314 313 313 312 312 312 311 310 308 307 307 307 308 309 308 306 304 302 298 294 293 292 292 291 291 291 291 291 291 290 290 290
325 326 325 324 323 327 326 325 320 319 318 317 316 317 317 316 315 313 312 312 312 312 311 310 308 307 306 306 308 308 307 305 303 301 298 294 292 291 291 291 291 290 291 291 290 289 289 289 290
323 324 324 328 324 321 322 324 316 316 315 314 316 316 316 316 315 313 312 311 312 311 310 309 307 305 306 307 307 306 304 303 300 297 295 292 291 290 290 290 290 290 290 290 289 288 288 289 289

GFSSGP_850_thetae_015.txt.gz
Theta_e
322 325 322 324 327 326 328 328 332 334 334 328 327 328 330 329 331 334 330 335 326 335 336 325 335 340 332 337 338 334 332 330 328 322 326 322 326 327 324 322 324 325 326 319 324 327 328 326 327
322 324 322 323 323 327 325 328 330 332 329 327 327 328 329 331 329 333 336 331 327 334 337 340 336 334 337 337 336 332 329 327 328 321 329 327 328 328 328 324 324 322 319 318 316 317 324 324 327
325 323 323 326 324 323 328 329 330 327 328 328 329 327 328 330 329 332 333 325 329 334 336 339 332 337 335 336 334 332 330 327 326 321 326 329 330 329 329 328 324 320 320 319 317 314 315 318 319
325 324 324 326 327 324 325 328 325 325 329 328 328 330 328 329 331 334 332 328 335 335 337 323 329 333 335 334 334 333 328 327 323 316 325 329 331 332 330 329 326 322 322 318 317 315 313 312 311
326 324 326 329 328 324 321 323 322 325 327 327 328 331 330 330 331 332 334 333 335 336 337 323 328 334 336 337 332 329 326 320 319 315 326 329 331 334 331 330 329 327 324 320 320 324 322 322 320
326 325 327 328 329 328 325 323 323 325 327 327 327 327 330 331 333 333 333 334 335 336 336 332 328 333 336 331 331 329 325 320 315 315 324 328 329 331 333 332 331 328 325 324 322 321 323 326 326
326 327 328 327 328 329 328 321 323 325 326 328 326 328 330 329 329 331 335 335 335 337 335 336 329 332 333 333 335 332 327 324 321 317 315 320 328 329 330 329 327 322 323 320 314 315 318 322 324
327 327 328 327 327 327 327 323 321 324 326 325 325 329 330 329 328 328 335 335 336 336 336 337 337 339 338 334 329 330 333 329 326 323 319 314 320 321 322 326 322 317 314 314 315 316 318 318 319
326 327 328 327 327 327 326 325 325 326 325 325 325 326 326 325 328 331 333 334 335 336 337 337 337 339 340 340 339 333 324 330 323 320 321 315 317 328 329 327 316 314 315 316 317 318 319 320 320
327 327 327 326 326 327 326 325 327 327 327 327 327 325 325 324 324 326 329 332 334 335 336 337 337 338 339 338 338 336 337 335 334 333 332 330 327 328 326 318 315 315 317 318 319 321 322 322 324
327 328 326 326 326 325 325 325 326 327 328 327 327 326 325 325 324 324 326 328 331 332 334 335 337 338 338 339 338 337 336 336 334 333 332 330 327 326 327 327 324 322 324 322 326 326 327 327 327
329 326 326 326 326 325 326 325 326 326 327 327 327 327 327 325 323 324 324 325 330 332 332 333 334 336 337 338 338 337 336 336 335 334 332 331 329 328 328 327 327 327 327 327 328 328 329 329 329
328 327 326 325 325 325 325 325 326 326 327 327 327 327 327 326 324 323 323 327 329 332 332 332 332 335 336 337 337 337 336 335 334 334 333 331 331 330 329 329 329 329 329 329 329 330 330 330 330
327 327 326 326 325 325 326 326 325 326 327 327 327 327 326 326 323 322 325 328 330 331 332 332 332 332 334 336 337 337 336 335 334 334 333 332 331 330 330 330 331 331 331 330 330 330 330 330 330
326 328 327 326 326 326 326 328 327 326 326 326 322 322 323 322 322 323 324 324 324 325 325 324 324 328 332 335 337 337 336 335 334 334 333 332 331 331 331 331 331 331 331 330 330 330 329 328 327
326 328 330 327 326 326 327 329 326 326 325 323 322 321 322 322 321 322 322 322 322 323 324 321 320 320 329 333 336 336 335 334 334 333 332 331 331 330 330 330 330 329 328 328 327 325 324 324 323
327 331 330 330 326 326 328 328 325 325 322 322 322 322 323 322 321 321 320 321 321 322 323 321 323 327 330 333 333 333 332 331 331 331 331 330 329 328 330 327 323 321 321 319 316 315 316 315 314
329 329 327 329 327 327 327 327 326 325 324 324 323 322 322 322 321 320 320 321 323 324 325 323 327 329 330 331 331 331 331 328 326 324 323 322 323 321 318 315 313 311 311 310 309 310 310 310 311
325 328 328 327 326 327 327 326 326 324 325 325 323 322 323 322 320 320 320 321 322 325 328 329 329 330 331 332 331 327 323 322 325 324 321 316 314 313 311 309 309 309 309 309 308 307 307 306 308
327 327 328 326 326 325 325 326 326 326 326 326 324 323 322 321 319 319 319 319 319 321 323 327 328 330 330 326 324 322 321 320 317 314 314 312 309 309 309 310 310 309 308 306 304 302 301 302 301
327 327 326 326 326 324 325 328 328 327 326 324 322 323 322 320 319 319 319 318 318 317 317 317 317 318 319 320 319 318 315 314 313 311 309 308 309 310 310 308 306 305 303 302 299 298 297 300 300
329 326 325 326 328 329 327 329 327 327 323 321 320 322 322 320 319 318 318 318 317 315 315 315 315 315 315 316 317 316 314 312 309 308 309 310 310 309 307 306 305 303 300 297 296 296 295 297 300
327 325 325 327 329 329 329 330 328 327 325 323 322 322 321 320 318 318 318 317 316 315 315 315 315 315 314 314 313 312 310 309 309 309 310 308 308 308 307 304 302 299 297 295 294 294 294 294 297
325 326 327 326 326 329 328 329 328 327 325 324 322 321 320 319 318 318 317 316 315 314 314 314 314 313 312 311 310 309 309 309 310 309 309 308 306 305 304 302 298 295 294 294 294 294 293 293 296
326 327 330 331 331 328 326 328 328 322 321 322 321 321 320 319 318 317 316 316 315 314 313 312 312 312 311 310 309 309 309 310 309 309 309 308 306 304 303 300 296 294 293 293 293 293 293 293 294
326 328 327 328 329 328 323 327 326 321 320 321 320 320 319 318 318 317 317 316 315 313 312 312 312 311 309 309 309 309 309 309 309 309 308 306 304 302 300 297 295 293 293 292 292 292 292 292 292
323 329 324 327 325 328 326 326 322 321 320 318 320 320 319 319 318 317 317 316 314 313 311 312 311 310 309 308 308 308 309 309 308 307 306 304 302 300 297 294 293 292 291 291 291 291 291 291 291
325 326 328 326 328 329 327 326 326 322 321 319 319 320 320 319 318 317 316 315 313 311 311 311 310 309 308 307 307 308 308 307 306 305 303 301 298 296 293 292 291 291 291 291 291 291 290 290 290
325 327 327 326 326 329 329 327 324 321 320 320 319 320 320 319 318 317 316 314 312 310 311 311 310 308 306 306 307 307 307 306 304 303 300 297 294 292 291 291 291 291 292 291 290 289 289 289 289
324 326 326 328 327 325 325 325 319 320 319 318 319 319 320 319 318 316 315 313 310 310 309 309 308 306 305 307 307 307 306 304 302 299 296 293 291 291 290 290 291 291 290 289 289 288 288 288 288

GFSSGP_850_thetae_018.txt.gz
Theta_e
321 322 324 324 328 326 328 326 327 333 333 328 328 327 327 329 330 336 334 333 335 332 326 323 333 339 334 336 336 334 333 330 327 322 323 321 326 329 326 321 321 322 321 319 322 327 328 328 328
322 322 323 324 324 325 325 324 330 330 328 328 328 328 328 329 332 334 337 330 335 333 330 326 337 337 334 336 336 333 329 327 326 321 328 328 324 326 327 326 322 320 317 317 315 318 321 326 323
325 325 324 327 326 322 325 327 325 324 326 329 329 329 328 329 332 334 336 327 333 333 337 337 331 334 337 337 334 331 330 327 325 320 327 328 329 330 329 328 324 319 320 317 315 314 312 316 316
326 324 324 325 327 327 323 324 323 323 326 328 328 328 330 330 333 335 332 332 335 334 334 327 330 334 337 335 333 333 329 323 325 316 326 329 330 332 330 329 329 327 323 318 313 313 313 314 313
326 326 325 327 328 327 322 322 323 322 325 327 327 328 331 331 331 335 334 335 336 337 335 323 323 329 335 334 333 330 325 319 317 314 328 328 329 331 330 330 330 330 325 318 312 312 313 315 317
326 326 326 327 326 327 325 323 323 323 325 327 327 326 330 330 333 331 333 335 336 336 331 324 323 329 331 334 330 327 323 319 315 314 326 328 329 330 331 333 331 324 317 315 314 314 315 316 321
327 327 328 326 326 326 328 322 321 323 325 326 326 326 329 329 325 335 334 335 336 336 334 329 326 327 328 324 325 323 324 321 319 315 316 321 327 328 329 329 325 316 313 313 314 315 316 317 317
328 327 327 326 328 328 326 324 322 322 324 326 326 326 327 328 325 329 334 335 336 337 336 335 331 331 329 326 326 324 321 321 319 316 315 314 317 322 321 322 322 316 314 315 316 317 318 319 319
328 328 329 327 327 327 326 325 325 325 326 326 325 325 326 325 325 328 331 334 336 336 337 337 337 338 337 338 339 337 330 322 318 317 319 322 316 325 329 327 321 315 315 316 318 319 320 320 321
328 328 328 325 325 325 326 325 325 326 327 326 327 327 325 325 325 324 327 332 333 335 335 337 338 338 340 339 339 335 330 332 331 333 332 330 328 328 329 326 318 317 318 319 320 322 323 324 324
329 329 327 325 325 325 326 325 325 325 326 327 326 328 328 327 326 324 324 327 329 333 335 335 337 338 338 339 337 338 337 336 334 334 332 331 329 324 326 326 325 324 322 322 323 324 325 326 327
329 328 327 326 326 326 325 325 325 325 325 326 327 327 328 327 327 324 324 324 327 331 333 334 335 336 338 339 338 338 337 336 335 334 332 331 330 329 327 327 327 327 327 327 327 328 329 330 330
328 328 327 326 326 325 326 325 325 325 325 325 326 327 327 327 327 325 324 323 327 330 332 332 333 335 335 338 338 337 337 336 335 334 333 332 330 329 330 329 328 329 330 330 330 330 329 329 329
326 327 328 327 326 325 325 325 325 325 325 325 326 327 327 327 326 325 323 325 329 330 332 333 333 333 335 336 337 338 337 336 335 334 333 332 330 329 329 329 331 331 330 330 330 329 329 328 327
323 325 327 327 326 326 325 325 325 326 326 325 326 326 323 323 324 323 323 325 326 328 331 331 332 332 333 335 337 337 337 335 334 334 333 332 331 331 330 330 330 330 329 329 328 326 324 324 324
325 324 327 326 326 326 325 327 325 326 326 325 325 322 322 322 322 322 323 323 323 324 324 324 324 325 331 334 336 337 336 335 334 333 332 331 330 330 329 329 329 328 325 323 323 317 314 313 312
325 326 326 327 326 326 325 326 325 325 325 325 324 322 322 323 322 322 321 322 323 324 325 321 322 321 330 334 336 335 334 333 332 331 330 329 328 328 328 324 317 315 313 311 310 310 310 310 309
324 327 326 328 327 326 327 325 324 326 324 323 323 323 323 323 322 321 321 322 324 326 325 325 327 329 332 334 334 332 331 331 331 329 326 323 320 317 314 312 310 309 310 310 310 309 308 305 304
321 324 327 325 326 326 326 326 325 325 324 324 325 324 323 322 321 320 321 323 327 328 329 329 329 330 331 331 331 331 330 326 324 322 318 314 312 310 309 310 310 309 307 306 305 304 303 302 300
320 323 326 326 325 325 325 326 325 323 323 324 324 325 323 321 320 320 320 321 325 329 330 331 332 332 332 331 329 325 323 321 317 314 312 310 309 310 310 309 308 307 306 305 303 300 298 298 297
318 323 325 327 326 325 324 325 323 323 323 324 325 326 323 321 320 319 319 319 321 325 327 330 330 329 328 326 323 320 316 314 312 310 309 309 310 310 309 309 308 306 304 302 299 297 296 296 296
319 319 322 327 327 329 323 325 324 323 324 323 325 323 322 320 319 319 319 318 318 318 318 318 319 318 318 317 316 315 314 311 309 309 310 310 310 310 308 307 306 304 301 299 297 296 295 294 294
319 321 323 325 328 329 329 326 326 324 325 323 317 321 321 320 319 319 318 318 316 316 316 316 316 316 317 317 316 313 310 309 309 310 309 309 308 309 308 306 304 302 300 297 296 295 294 293 293
315 320 323 326 328 331 327 328 326 325 323 320 318 321 321 319 319 318 318 317 316 315 314 314 314 314 313 312 311 310 309 310 310 309 309 308 308 308 307 305 303 300 297 295 294 293 293 293 293
317 321 327 331 331 328 324 325 326 320 320 321 319 321 320 319 318 318 317 317 315 314 313 312 312 311 310 310 309 309 310 309 309 309 309 308 307 307 306 303 300 297 295 294 293 293 293 292 292
320 317 325 331 329 325 323 327 324 319 319 321 321 321 320 319 318 317 317 316 314 313 312 311 311 310 309 309 309 309 309 309 310 309 308 308 306 305 303 300 297 294 293 293 292 292 293 292 291
321 317 320 327 321 325 323 324 319 318 318 317 320 320 319 319 318 317 316 316 314 312 311 311 310 309 309 309 309 309 309 309 309 308 308 306 304 302 298 295 294 293 292 292 292 292 291 290 290
323 320 328 327 328 329 325 324 322 318 317 317 318 319 319 318 318 317 317 316 314 312 311 310 309 309 309 308 308 308 308 308 308 307 306 304 301 298 294 293 293 292 292 292 292 291 290 289 289
321 325 327 327 326 328 326 323 319 318 318 316 317 319 319 319 317 317 317 315 313 312 311 309 309 309 308 307 308 308 308 307 306 305 303 301 297 294 292 292 291 292 292 292 291 290 289 288 288
320 325 325 326 327 325 323 321 317 316 317 316 317 320 319 319 318 317 316 314 312 311 309 309 308 307 307 307 307 307 307 305 304 303 300 297 294 292 291 291 292 292 292 291 290 289 288 287 287

GFSSGP_850_thetae_021.txt.gz
Theta_e
321 321 323 324 321 320 325 325 322 328 328 327 328 327 325 326 328 334 336 336 329 329 322 323 336 337 335 337 336 334 331 329 324 320 323 320 328 330 326 319 320 320 315 315 316 326 328 327 328
321 321 324 323 318 319 322 322 322 322 325 328 329 328 326 328 333 335 336 331 333 329 325 323 337 338 334 337 335 333 329 324 323 320 326 327 322 325 326 324 318 316 316 315 313 314 321 323 323
322 323 324 321 321 320 320 324 322 322 326 328 328 328 328 330 335 336 336 330 332 330 329 324 335 331 337 336 334 332 325 322 322 317 326 328 324 328 328 327 326 320 318 315 312 312 311 310 313
325 324 324 321 322 323 322 318 322 322 324 327 327 326 331 331 333 334 330 332 331 329 327 326 329 333 337 336 334 326 326 319 317 314 324 329 330 330 330 327 327 327 319 312 311 311 311 312 312
326 326 322 323 323 322 321 319 322 321 323 326 327 326 330 332 333 333 333 335 334 333 332 323 324 327 335 333 330 328 325 316 314 313 324 328 329 329 330 329 329 329 315 313 312 313 313 313 316
327 324 323 323 323 323 321 323 322 322 322 324 326 325 330 333 333 335 335 336 335 334 332 324 322 326 331 330 331 326 323 317 314 313 324 325 328 328 331 332 331 318 314 314 314 314 316 316 316
326 322 323 323 323 323 324 321 320 321 323 324 325 325 328 328 327 333 334 335 336 335 331 327 324 326 329 325 324 322 323 319 318 314 318 323 325 328 329 329 326 317 316 315 315 316 317 318 318
329 322 326 323 325 325 325 324 321 321 322 325 325 324 327 327 326 330 334 335 335 335 332 332 328 327 326 324 323 324 322 320 318 316 314 313 315 319 319 318 317 317 315 315 316 318 318 319 320
330 325 328 326 324 324 325 323 324 323 325 325 325 326 326 326 325 326 329 332 333 336 334 333 334 334 333 335 336 335 331 326 319 317 323 319 318 325 327 324 323 319 316 316 318 319 321 323 324
327 327 328 324 323 323 324 323 324 325 325 326 326 326 325 324 325 326 325 327 331 332 331 333 336 336 335 339 337 336 332 332 330 331 329 328 327 326 327 326 323 323 322 321 322 323 324 325 326
328 330 325 325 325 324 323 324 325 324 324 325 326 326 327 327 327 325 323 324 327 329 333 333 336 337 337 337 337 335 336 334 333 333 332 331 329 327 325 325 325 325 325 325 325 326 328 328 329
327 328 328 327 327 325 323 325 324 324 324 325 325 325 326 327 327 327 324 324 325 329 332 333 334 336 338 338 338 335 337 336 335 334 333 331 330 328 327 327 326 327 327 328 329 329 329 329 328
324 325 327 327 327 326 325 324 323 324 325 325 324 324 326 327 327 327 326 324 323 329 332 332 333 334 337 338 338 337 337 336 335 334 333 332 330 329 328 328 328 329 330 330 329 328 328 328 328
321 323 324 326 327 327 324 323 324 325 325 325 325 325 325 326 326 327 327 325 323 327 331 332 332 332 335 337 338 337 337 335 335 333 333 333 330 329 329 329 330 330 329 329 329 328 328 327 325
321 323 321 322 326 327 326 324 323 325 325 325 325 325 325 325 324 326 326 325 323 329 332 332 332 332 333 334 337 337 336 335 334 333 332 331 331 330 330 330 328 327 328 327 327 326 320 314 312
321 323 324 322 323 326 326 328 323 325 325 325 325 325 325 322 323 323 323 323 325 327 331 332 332 332 332 334 335 336 335 334 333 331 331 330 329 330 330 328 326 326 326 321 316 311 310 310 310
320 322 322 323 323 324 325 326 323 325 325 324 324 324 323 322 322 321 321 322 322 323 324 325 326 328 332 333 336 335 334 333 332 331 329 328 328 328 326 325 320 313 310 310 310 309 308 306 305
318 321 321 323 322 323 325 326 323 324 323 323 324 323 321 322 322 322 321 321 322 323 324 323 322 322 331 334 336 334 333 332 331 330 328 327 324 323 315 310 310 310 309 308 307 306 305 303 301
316 317 319 321 322 324 325 325 325 324 323 322 322 321 320 322 322 321 320 322 325 326 326 328 326 329 332 335 335 334 333 331 330 329 322 315 311 309 310 310 309 309 308 307 306 305 303 302 300
317 317 318 319 320 323 324 325 324 323 322 323 324 324 320 321 321 320 321 325 328 329 329 329 330 332 333 334 333 332 331 327 323 317 312 309 310 310 310 309 309 308 307 305 303 301 299 298 296
317 317 317 318 320 322 323 326 324 322 323 323 324 325 321 321 320 321 321 325 329 329 330 331 331 330 330 330 330 327 322 317 313 310 309 310 310 310 309 309 309 307 305 303 300 298 296 296 296
315 314 316 317 321 326 324 330 323 323 320 318 320 321 321 320 320 320 320 323 327 330 330 330 331 331 330 326 323 320 315 313 310 309 310 310 310 310 309 309 308 306 303 300 298 296 295 294 294
313 314 315 316 319 321 325 329 322 320 323 322 320 318 320 320 320 319 319 319 323 324 328 328 326 324 320 317 315 314 311 309 309 309 309 310 310 309 309 308 306 304 301 298 296 295 294 293 293
312 314 314 318 321 324 322 328 324 322 322 321 319 318 318 319 319 318 318 318 318 318 318 318 317 317 317 316 314 311 310 310 310 309 309 309 308 308 307 306 303 300 297 295 294 293 293 293 293
313 314 314 319 321 323 323 326 326 320 317 321 316 317 317 318 318 318 318 317 316 316 316 316 316 316 315 313 310 309 309 309 309 309 308 308 308 308 306 302 299 296 294 293 293 293 293 293 292
313 312 315 316 322 323 325 329 323 322 316 320 317 317 317 318 318 318 318 316 315 314 313 313 313 312 311 310 309 309 309 309 309 308 308 308 307 306 303 299 296 294 293 292 292 293 293 292 291
313 313 313 320 322 326 325 320 317 316 316 317 317 316 316 317 318 318 317 316 314 313 312 312 311 310 309 309 309 309 309 309 308 308 307 306 305 303 300 297 294 293 292 292 292 292 292 291 290
315 315 316 317 326 328 324 320 319 317 316 317 317 316 316 317 317 317 317 315 313 312 311 310 310 310 309 308 308 308 308 308 308 307 306 306 304 300 297 294 292 292 292 292 292 291 290 289 289
316 316 319 319 319 327 325 322 316 316 316 317 317 316 316 317 317 317 316 315 313 311 311 310 309 309 308 307 308 308 308 307 307 306 306 304 301 297 293 292 292 292 292 292 291 290 289 288 288
317 317 318 319 326 324 319 318 314 314 313 315 316 316 317 317 317 316 316 315 313 312 311 311 309 308 307 307 307 307 307 307 306 305 304 301 296 293 291 291 291 292 292 290 289 288 288 287 287

GFSSGP_850_thetae_024.txt.gz
Theta_e
323 321 322 323 319 319 322 324 319 322 325 326 326 326 325 326 326 329 335 335 330 329 323 328 338 339 334 335 335 333 328 328 321 317 315 321 328 328 327 319 318 317 314 313 314 326 327 325 322
324 321 323 323 317 318 320 319 323 322 323 326 326 326 325 330 334 333 334 331 331 326 322 327 337 336 335 337 335 334 330 322 320 319 320 319 326 327 324 319 315 316 315 313 313 314 321 322 321
324 323 323 319 318 320 319 321 321 323 324 326 326 328 329 331 335 335 336 329 330 328 323 326 336 334 336 338 335 334 326 320 320 316 324 326 319 323 324 324 324 322 318 313 311 312 311 311 312
325 325 322 320 321 320 320 320 319 321 323 326 326 326 330 331 333 334 332 330 330 329 328 327 333 332 338 335 333 331 324 319 317 315 325 327 328 329 329 328 325 329 319 312 312 312 312 313 314
326 325 321 321 321 320 320 322 320 320 322 325 325 325 330 332 332 331 328 331 332 330 329 327 329 332 337 334 333 326 324 317 314 314 324 328 330 330 330 329 327 328 314 313 313 314 315 315 315
327 322 321 322 320 320 319 323 319 320 321 324 324 327 330 333 334 332 334 334 335 333 332 330 326 329 333 330 329 328 322 317 314 314 322 326 328 330 331 331 330 322 314 314 315 315 316 317 317
325 320 322 322 321 322 322 325 319 320 322 324 324 326 328 329 329 333 334 335 335 335 334 328 323 327 331 331 329 325 322 320 317 313 317 322 325 327 329 329 324 318 316 315 316 317 318 318 319
328 321 324 322 324 324 323 324 321 320 321 324 325 325 328 329 328 332 333 334 335 335 335 330 325 325 327 325 324 323 323 322 319 316 314 314 317 322 321 319 319 319 317 316 316 318 320 322 323
329 325 326 326 324 324 323 323 325 323 323 324 325 325 326 327 330 333 334 334 335 334 333 331 331 328 328 328 330 334 332 326 319 316 322 315 314 321 325 324 322 319 319 320 321 322 323 324 325
327 328 327 323 323 323 323 323 323 324 325 325 326 326 325 325 327 327 329 329 330 331 331 329 331 332 333 334 335 336 333 330 329 327 328 326 325 325 325 324 323 323 323 323 324 324 325 327 328
327 329 325 325 325 324 323 322 324 323 322 324 325 325 326 325 326 327 326 327 325 327 331 332 330 333 334 335 336 336 334 333 332 331 330 329 328 327 325 323 324 325 326 326 327 328 328 328 328
323 326 327 327 327 326 324 325 323 323 323 324 324 324 324 325 325 326 326 325 323 326 329 332 333 332 334 336 336 337 336 335 333 333 332 331 330 328 327 327 327 327 328 329 329 328 328 328 327
320 322 324 326 327 327 326 324 323 323 324 324 324 324 324 325 325 326 326 326 323 324 327 332 333 333 334 336 337 337 336 336 335 333 333 332 331 329 328 328 328 329 329 328 328 327 327 327 327
318 319 321 323 324 325 326 325 324 324 324 324 325 324 324 323 324 326 326 326 325 324 324 331 333 334 335 336 337 337 337 335 334 333 332 333 332 331 329 329 329 328 328 327 327 327 326 326 323
319 320 320 320 320 323 325 326 327 326 325 324 325 325 324 324 324 325 325 326 326 326 324 329 333 335 335 336 337 337 335 334 333 332 332 331 331 330 330 330 328 326 326 326 326 326 321 313 311
319 318 321 320 320 321 325 328 325 325 324 323 324 324 324 325 325 325 324 325 324 324 324 330 333 333 333 335 337 336 335 334 332 332 331 330 329 328 328 326 325 325 325 323 314 311 310 310 308
317 318 319 321 320 322 323 326 323 325 324 323 324 325 325 324 323 323 323 323 323 324 328 331 332 332 332 334 335 336 334 333 332 331 330 328 327 327 327 326 325 317 311 310 309 308 307 307 306
318 316 317 319 320 320 323 323 322 324 322 322 324 324 323 323 322 322 321 321 321 322 324 327 329 330 332 333 335 335 333 333 332 331 329 327 327 326 322 312 310 310 309 308 308 307 304 302 302
314 314 316 316 317 319 322 322 321 322 322 321 322 323 323 322 321 321 321 321 320 321 322 323 324 324 329 333 335 335 332 331 331 330 329 326 318 311 310 310 309 309 308 308 306 304 302 301 300
315 316 316 315 315 317 320 322 321 321 322 323 323 322 323 320 320 321 321 320 321 322 324 324 323 322 329 333 335 335 332 330 330 330 322 311 309 310 310 309 309 309 308 306 304 302 300 298 296
315 316 315 316 315 315 316 318 320 321 321 322 322 323 323 321 321 321 321 321 324 325 327 327 327 330 332 334 335 333 332 330 327 316 310 310 309 310 309 309 309 309 306 303 301 298 297 296 295
314 314 316 316 316 316 319 322 319 321 322 320 322 322 322 320 321 321 322 324 326 327 328 330 331 332 333 333 333 332 330 325 314 310 310 310 310 310 309 309 308 306 302 300 297 295 294 294 293
313 312 313 315 316 316 316 319 319 319 321 322 320 321 322 321 321 321 321 324 328 328 329 330 330 330 330 330 327 325 320 313 310 309 310 310 309 309 309 308 306 302 299 297 295 294 293 292 292
312 312 313 312 314 317 314 319 319 322 322 321 320 318 319 318 320 321 323 326 329 329 330 329 330 330 328 322 318 314 313 310 310 310 309 309 309 309 308 306 302 299 296 295 294 293 292 292 292
311 313 313 315 314 313 312 316 316 318 319 319 320 316 318 318 319 320 322 323 325 327 329 328 327 324 318 315 314 312 310 310 310 309 309 309 308 307 306 303 299 297 295 293 292 292 292 292 292
312 312 311 310 313 311 319 320 320 318 317 318 319 319 317 316 318 319 319 320 321 321 323 320 318 316 316 315 312 309 309 309 309 309 309 308 307 306 303 299 296 294 292 292 292 292 292 292 291
312 313 310 310 314 319 320 321 319 320 314 314 315 315 315 316 317 318 318 318 318 318 317 317 316 316 315 312 309 308 309 308 309 308 308 307 306 304 301 297 294 292 292 292 292 292 291 290 289
312 311 312 312 313 315 322 322 323 320 317 315 315 315 315 316 316 317 317 316 316 315 315 314 314 313 311 309 308 308 308 308 308 307 307 306 304 301 298 295 293 292 292 292 292 291 290 289 289
313 312 313 311 313 317 320 323 319 318 318 315 316 315 315 315 316 317 316 315 314 313 312 311 310 309 308 307 308 308 308 307 307 306 306 305 302 298 295 293 292 292 292 291 290 289 288 288 287
311 312 313 314 314 320 320 320 314 313 315 316 315 315 315 315 316 317 316 314 312 312 310 309 308 308 307 307 307 307 307 306 306 305 305 302 299 295 293 292 291 292 291 290 289 288 287 287 287

GFSSGP_850_thetae_027.txt.gz
Theta_e
323 322 321 323 319 318 321 323 319 321 325 325 325 323 325 325 326 328 333 334 328 331 325 337 338 341 338 334 334 332 331 326 321 318 321 329 328 328 327 322 316 315 314 314 314 329 328 326 324
324 322 322 322 318 316 318 319 323 321 322 325 325 324 325 331 333 332 332 329 329 326 322 325 338 340 337 336 334 333 331 324 319 317 324 328 328 325 323 316 314 318 316 314 313 319 324 324 321
325 323 322 317 316 319 317 318 320 320 322 325 325 328 328 332 334 331 335 328 328 325 321 325 335 338 337 338 336 333 332 323 321 319 325 323 327 324 322 321 323 326 319 313 311 312 313 313 312
324 324 321 319 321 319 317 319 320 318 321 325 325 327 330 331 333 334 333 328 328 326 323 324 332 333 338 338 336 333 330 322 319 317 326 326 325 329 328 327 325 328 314 312 312 311 311 312 313
325 325 320 321 321 319 318 320 321 318 320 323 323 325 330 331 331 332 329 328 329 327 326 325 331 330 338 336 333 330 326 320 317 316 325 328 330 331 330 329 327 327 313 313 314 315 315 316 316
326 321 321 321 320 319 318 321 321 318 320 324 323 328 330 332 332 330 329 331 333 331 328 326 328 329 339 337 331 329 326 319 315 314 323 326 329 330 331 330 329 326 316 315 316 316 317 317 318
324 318 321 320 320 320 320 322 322 320 319 323 324 326 328 331 331 332 332 333 334 334 333 330 325 327 331 332 329 329 325 321 316 313 319 323 326 327 330 330 327 318 316 316 316 317 318 319 321
327 320 324 320 322 322 322 323 323 319 319 324 324 325 327 328 327 333 334 334 334 334 335 333 326 324 327 330 329 327 325 323 320 315 315 320 321 325 325 323 318 318 317 317 318 319 321 323 324
327 324 325 324 322 322 322 322 323 323 322 323 324 325 325 326 327 333 333 334 335 335 335 334 330 325 326 328 327 328 330 327 320 317 320 315 314 319 323 322 322 321 322 322 323 324 324 325 327
326 327 325 322 321 321 322 322 322 323 322 324 324 325 325 326 326 328 329 329 332 332 332 333 331 330 328 329 329 334 334 330 327 322 325 323 321 324 324 324 323 324 324 325 325 327 327 328 328
325 327 324 324 325 325 322 322 324 322 321 323 324 325 325 325 326 327 327 326 326 326 331 332 331 332 332 333 335 336 334 332 331 329 329 327 326 326 324 324 324 325 326 327 328 328 328 328 327
321 322 325 326 326 326 325 324 323 322 322 324 324 324 324 325 325 326 327 327 326 325 326 329 332 332 333 335 336 336 335 334 332 332 331 330 329 328 327 326 326 326 328 329 329 327 327 326 326
319 320 322 322 325 326 326 325 323 324 325 325 325 324 324 324 324 325 325 325 325 325 323 327 331 333 334 335 337 337 336 335 334 333 332 331 330 329 328 328 328 328 328 327 327 326 326 325 325
317 317 318 319 321 322 323 324 324 324 325 326 325 324 324 324 324 324 324 325 325 326 324 323 327 333 334 335 336 337 336 336 335 333 331 331 329 329 330 329 329 327 327 326 325 325 325 325 324
318 317 317 318 319 319 322 322 323 324 325 326 326 325 324 324 324 324 324 324 325 325 326 324 324 332 334 335 336 337 337 335 334 332 331 330 330 330 330 330 328 326 325 324 325 324 323 315 311
318 316 319 317 318 319 322 322 322 324 324 325 325 324 323 324 324 324 324 325 325 325 325 325 325 332 334 336 337 337 335 334 333 332 332 331 329 328 326 326 325 325 324 323 314 310 310 309 308
316 317 317 317 318 320 321 322 320 321 324 323 325 325 324 324 324 324 324 324 324 324 324 324 325 332 335 336 337 336 334 334 334 332 331 330 328 327 325 325 325 320 311 310 309 309 308 307 306
316 316 316 317 318 317 318 319 318 320 321 321 322 323 324 325 325 324 324 323 323 323 323 325 329 333 335 336 337 336 334 333 333 332 331 329 328 327 326 321 310 310 309 309 308 307 305 304 303
313 314 314 314 314 314 315 317 318 319 319 320 321 323 324 324 324 323 322 322 322 321 321 326 330 334 333 335 335 336 333 333 333 332 330 329 327 323 310 309 310 309 309 309 308 305 303 301 300
313 314 315 313 313 313 314 314 313 313 314 319 320 321 322 324 324 323 321 321 321 321 321 322 325 329 331 333 334 334 333 331 330 330 330 327 315 309 309 309 309 310 309 307 304 302 300 298 296
312 313 313 314 312 312 313 314 312 312 315 318 320 321 322 322 322 323 321 321 321 321 321 322 323 324 325 332 334 334 332 331 329 328 327 316 309 309 309 310 310 309 306 302 301 299 297 296 294
312 311 313 314 315 314 313 314 313 313 314 316 318 320 321 322 322 322 321 321 321 322 323 324 324 322 325 333 334 333 332 331 328 326 316 310 309 310 310 310 309 306 302 300 299 297 295 294 293
312 312 313 314 313 313 313 313 311 313 314 316 316 320 321 322 322 322 321 321 322 324 325 327 327 327 330 333 333 334 333 331 327 316 310 309 310 309 309 309 306 303 301 299 297 295 294 293 293
311 312 312 313 313 314 311 312 311 310 312 317 316 319 320 321 322 321 321 322 324 326 327 329 331 332 332 332 332 331 330 327 318 310 309 309 309 309 308 307 305 302 299 296 295 293 293 293 292
311 313 313 314 314 311 309 311 311 310 312 316 316 318 320 321 319 320 320 324 325 326 328 329 330 330 330 329 326 325 322 315 310 309 309 309 309 308 307 305 302 299 296 294 293 293 292 292 291
311 312 314 312 311 308 310 313 312 310 311 312 312 315 317 318 318 319 321 324 325 327 328 329 329 330 328 324 319 315 311 309 309 309 309 308 308 307 306 303 299 295 293 293 292 292 292 291 290
312 313 311 312 309 313 314 312 313 311 315 314 314 316 316 316 316 318 321 324 326 327 328 328 328 328 324 316 313 311 309 308 308 308 308 307 307 306 303 299 295 293 292 292 292 292 291 290 289
311 310 313 313 311 310 307 311 318 314 312 312 311 313 315 315 316 318 321 323 325 326 326 325 324 322 316 314 311 308 308 307 307 307 307 306 306 303 299 296 293 292 292 292 292 291 290 289 289
312 312 311 311 309 307 311 308 307 314 315 314 312 313 314 315 315 316 318 321 321 321 321 319 317 316 314 312 308 308 307 307 307 306 306 306 304 300 297 294 292 292 292 292 291 290 289 288 288
310 311 312 311 310 309 311 313 312 311 311 313 313 314 315 314 313 315 318 318 317 317 316 315 314 313 311 308 307 306 306 306 306 306 305 303 301 297 294 292 292 292 292 291 290 289 288 288 287

GFSSGP_850_thetae_030.txt.gz
Theta_e
322 322 321 322 318 315 318 319 318 320 323 323 323 323 323 324 326 328 332 331 328 330 325 341 339 338 338 337 334 332 328 327 321 318 324 329 327 328 325 324 315 314 314 314 318 329 329 326 329
322 322 321 321 318 318 316 317 321 321 321 322 323 326 324 330 332 332 333 329 327 327 325 331 341 341 338 335 334 333 331 328 320 316 331 330 329 323 321 315 316 319 315 313 313 324 325 324 321
322 323 321 316 315 319 318 316 320 320 322 322 324 327 328 331 333 330 330 328 326 324 323 327 338 342 339 336 335 334 332 326 320 317 326 329 328 323 320 321 325 324 314 311 311 312 313 314 313
324 324 319 318 320 318 316 316 319 318 321 323 325 327 329 331 333 333 333 328 326 323 322 326 334 338 337 337 336 333 331 325 319 318 327 322 325 328 326 326 324 319 313 313 312 312 312 312 313
325 324 319 320 319 318 316 318 320 318 318 320 322 325 329 330 331 332 331 327 328 324 323 325 332 336 338 338 336 332 326 323 317 316 327 328 329 330 330 329 327 322 314 314 315 315 316 316 317
325 321 319 320 319 318 317 320 320 318 319 320 322 327 329 331 331 330 328 329 330 328 326 326 330 331 335 338 333 330 325 322 315 314 324 328 330 330 330 330 329 324 317 316 316 317 317 318 319
322 318 320 320 319 319 318 321 319 320 318 320 323 325 327 330 331 331 330 331 333 333 331 327 326 328 333 338 333 329 327 322 316 313 320 325 328 330 331 330 329 320 318 317 316 317 319 321 323
326 318 323 319 321 321 321 322 322 318 318 321 323 324 326 328 327 331 332 333 334 334 334 333 329 325 328 331 331 330 326 323 319 314 318 323 325 326 329 328 322 319 319 319 321 321 323 324 325
326 323 324 322 321 321 321 321 322 323 322 322 323 324 325 325 327 328 332 333 333 334 334 334 332 326 326 328 330 329 327 326 322 317 316 318 319 322 321 322 323 322 323 323 324 324 325 326 327
325 324 323 320 318 321 321 321 321 322 322 323 324 324 324 325 326 326 328 329 331 331 333 334 333 331 326 327 329 328 332 330 323 319 321 317 314 320 325 325 323 323 324 325 326 327 327 328 327
324 326 322 323 324 324 322 321 323 322 321 323 322 323 327 327 326 327 326 327 327 326 330 330 332 332 330 328 329 330 334 330 328 324 326 325 324 325 324 324 324 324 326 327 328 328 328 327 326
321 321 324 325 325 326 324 324 323 322 322 323 324 324 323 325 329 326 327 327 327 327 328 328 331 333 332 332 332 334 335 332 331 329 330 329 327 327 326 325 325 326 327 328 327 326 326 325 324
319 319 321 320 320 322 323 324 324 324 326 325 325 325 325 324 323 324 325 325 325 325 325 326 328 331 333 334 335 336 336 334 333 332 331 331 330 329 328 327 327 328 326 326 325 325 325 324 324
316 316 316 317 318 318 320 321 322 323 325 325 325 325 325 324 324 324 324 323 323 324 325 325 324 326 332 334 335 336 337 335 334 333 332 331 329 328 328 328 329 328 325 324 324 324 324 324 322
317 317 315 316 317 317 319 320 320 320 321 323 324 324 324 325 324 324 324 324 324 323 324 325 325 323 329 333 335 337 337 336 334 332 331 330 329 328 328 328 327 325 325 324 324 322 314 310 309
318 316 317 315 316 317 320 320 317 319 320 322 322 323 324 323 325 324 324 324 323 324 324 325 325 324 326 333 335 337 337 335 334 332 331 330 329 328 327 325 324 325 324 320 311 310 309 309 308
317 318 316 316 315 317 318 320 320 320 319 320 322 323 323 324 325 324 324 324 324 324 324 325 324 324 325 334 336 337 337 334 333 333 332 331 330 328 327 325 324 323 312 309 309 309 308 308 307
315 316 315 315 315 313 314 316 315 316 317 318 318 320 321 323 324 325 325 324 324 323 323 323 323 324 327 334 336 337 337 334 334 333 332 331 329 328 326 324 319 309 309 309 309 309 306 304 303
314 314 316 314 313 312 313 313 313 313 314 316 318 319 319 320 322 324 324 323 323 322 322 322 323 325 330 334 336 337 337 333 333 333 331 330 328 328 325 311 309 309 310 310 307 304 302 302 301
312 314 314 312 311 312 312 313 312 311 312 314 316 317 319 321 321 323 324 324 322 322 322 321 321 326 331 334 336 336 336 333 333 332 331 328 327 324 310 309 309 310 310 308 305 303 301 300 298
310 310 310 310 310 310 311 312 310 309 310 311 312 313 316 319 321 321 322 323 322 321 321 321 321 326 332 335 336 336 334 331 331 329 329 326 320 311 309 309 310 310 308 307 304 301 299 297 295
311 310 311 311 312 312 311 313 310 311 309 308 310 313 316 317 319 321 321 322 322 321 321 321 321 323 328 333 335 335 334 331 329 327 325 322 311 309 309 310 310 309 308 305 301 299 297 295 294
311 310 311 312 313 311 312 314 309 308 309 308 309 314 315 316 316 319 321 322 322 321 321 321 322 323 324 329 333 334 333 330 327 325 324 313 309 309 309 309 309 308 305 302 299 296 294 294 293
310 311 312 313 313 315 312 311 310 308 308 307 310 313 315 319 320 320 321 322 322 321 322 323 323 324 323 327 332 332 332 329 327 324 315 309 309 309 309 308 308 306 303 299 296 295 294 293 293
311 314 314 315 315 312 308 310 311 307 307 309 309 313 315 317 318 320 320 321 321 321 323 325 326 326 326 330 330 330 330 329 328 322 310 309 309 309 308 307 306 303 300 296 294 293 293 293 292
311 312 314 314 312 307 307 310 309 307 308 309 309 312 312 317 318 319 320 321 321 322 324 326 329 330 330 328 328 328 328 326 317 309 308 308 308 307 306 305 303 300 297 294 293 293 293 292 291
312 313 311 313 312 313 310 309 309 310 308 310 309 310 311 311 313 317 318 319 321 323 324 326 329 330 330 328 327 324 319 312 308 308 308 307 307 306 305 303 300 297 295 293 293 293 292 291 290
311 310 312 312 313 313 308 306 308 307 307 307 307 307 311 314 314 315 317 319 323 325 326 328 329 329 328 325 320 314 310 308 307 307 307 306 306 305 303 301 298 295 293 292 292 292 291 290 289
312 312 312 311 311 307 308 306 303 304 306 309 312 311 311 312 314 316 317 319 324 326 327 327 327 327 324 317 312 309 307 307 306 306 306 306 305 303 301 299 295 293 292 292 292 291 290 290 289
310 311 311 310 309 309 305 308 308 308 309 312 312 312 313 313 314 315 316 319 323 325 325 326 324 324 318 312 310 307 306 306 306 305 305 305 303 302 300 296 293 292 292 292 291 291 290 289 288

GFSSGP_850_thetae_033.txt.gz
Theta_e
322 322 322 321 324 321 321 321 320 322 323 322 322 323 325 324 330 333 331 332 330 329 328 339 341 339 338 337 333 330 325 324 320 317 316 326 329 330 326 324 314 313 314 316 326 330 329 330 330
321 322 322 320 323 324 323 318 321 322 322 321 322 324 325 330 331 332 333 329 328 328 326 334 341 338 336 336 333 331 330 324 318 316 330 330 329 322 318 314 318 317 314 312 313 323 325 325 325
321 322 321 321 320 323 323 318 321 320 320 320 323 325 326 330 332 331 331 328 327 327 328 334 341 339 337 334 332 332 331 323 317 316 331 329 328 320 319 323 323 316 312 311 312 315 317 317 315
323 323 319 322 323 320 319 317 319 320 322 322 323 327 328 331 332 331 331 328 326 325 327 335 343 340 339 334 334 333 330 323 317 318 328 328 325 325 322 325 323 313 313 313 313 312 312 314 314
324 323 322 322 321 319 318 318 319 321 319 319 321 325 328 330 331 332 332 328 326 323 325 333 338 340 338 336 335 332 326 323 317 317 325 325 328 329 329 328 327 322 315 315 316 316 316 317 318
324 320 323 324 321 319 318 319 320 318 319 320 321 325 327 330 330 331 329 328 328 324 323 329 337 340 337 337 334 331 326 322 316 315 326 329 330 331 331 329 329 325 318 317 317 318 318 319 320
323 322 323 321 320 320 319 320 319 319 320 319 322 325 326 330 331 329 328 331 330 328 326 326 332 335 333 339 333 329 326 322 316 314 322 328 328 329 331 329 327 322 318 318 317 318 320 323 324
325 322 322 321 323 322 320 320 322 318 319 319 322 325 326 328 330 329 330 332 333 333 332 330 329 332 331 337 334 329 326 323 319 314 319 324 327 328 330 329 325 319 320 320 324 322 324 324 325
325 326 326 323 321 321 320 320 321 322 321 323 322 323 324 324 328 328 330 331 332 333 334 334 333 330 329 331 333 330 327 325 321 316 316 321 322 325 327 325 321 322 325 323 324 324 325 326 326
325 326 325 321 319 321 320 320 321 322 322 322 322 323 324 324 327 327 327 328 330 331 333 334 334 333 328 329 331 331 328 329 323 317 319 317 318 320 322 323 323 323 324 324 325 326 327 327 327
323 326 322 323 323 324 323 322 322 321 323 322 322 323 323 326 327 329 329 327 327 328 331 333 334 334 332 327 328 330 330 332 326 320 322 320 317 322 325 324 324 324 325 326 327 328 327 326 324
321 320 322 323 323 323 324 324 325 323 323 323 323 324 324 324 324 330 330 328 327 327 328 329 331 333 333 331 329 330 331 333 329 324 327 326 325 326 325 325 324 325 326 328 327 325 324 324 324
320 319 320 320 319 319 320 322 323 324 324 325 325 325 325 324 324 324 327 327 327 326 325 326 327 329 331 333 331 332 334 334 331 329 329 330 329 328 327 327 326 327 326 325 325 324 324 324 323
315 316 316 317 317 317 319 319 320 320 320 321 323 324 323 324 324 324 323 323 324 324 323 324 324 324 327 332 333 334 336 335 333 332 331 330 329 328 327 327 328 327 325 324 324 324 323 321 314
317 317 316 316 316 317 317 319 319 319 319 320 320 322 323 323 324 324 324 324 324 323 323 323 324 324 324 326 333 335 336 336 334 332 331 330 329 328 328 327 327 326 325 325 324 322 312 309 308
317 317 318 315 315 316 317 317 317 317 318 319 319 319 319 317 321 323 324 324 324 324 324 323 323 324 325 323 332 335 337 336 334 333 332 330 329 329 327 326 324 324 324 322 312 309 309 308 308
316 316 316 315 314 316 318 319 318 318 316 317 318 319 320 321 319 319 321 324 324 323 324 323 324 324 324 324 330 335 336 337 334 334 332 331 330 329 327 326 324 324 319 310 309 309 309 307 304
314 316 314 315 314 313 314 315 314 314 314 315 315 315 316 318 321 323 321 323 324 323 324 324 323 324 324 324 329 335 336 337 336 333 334 331 330 328 327 326 323 317 309 309 310 308 305 303 302
312 314 315 315 313 313 314 314 313 313 313 312 313 313 314 315 318 320 323 324 324 324 324 323 323 323 323 324 329 335 335 337 335 334 332 332 329 328 327 325 314 309 309 310 308 306 304 302 302
314 315 314 312 311 312 312 312 311 311 311 312 312 312 313 314 316 317 320 323 323 324 323 322 322 323 324 325 328 334 335 335 334 332 332 331 329 326 324 316 310 309 310 309 308 305 303 301 299
310 312 312 312 310 310 310 311 310 309 309 310 310 311 311 313 313 315 317 319 321 323 323 322 322 322 323 325 330 335 336 333 332 330 329 329 327 323 314 309 310 310 310 309 307 305 301 299 297
311 309 310 310 311 312 310 312 309 310 310 309 309 309 310 311 311 311 315 318 320 322 322 321 321 321 323 328 332 334 336 333 331 330 329 328 324 314 309 309 310 310 309 308 305 302 299 297 296
310 309 310 311 312 311 311 312 311 308 309 309 309 309 310 311 312 311 312 317 320 321 322 321 321 321 323 329 333 335 334 332 330 328 326 322 318 311 308 309 309 309 307 305 303 300 297 296 295
309 310 311 312 312 315 312 312 312 311 309 308 309 309 309 310 312 314 314 315 319 321 321 321 321 322 323 329 333 334 334 332 328 324 322 318 315 308 308 309 309 307 306 304 301 298 296 295 294
310 314 314 315 315 314 309 312 312 309 310 309 308 308 310 311 313 314 317 318 318 321 321 321 321 323 323 326 331 332 332 331 327 323 322 318 310 308 308 308 307 306 304 301 298 296 294 294 293
311 311 313 314 312 310 307 312 311 308 309 309 308 308 309 310 311 315 317 318 319 321 321 321 322 324 323 325 328 330 329 326 323 321 315 310 308 308 308 307 306 304 302 299 296 294 294 293 292
312 313 310 312 312 314 312 308 307 307 307 307 308 309 310 311 312 313 312 318 319 320 321 321 323 324 323 324 328 327 325 323 319 313 308 307 308 308 307 306 305 303 300 296 294 294 293 292 291
311 309 313 312 313 313 311 309 310 307 308 307 306 311 312 313 311 312 313 317 318 320 321 323 325 326 326 327 325 325 324 315 312 308 307 307 307 307 306 305 303 300 297 295 293 293 293 292 291
311 311 312 311 312 313 311 310 305 306 306 306 311 311 313 313 314 311 313 315 317 319 323 326 327 328 327 325 324 322 315 309 306 306 306 307 307 306 304 303 300 297 294 293 293 293 292 291 290
309 311 311 313 312 311 310 311 307 305 307 310 307 312 313 315 314 311 313 315 317 320 324 326 326 327 325 323 319 313 309 306 305 306 306 306 306 304 302 300 297 294 293 293 293 292 291 290 289

GFSSGP_850_thetae_036.txt.gz
Theta_e
322 322 322 323 326 326 327 322 325 326 326 326 324 326 330 329 335 336 330 332 330 329 343 343 342 338 336 335 331 325 323 322 320 318 319 333 331 331 328 325 314 314 322 326 330 330 331 332 332
322 322 323 323 326 327 326 324 324 326 325 324 324 325 328 332 332 336 335 330 331 332 344 345 342 338 337 336 332 328 328 322 318 316 319 330 329 329 326 316 321 317 314 313 319 326 329 329 329
322 322 324 325 326 327 326 325 324 325 323 323 327 327 329 333 334 335 334 328 331 337 344 343 342 339 337 335 332 330 328 320 315 323 334 330 330 317 317 322 317 313 312 311 312 320 322 321 320
325 324 322 325 325 325 325 323 324 325 324 323 325 330 330 331 334 334 330 329 330 342 343 336 341 338 337 333 331 331 328 319 315 327 330 329 320 319 325 325 320 313 314 313 312 312 312 313 314
324 324 325 325 325 324 324 323 323 324 324 323 322 328 330 332 332 332 331 329 336 340 342 336 342 340 340 334 333 331 326 320 316 321 327 325 327 328 328 328 327 318 316 316 316 316 317 317 319
324 323 324 325 324 324 323 323 323 323 323 324 323 325 328 330 331 331 331 329 334 338 339 340 342 342 340 337 335 331 325 321 315 320 325 328 329 330 332 328 328 323 317 317 318 318 318 319 321
323 324 323 323 323 323 323 322 323 323 323 324 323 326 328 330 332 331 329 331 329 332 330 340 339 339 338 338 336 331 326 322 316 315 327 329 330 329 330 329 328 323 318 317 319 319 321 323 323
324 324 323 324 323 323 322 322 322 323 323 320 323 325 327 329 332 330 329 331 331 329 333 338 340 340 338 338 336 332 328 323 318 314 323 328 328 329 332 329 327 322 319 319 324 322 323 324 324
325 324 324 323 323 323 322 322 322 322 323 324 323 324 325 323 331 333 334 332 334 332 331 335 340 339 339 339 337 334 330 326 322 315 318 323 329 328 330 329 325 320 327 322 323 324 324 325 326
324 325 323 323 323 322 322 322 323 323 323 323 324 323 324 325 328 336 337 337 337 336 334 335 339 340 338 336 337 334 334 331 328 319 316 328 329 328 325 323 321 322 323 324 325 326 327 328 327
323 325 323 324 323 324 324 324 324 323 325 324 325 325 324 325 329 332 334 334 337 338 338 334 335 337 337 336 336 336 334 334 332 325 322 324 320 319 323 324 324 324 324 327 327 328 327 326 324
323 322 323 323 324 324 325 325 325 324 323 323 324 324 324 326 326 328 331 332 333 335 332 331 333 333 334 337 335 337 335 335 333 325 324 323 325 322 327 327 324 325 327 328 327 325 324 324 324
320 320 319 320 321 320 320 321 322 322 323 324 325 325 325 325 326 326 326 332 332 332 329 329 330 331 331 333 336 337 337 335 333 327 327 328 329 329 326 327 327 328 328 325 325 325 324 324 323
318 319 319 319 319 319 319 319 319 319 319 320 320 321 323 324 325 325 325 324 325 329 330 328 325 326 329 330 333 336 337 336 334 331 329 330 330 329 328 327 327 327 326 325 324 324 324 321 313
318 320 319 318 318 319 318 319 319 318 318 319 319 320 320 321 323 325 325 325 324 324 324 323 324 324 324 328 332 335 336 336 335 333 331 331 330 329 327 327 327 327 325 325 325 323 315 309 309
317 318 320 318 317 317 317 319 318 318 319 319 319 319 319 320 321 322 325 325 325 324 323 323 323 323 323 326 334 337 337 336 336 333 332 330 329 328 328 327 326 325 325 324 321 309 309 309 307
318 320 319 319 316 317 318 321 319 319 318 319 319 320 320 321 320 320 321 323 324 324 324 323 323 323 323 324 335 337 337 337 335 334 332 331 330 329 328 327 326 325 324 317 309 309 309 307 305
318 318 317 317 316 316 317 318 318 317 317 318 319 319 319 319 320 320 321 322 322 322 323 324 324 324 323 323 334 336 337 337 336 334 333 332 330 330 328 327 326 323 316 309 309 310 310 308 305
315 316 317 317 315 315 316 316 316 315 315 315 315 315 316 317 318 318 320 321 322 321 321 324 324 324 323 324 331 334 334 335 336 335 335 334 331 330 327 326 325 317 309 309 310 310 309 307 304
315 316 316 315 314 314 314 313 313 312 312 312 313 313 313 313 315 316 318 320 322 322 323 324 324 324 323 324 327 329 332 334 334 335 334 333 331 330 327 326 319 310 309 311 311 310 308 306 303
314 315 315 315 313 312 312 313 314 313 312 312 311 311 312 312 312 313 315 318 320 322 322 324 324 323 322 323 328 327 331 334 334 334 333 331 330 328 325 319 309 309 310 311 310 309 306 303 301
314 312 312 312 312 315 312 316 315 315 314 313 312 312 312 312 312 312 313 315 318 321 322 323 323 323 323 324 325 326 330 334 334 332 331 330 327 326 314 310 309 309 310 310 309 307 305 301 298
312 311 311 312 313 313 314 313 314 314 314 313 314 313 313 312 312 312 313 313 316 319 319 321 322 322 322 323 324 329 332 333 333 330 329 326 326 320 310 309 309 309 310 309 308 306 302 299 297
311 311 311 312 313 316 314 315 315 315 314 314 313 312 312 312 312 312 313 314 314 317 318 320 321 321 321 323 326 330 332 333 333 329 326 326 322 315 308 309 309 309 309 308 306 303 300 297 295
311 313 315 316 316 316 312 313 314 313 313 313 313 312 312 311 311 312 314 315 316 317 317 320 321 321 321 323 328 330 332 333 332 329 328 326 320 312 309 308 308 308 308 306 304 300 297 295 294
312 312 315 315 314 313 311 313 313 312 312 311 311 311 310 312 313 312 314 316 317 317 315 320 321 321 322 324 328 330 332 331 330 327 326 322 314 311 308 308 307 307 306 304 300 297 295 294 294
312 313 312 314 313 315 312 311 312 312 311 311 311 311 311 312 312 313 312 315 318 319 317 319 321 322 322 324 327 330 329 330 327 324 319 314 309 308 307 307 306 305 303 301 297 295 294 294 293
312 311 313 313 313 313 312 312 312 312 311 311 311 311 312 312 312 314 313 314 316 319 319 320 321 321 322 323 325 328 327 327 322 317 313 308 307 307 306 306 304 302 300 297 295 294 294 293 292
311 312 313 312 313 314 314 314 311 310 310 311 310 311 311 313 314 314 314 315 318 319 319 320 320 321 321 322 324 327 324 318 317 312 306 305 306 306 305 304 302 300 297 295 294 294 293 293 292
310 311 311 314 313 313 314 314 311 311 310 311 311 310 311 313 314 315 314 316 317 317 316 317 319 321 321 322 324 322 319 317 313 305 304 305 306 305 303 302 299 298 295 294 294 293 293 292 291

GFSSGP_850_thetae_039.txt.gz
Theta_e
323 327 326 325 327 328 328 328 325 327 326 326 328 328 331 331 335 338 338 341 341 345 344 340 341 340 337 333 327 323 322 322 321 320 328 333 333 331 328 323 313 315 325 329 331 330 332 335 333
322 325 325 325 327 329 329 327 324 325 327 327 327 328 329 333 333 339 339 339 341 345 346 346 342 338 335 334 329 326 326 320 318 317 325 334 331 330 329 315 317 314 316 322 327 329 330 330 329
322 324 325 327 327 328 328 327 325 326 326 327 328 329 332 334 335 337 340 336 341 344 347 347 340 338 337 335 331 330 327 318 315 318 324 331 329 319 316 318 313 312 311 312 314 317 326 328 325
326 324 323 327 327 327 327 326 325 325 325 326 328 330 331 333 335 337 339 338 342 344 346 346 341 338 337 334 331 331 327 317 317 334 334 330 329 319 324 323 317 314 314 311 312 314 313 312 312
326 324 326 325 325 325 326 325 325 325 326 326 326 330 332 334 335 338 339 339 342 344 345 341 340 338 337 334 332 330 325 318 317 329 329 323 319 326 326 326 324 316 316 316 316 316 316 317 317
324 323 326 326 325 325 325 324 324 325 325 325 326 328 331 335 336 338 340 339 341 342 344 343 340 340 340 335 334 331 325 319 316 324 328 324 328 330 331 328 326 319 317 317 318 318 318 319 320
325 325 325 325 324 324 325 324 324 324 325 325 325 327 330 332 338 339 340 339 340 341 343 344 342 340 341 338 336 332 326 322 316 324 325 329 330 330 330 330 328 324 317 317 318 319 321 322 323
324 325 325 324 323 324 324 324 323 323 324 324 324 325 328 333 338 339 339 340 340 340 341 342 342 341 340 338 337 333 328 324 317 316 327 329 329 329 331 329 329 325 318 319 322 321 323 323 324
325 327 325 325 323 324 323 323 323 323 323 324 324 325 328 328 337 338 339 340 340 340 340 341 341 343 342 339 337 334 330 326 321 315 320 325 330 330 331 330 329 321 325 322 322 323 324 325 326
325 325 323 322 323 323 323 323 323 323 323 323 325 325 326 328 333 337 337 338 339 340 339 340 341 341 340 340 340 336 332 327 325 319 317 323 331 330 331 329 326 321 325 323 324 324 326 327 327
323 325 322 322 324 324 323 323 323 324 325 323 323 325 325 327 330 334 336 336 338 339 340 341 341 341 340 339 339 338 338 336 335 331 327 329 330 328 324 322 322 324 324 328 327 327 325 325 324
323 322 323 323 324 325 325 323 324 323 323 323 324 326 326 326 327 329 331 334 335 337 339 340 341 342 341 340 339 339 338 336 336 332 328 327 325 325 326 328 328 328 328 328 328 325 323 324 323
321 321 320 321 322 322 322 322 323 324 324 323 324 324 325 326 326 327 327 331 332 334 337 339 340 342 342 341 339 338 337 337 336 333 330 329 328 328 329 329 328 328 328 326 324 322 319 321 323
321 320 320 321 320 320 321 320 320 320 320 320 321 322 323 325 325 326 327 327 331 332 334 336 338 339 340 341 340 339 338 337 336 334 331 331 331 331 329 329 328 327 326 325 323 322 324 323 313
320 321 321 320 320 320 319 320 321 319 320 320 320 320 320 320 322 324 326 327 327 328 330 332 335 338 340 341 340 339 338 338 336 335 332 332 333 329 329 327 327 326 327 326 325 325 321 310 309
319 320 322 320 319 319 319 321 320 319 320 320 320 320 320 320 320 321 323 326 327 327 326 326 327 332 337 338 340 339 338 338 336 335 333 333 330 330 328 327 327 326 326 326 325 319 310 310 308
320 322 322 321 320 319 320 322 321 320 320 320 320 320 321 320 320 320 321 323 326 327 326 326 325 325 329 335 337 338 338 337 336 335 335 332 331 329 328 328 327 326 325 325 319 310 310 310 308
322 322 320 320 319 318 318 319 319 318 319 319 319 320 320 320 321 321 321 321 322 325 326 326 325 325 325 328 333 337 337 337 336 336 336 332 331 329 329 328 327 326 324 320 310 310 311 310 309
318 318 319 319 318 318 318 317 317 317 317 317 317 318 318 319 320 320 320 321 322 322 324 325 325 325 325 328 332 336 337 336 337 336 335 332 331 330 329 328 327 325 321 310 310 311 310 310 309
317 318 318 317 316 316 316 316 315 315 315 315 315 315 316 316 316 317 319 319 320 322 324 324 324 325 326 329 331 335 336 335 336 335 333 333 332 331 330 328 327 325 312 310 311 311 310 310 308
316 316 316 316 315 314 314 316 317 317 316 315 314 314 314 314 315 315 315 317 319 320 321 323 324 325 326 328 332 335 336 335 336 334 332 333 332 331 330 328 326 318 309 310 311 311 310 308 306
316 314 314 314 314 317 314 318 316 316 317 317 315 314 314 314 314 314 314 314 315 318 321 322 324 325 327 328 331 330 327 330 331 331 332 333 332 330 329 327 325 309 309 310 310 310 310 307 303
314 313 313 313 314 314 315 316 316 316 316 316 316 315 315 315 314 314 314 314 314 315 319 322 324 326 329 327 330 328 327 325 327 330 331 331 329 328 328 325 313 309 309 310 310 310 309 306 301
312 312 312 312 313 316 315 316 316 315 314 315 315 315 314 313 313 313 313 314 314 314 316 322 324 327 329 328 325 325 325 324 327 330 329 329 327 327 324 318 308 308 309 309 309 308 307 303 300
312 313 317 318 316 316 314 314 315 314 314 314 314 314 314 313 313 312 312 313 314 314 315 321 324 327 327 324 324 325 326 325 327 331 329 328 327 324 316 309 308 307 308 308 308 306 304 301 297
312 313 316 317 315 316 315 314 314 314 314 313 312 313 312 312 312 313 313 313 316 315 316 320 324 325 324 323 325 326 325 324 328 330 329 326 325 322 313 307 307 307 308 307 306 304 301 298 296
312 313 312 314 313 314 313 313 314 314 314 313 313 312 311 312 312 313 313 314 314 317 318 321 324 324 323 324 325 325 323 325 327 328 327 323 320 314 309 307 307 307 307 306 304 302 298 296 295
312 312 313 314 315 316 315 315 315 314 314 313 313 312 312 313 312 313 314 316 314 317 319 321 323 323 322 323 322 319 321 326 327 328 323 321 311 307 307 305 306 306 305 304 302 298 296 295 294
312 313 312 313 314 316 316 316 312 312 312 312 311 311 312 311 313 314 315 316 315 317 321 322 323 321 320 318 317 319 323 326 326 323 318 314 307 305 304 305 305 304 303 302 299 296 295 295 294
312 312 311 314 314 314 316 317 313 312 312 311 311 312 311 311 311 315 315 317 317 320 322 322 321 319 317 313 314 321 323 322 321 315 314 308 306 304 304 304 303 302 301 299 296 295 294 294 293

GFSSGP_850_thetae_042.txt.gz
Theta_e
322 328 326 326 328 327 327 328 326 327 326 326 328 328 327 329 336 342 340 341 340 337 334 335 333 336 333 326 325 328 328 324 323 329 330 331 332 330 324 318 312 320 323 332 331 332 332 334 332
322 326 325 326 328 328 328 326 325 324 326 327 327 327 327 332 338 336 342 341 346 340 337 336 335 335 332 327 322 323 323 320 318 320 333 335 333 330 329 315 313 312 318 323 328 328 329 330 331
322 326 325 328 326 327 326 327 325 325 326 326 327 326 329 335 337 339 341 341 346 346 339 337 338 336 332 330 327 327 324 318 316 318 333 333 329 322 316 314 311 311 311 313 316 319 329 327 325
327 326 324 324 326 326 325 325 325 325 325 326 327 328 331 335 335 339 338 341 344 347 344 340 338 335 335 331 328 327 321 315 322 322 330 331 325 317 318 314 312 312 311 311 312 314 315 314 312
326 326 325 324 324 324 324 325 325 325 325 326 327 327 334 334 335 338 335 342 344 347 348 346 337 335 334 331 329 327 321 315 329 334 333 323 322 322 322 320 316 315 315 315 314 314 315 317 316
325 324 325 326 325 323 322 324 325 325 325 325 325 326 335 335 337 339 338 342 343 345 346 345 340 335 335 331 330 326 321 315 319 327 324 318 322 325 327 326 322 317 316 317 317 317 317 319 320
324 325 324 324 324 323 323 324 324 324 324 324 325 325 333 336 338 340 339 340 342 344 344 336 338 337 337 331 329 327 322 317 316 323 326 323 327 330 332 330 326 320 317 316 317 318 320 321 322
323 325 326 324 323 323 323 323 324 324 323 324 325 324 330 338 338 340 339 339 341 343 343 342 338 337 338 336 332 327 324 320 315 321 323 328 330 329 330 330 329 324 317 318 320 320 322 323 323
323 326 326 325 324 323 322 323 323 323 323 323 324 325 328 337 339 339 339 340 340 342 342 343 340 339 341 338 334 330 327 323 318 315 323 326 328 330 330 329 328 324 321 321 321 322 323 325 326
325 327 327 323 322 322 322 323 323 323 323 323 324 325 326 327 337 339 339 340 340 340 341 342 342 342 340 339 337 336 330 326 323 317 317 323 332 330 331 331 329 320 322 322 323 324 325 326 325
322 325 322 321 321 324 324 324 323 323 323 324 323 324 325 328 330 337 337 338 339 340 339 340 341 341 341 340 338 338 335 328 327 324 318 321 331 331 328 326 323 321 322 327 327 327 325 324 324
322 322 322 322 323 324 324 324 324 323 323 323 323 324 326 326 328 330 335 336 337 338 339 340 340 341 340 340 339 337 337 335 335 334 328 328 330 329 326 323 326 325 327 329 328 325 324 323 322
321 321 322 322 322 322 323 323 323 323 323 323 323 323 324 326 326 326 328 332 334 337 338 340 341 341 341 340 338 338 335 336 335 335 330 327 328 324 326 328 328 328 328 328 327 324 320 322 322
320 320 321 320 320 320 320 320 321 320 320 321 322 323 323 324 325 326 326 327 330 332 336 338 339 341 341 341 340 339 338 337 336 335 332 328 326 327 328 328 328 328 328 327 324 322 323 323 314
320 320 320 320 320 320 320 320 320 320 320 320 320 320 320 321 323 324 326 326 327 330 332 335 337 339 341 339 340 339 338 337 336 335 333 330 330 330 329 329 328 327 327 326 325 325 324 314 310
320 320 322 320 320 320 319 320 318 319 319 319 319 320 320 320 320 320 322 324 326 327 329 332 334 336 338 340 338 340 339 337 337 335 334 331 331 331 329 328 327 327 327 326 325 325 315 310 311
320 320 320 320 319 319 318 319 319 320 320 320 320 320 320 320 320 320 320 321 323 325 327 327 330 334 336 338 340 339 339 338 337 335 334 332 332 330 329 328 327 327 326 325 325 321 310 311 312
321 320 319 320 319 318 318 318 317 318 318 318 320 320 320 320 320 320 320 320 321 323 326 327 326 326 329 336 338 339 338 338 336 335 334 333 332 330 329 328 327 327 326 324 323 311 311 312 312
320 318 317 317 317 317 316 316 316 316 316 316 317 318 318 319 320 320 320 321 320 321 323 326 326 326 325 328 334 337 338 337 336 335 333 333 333 331 329 328 328 327 326 323 312 310 312 312 311
316 316 317 316 316 315 314 314 314 314 314 315 315 316 317 317 318 318 319 320 320 321 321 322 325 326 325 325 327 333 336 337 335 335 335 334 333 331 329 328 328 327 326 320 310 310 312 311 311
315 315 315 315 314 313 313 313 313 315 313 314 314 314 315 315 315 316 316 317 319 320 321 322 322 324 325 325 325 330 336 336 336 335 335 334 334 331 330 329 329 328 326 315 310 311 311 311 310
315 314 314 314 314 314 313 315 313 313 313 313 314 315 315 315 314 314 314 315 316 317 319 319 321 323 324 325 327 330 334 336 336 335 334 334 332 331 330 329 328 327 325 313 310 310 310 310 309
314 313 313 313 313 312 313 313 313 315 313 313 313 315 315 315 315 314 314 314 314 314 316 318 319 321 324 325 327 331 333 333 331 332 334 332 329 330 327 328 328 326 319 310 310 310 310 309 308
312 312 312 312 312 313 312 314 313 312 313 313 312 315 315 315 314 314 314 313 313 314 314 314 319 320 323 326 328 332 331 331 331 333 332 331 328 328 325 326 325 323 312 309 309 310 309 309 306
312 312 311 316 314 311 313 313 313 312 312 312 312 314 314 314 313 313 312 312 313 313 314 314 315 322 323 327 330 332 331 330 327 327 328 329 326 324 323 323 321 317 309 309 308 308 308 307 305
312 313 311 316 315 314 312 313 311 312 312 312 313 312 312 312 312 312 312 313 313 314 314 314 314 324 325 328 330 331 329 327 324 324 324 327 326 324 323 321 315 309 308 308 308 307 307 305 303
312 312 311 313 311 308 310 309 310 311 311 310 312 312 312 312 312 312 313 313 314 315 315 315 314 323 326 328 329 328 324 325 325 324 326 327 325 323 321 316 309 308 307 307 306 306 305 303 299
312 311 313 310 306 312 312 311 312 311 311 311 310 309 311 312 312 312 313 314 313 315 315 317 316 321 326 327 326 325 326 326 324 324 327 323 322 318 316 308 307 306 306 306 305 304 302 298 297
311 312 312 311 313 311 314 313 311 312 312 311 311 312 311 311 311 312 313 313 313 315 315 318 319 323 325 324 324 325 326 324 322 324 323 321 317 311 308 306 304 304 304 305 304 302 299 297 295
311 312 310 311 310 311 311 314 312 311 310 310 309 311 311 311 311 311 315 314 313 317 317 320 321 322 323 323 324 324 323 320 322 321 318 315 309 310 304 303 302 304 304 303 301 299 297 295 295

GFSSGP_850_thetae_045.txt.gz
Theta_e
322 322 325 326 322 321 324 325 323 322 323 325 326 326 325 329 333 338 339 339 340 334 338 335 330 326 325 327 330 333 333 333 335 334 333 331 330 329 321 312 319 323 333 331 333 330 329 331 330
322 322 325 325 323 324 323 322 323 320 325 326 326 326 325 337 336 340 340 341 340 336 337 334 331 327 322 321 323 322 321 320 321 326 329 334 333 330 326 313 311 317 323 330 329 331 331 330 329
322 324 326 322 320 324 323 322 320 323 325 325 325 326 327 335 336 338 340 341 341 337 337 333 331 327 322 319 319 319 316 315 316 334 334 334 331 319 315 311 311 312 315 317 319 319 326 326 326
322 326 326 321 323 321 322 321 322 323 325 325 326 326 334 336 338 340 340 340 345 340 336 334 333 328 326 324 323 320 315 314 315 330 333 331 318 316 313 312 312 310 311 311 312 314 317 315 311
326 326 321 321 320 320 319 321 323 323 323 325 326 325 334 337 336 339 340 341 345 345 340 336 332 331 329 326 325 321 315 318 323 326 329 329 318 319 317 314 313 314 313 312 312 312 314 315 315
324 324 321 325 322 320 319 322 321 323 323 324 325 324 334 336 334 336 341 342 344 346 346 340 334 332 329 326 324 320 316 320 335 331 328 323 319 320 320 317 315 315 316 316 316 317 317 318 319
321 318 320 320 320 320 321 323 321 322 323 323 324 323 334 337 338 336 342 343 344 346 347 346 340 332 330 328 325 321 317 315 323 325 320 317 322 327 328 325 318 316 316 316 317 318 320 321 321
322 320 323 320 321 320 320 321 323 323 321 324 324 322 336 338 339 337 341 343 343 344 344 341 340 334 332 329 328 324 321 316 316 320 322 324 328 329 330 329 322 318 316 317 318 319 320 321 322
322 321 322 324 323 322 323 320 323 323 323 323 324 328 337 338 340 339 339 342 342 342 343 340 334 335 334 333 331 327 323 320 316 318 322 327 328 330 330 330 327 320 319 319 320 321 322 324 324
320 322 323 321 321 320 322 322 322 322 322 322 323 327 336 336 339 339 339 340 341 342 342 342 341 336 336 337 333 329 326 323 320 316 321 324 327 328 330 329 327 319 321 321 321 323 324 325 324
320 322 322 323 322 322 323 323 323 321 321 322 322 323 326 325 331 339 339 339 340 340 341 342 342 341 339 336 335 335 331 326 323 319 317 323 329 329 330 329 328 319 320 323 325 324 323 324 324
319 320 321 321 321 322 323 324 323 323 322 322 323 323 323 328 327 336 338 338 339 339 339 341 341 341 341 339 337 337 332 332 326 325 316 324 328 330 330 326 321 321 325 328 327 326 324 324 323
318 318 320 321 321 320 321 321 321 322 323 323 323 322 323 324 327 329 334 336 337 338 339 339 340 340 341 340 340 339 336 331 328 331 327 322 328 329 328 324 326 325 327 328 327 326 325 322 322
318 319 319 320 320 319 319 319 319 320 322 322 322 322 322 322 324 326 326 328 332 335 338 338 339 340 341 340 340 339 336 334 332 334 334 327 328 329 322 326 328 327 327 328 327 327 323 323 320
319 319 318 318 319 318 319 318 318 320 319 319 319 320 321 321 322 323 325 326 326 329 333 337 338 339 341 341 340 340 337 337 336 335 334 332 327 325 325 328 328 328 328 328 327 325 324 323 312
319 319 321 318 318 319 319 319 317 319 318 319 319 319 319 319 320 321 323 324 326 326 327 335 337 336 337 341 340 339 338 337 337 336 334 333 329 329 328 328 327 328 328 326 326 325 325 316 310
319 318 318 319 317 318 318 318 317 318 318 317 318 318 319 319 319 319 320 321 323 325 326 327 335 335 334 335 340 339 338 338 336 336 335 334 330 330 330 329 328 327 326 326 326 325 324 310 311
319 319 317 317 317 317 317 316 315 318 317 317 317 317 319 319 319 319 319 319 320 321 325 324 329 333 334 333 335 336 337 337 337 336 335 334 332 330 331 330 328 327 326 326 324 324 314 311 312
317 318 315 314 315 314 315 315 313 314 315 315 316 316 317 318 320 320 320 320 320 319 320 321 324 328 334 335 335 337 339 338 336 335 334 334 332 331 332 330 328 327 326 326 324 321 310 311 312
317 315 314 314 314 312 312 312 312 312 312 313 314 314 315 316 317 318 319 320 320 320 320 320 322 326 329 335 334 332 335 337 337 335 334 333 333 332 332 330 328 327 326 326 324 313 310 312 312
314 314 314 314 312 310 310 312 311 310 311 312 313 313 313 314 316 316 317 317 318 319 320 320 321 322 326 327 329 332 332 335 335 335 334 334 333 332 332 330 328 328 327 326 324 311 311 312 312
315 312 313 313 311 311 309 312 309 310 310 311 311 312 313 314 314 315 315 315 315 316 317 318 320 321 322 325 325 325 331 334 335 334 334 334 334 333 331 331 328 327 327 325 321 310 310 311 311
313 312 312 312 310 309 310 310 309 308 312 310 309 312 314 315 315 314 314 314 314 314 314 315 316 318 319 321 325 325 325 329 331 333 333 333 331 332 331 330 328 327 326 323 314 310 310 311 311
311 311 311 310 309 309 309 310 309 310 312 311 311 313 314 314 314 314 314 314 313 314 314 314 314 316 318 318 322 325 325 325 329 331 330 331 331 331 330 329 327 324 324 320 312 310 310 310 310
313 310 304 315 314 309 310 311 310 309 310 310 309 312 313 314 313 313 313 312 312 312 313 313 313 314 315 319 318 324 325 326 327 328 328 328 330 331 330 327 325 324 322 314 309 309 309 309 308
311 310 306 313 313 311 309 312 310 309 311 310 312 311 312 313 313 312 312 312 312 312 313 313 314 313 313 317 320 322 325 328 330 328 328 329 329 329 327 326 323 320 313 309 307 308 308 308 306
311 311 309 311 307 301 307 306 307 307 309 307 309 310 311 311 312 311 312 312 313 313 312 313 314 314 314 315 324 324 327 329 328 328 329 329 327 327 326 324 322 314 309 307 306 307 307 306 303
309 308 308 302 302 309 309 308 309 310 310 309 308 309 311 311 311 312 312 313 313 312 311 312 314 315 315 322 325 326 329 329 327 328 327 324 325 324 324 320 314 311 305 305 305 306 305 304 301
311 313 311 309 308 307 311 310 307 309 311 309 308 310 311 312 311 311 311 311 311 311 310 314 314 316 316 323 325 326 329 326 326 326 323 322 323 321 319 316 309 305 302 303 303 303 302 300 298
309 309 308 303 306 307 305 311 309 309 308 310 311 313 312 312 310 310 312 313 313 312 312 315 316 317 320 323 324 326 327 326 325 323 322 322 319 317 314 311 303 301 301 304 305 301 301 298 297

GFSSGP_850_thetae_048.txt.gz
Theta_e
323 322 325 325 321 319 323 324 322 323 321 325 326 325 327 329 332 333 338 338 340 340 335 332 330 328 332 338 337 337 336 337 336 334 334 332 330 328 318 313 327 332 334 333 323 333 332 328 329
322 321 325 325 322 322 321 320 322 320 323 324 325 324 326 336 338 338 338 338 340 336 334 329 327 326 326 328 330 329 329 330 333 333 330 328 330 328 321 311 321 331 332 329 330 328 329 330 329
322 321 325 320 319 322 321 321 321 321 324 324 325 325 330 335 335 336 338 339 340 335 333 329 327 321 320 321 322 323 321 321 323 325 332 333 331 319 312 311 313 318 325 327 325 330 329 329 328
321 324 325 320 324 320 320 320 319 320 323 324 326 324 335 336 336 336 339 338 340 337 333 331 330 324 318 317 318 317 316 315 317 336 335 333 323 313 311 311 310 312 314 315 315 315 323 320 313
324 324 320 321 320 319 318 320 321 319 321 324 325 325 334 338 338 337 336 337 339 335 334 331 330 327 322 321 320 317 315 315 320 334 333 329 314 313 312 312 312 311 311 311 312 312 313 312 314
324 322 321 322 319 319 317 320 320 319 321 323 324 328 334 337 338 337 339 338 341 338 335 333 332 329 327 324 321 317 316 318 319 326 327 325 316 317 315 313 314 314 314 315 315 316 317 318 319
320 317 321 320 320 320 319 321 319 320 320 322 323 324 336 338 339 336 339 343 344 343 340 335 333 332 330 325 323 318 315 318 320 325 324 322 318 320 320 316 315 316 316 317 317 318 319 320 321
320 318 321 318 320 319 318 321 321 320 320 323 324 331 335 337 338 340 341 343 344 345 345 344 341 333 330 327 325 320 316 316 319 320 318 318 320 327 328 324 317 316 316 317 318 319 320 321 322
321 319 321 322 319 319 321 320 322 322 321 322 324 329 328 336 338 340 342 343 345 346 345 344 343 338 332 329 328 324 319 316 317 319 320 323 327 328 330 328 321 317 317 318 319 320 321 322 322
318 318 320 319 320 321 320 322 322 321 321 321 325 329 336 338 338 338 339 342 344 345 344 343 340 338 334 331 330 327 323 319 317 318 321 324 326 328 330 329 327 319 323 320 321 322 323 323 323
318 320 319 322 323 322 322 322 323 321 320 320 324 335 337 338 339 338 338 338 340 342 342 341 340 338 335 333 332 330 325 323 320 317 320 323 325 327 329 328 326 320 320 321 322 323 324 324 323
319 319 321 322 322 321 321 323 322 322 322 322 322 323 327 336 339 338 338 339 339 340 340 341 340 340 339 336 335 333 329 326 324 320 318 321 323 325 326 325 326 321 320 324 325 324 323 323 323
317 318 319 320 320 319 319 320 321 322 323 323 323 322 322 323 327 337 338 339 339 338 338 338 339 340 340 340 339 335 335 333 329 324 319 319 323 325 326 326 322 320 323 326 327 326 324 324 322
317 318 319 319 319 319 319 318 319 319 322 322 322 322 321 322 323 326 334 338 338 338 338 338 338 338 339 339 340 338 337 336 333 326 325 319 321 326 327 327 324 325 325 327 327 326 326 323 322
319 318 318 318 318 318 319 319 317 319 319 320 321 321 320 320 322 323 324 325 326 329 338 339 338 338 338 337 339 339 338 338 334 330 331 329 323 326 327 325 323 326 326 327 327 326 326 323 323
318 317 320 317 318 318 318 320 317 318 318 319 319 318 317 317 318 321 323 323 325 324 325 335 337 338 338 337 337 339 338 339 336 333 333 332 331 326 326 324 326 327 327 327 327 327 325 324 322
317 318 318 318 317 317 316 318 316 318 317 317 318 318 318 318 319 318 320 322 324 324 324 323 332 339 338 338 337 337 337 338 337 335 334 334 333 328 326 325 327 327 327 328 327 326 325 324 314
319 318 317 317 316 316 316 316 315 316 316 317 317 317 318 317 319 319 319 318 321 323 323 323 322 332 336 336 335 337 334 336 337 336 335 335 334 331 328 328 328 328 328 328 326 325 325 324 310
317 318 316 314 313 312 312 311 311 312 313 314 315 315 316 317 318 318 319 319 319 319 320 320 320 321 331 334 334 333 334 334 336 337 336 336 335 333 330 330 330 329 328 326 326 325 324 317 310
318 318 315 313 313 312 311 311 311 311 311 312 313 314 314 315 316 317 318 318 319 319 319 319 319 319 320 329 332 333 331 332 332 333 335 334 334 333 331 330 330 330 328 326 326 325 323 310 311
313 313 314 314 311 309 309 311 310 309 310 311 312 312 313 313 314 314 315 317 317 317 318 319 320 320 319 321 329 332 333 332 332 332 333 335 334 333 330 330 331 331 329 327 326 325 321 310 311
315 311 312 312 311 311 309 311 308 309 309 308 309 311 312 313 314 314 314 314 315 316 316 317 318 319 320 321 326 331 333 332 330 330 330 332 334 333 330 329 331 331 329 327 326 324 317 310 311
313 311 311 311 309 308 309 310 308 307 310 309 308 312 314 314 314 314 314 314 314 314 314 314 315 317 317 319 320 328 333 332 329 327 329 329 332 332 330 328 329 330 329 327 326 324 315 309 310
311 309 308 308 306 305 308 309 308 308 311 311 310 310 312 314 314 314 314 314 314 314 313 313 313 314 315 315 317 320 323 331 332 329 328 327 329 330 329 328 329 331 328 326 325 323 311 309 309
309 306 303 305 304 308 308 309 308 308 308 308 307 308 310 311 312 312 312 313 313 313 313 313 313 313 314 314 314 317 319 320 325 328 327 327 328 328 328 327 327 328 326 326 323 319 312 308 309
310 307 304 309 312 309 307 310 309 308 307 307 308 310 311 311 311 311 311 311 312 312 312 312 312 312 312 313 313 313 316 319 321 325 326 326 326 326 326 326 327 326 324 323 321 314 307 306 306
310 305 307 307 303 301 306 305 304 306 308 307 308 311 311 311 312 311 310 312 312 312 312 312 312 311 311 312 313 313 313 318 319 323 325 326 326 326 326 326 325 322 319 321 315 307 309 303 305
308 308 306 298 300 307 307 307 308 308 309 308 307 309 311 313 313 313 313 313 313 311 311 312 312 310 310 313 313 314 313 318 322 323 326 326 325 325 326 325 324 318 316 311 307 306 306 301 303
310 310 309 305 304 305 310 309 305 308 309 308 306 311 313 313 313 312 310 310 312 311 311 311 310 310 311 314 315 315 318 324 326 324 325 325 324 325 325 324 320 313 309 306 304 302 301 301 302
308 309 307 303 304 304 303 309 307 307 307 308 310 313 314 313 312 312 312 311 312 311 311 311 310 310 314 314 316 317 327 326 325 326 324 324 325 323 322 318 312 306 304 304 300 300 299 299 300

GFSSGP_850_thetae_051.txt.gz
Theta_e
323 323 322 325 320 318 322 322 320 321 322 323 323 324 326 327 330 330 338 337 337 339 339 338 341 337 337 337 338 338 339 337 333 330 329 330 331 327 317 315 327 334 331 331 332 335 332 330 328
322 322 322 324 320 321 319 319 321 319 321 323 323 328 330 335 337 336 337 338 337 337 334 334 340 341 341 339 338 339 335 335 335 333 330 327 327 326 320 317 333 333 330 329 334 334 329 328 328
322 321 325 319 319 320 318 318 320 319 322 322 323 325 329 333 335 335 336 336 338 337 331 327 340 340 341 336 333 334 336 334 329 329 326 328 329 323 312 313 326 332 329 326 327 327 329 329 327
321 322 322 321 322 319 318 319 318 319 323 322 324 328 334 336 336 336 337 337 339 334 331 323 324 332 328 327 327 326 328 331 325 323 330 330 326 313 311 311 313 317 322 322 320 325 324 323 319
322 324 320 321 321 320 317 319 320 318 319 321 323 327 333 336 337 337 338 337 338 336 332 325 323 321 321 322 321 318 317 317 317 334 331 329 314 311 311 311 310 312 313 313 313 313 315 312 313
323 321 319 321 320 318 317 319 319 318 319 321 322 330 333 336 335 337 338 338 339 336 333 329 326 323 319 319 319 317 315 315 320 328 329 325 313 312 312 312 312 311 311 312 313 315 315 317 318
321 318 321 319 319 317 318 320 319 319 318 320 321 329 334 335 336 336 339 339 342 337 333 331 328 326 324 323 322 318 316 317 318 324 324 322 315 314 313 313 314 315 316 316 316 317 319 320 321
321 316 319 318 319 319 318 320 320 320 320 320 322 329 335 335 335 337 340 341 343 342 339 333 330 328 329 325 323 319 315 318 320 323 321 319 317 318 317 315 315 315 316 317 318 319 320 321 322
319 318 320 319 318 319 319 320 321 321 320 321 322 326 329 332 336 338 342 343 344 344 343 338 337 334 330 327 325 321 316 319 321 321 320 319 319 324 326 321 317 316 316 318 319 320 321 322 322
317 317 319 318 317 320 319 321 321 321 320 320 324 328 332 336 336 335 338 341 343 343 343 343 343 342 338 329 327 324 320 317 320 321 320 319 323 326 329 326 321 317 318 319 320 321 322 322 322
317 318 318 321 321 322 320 320 322 321 319 319 321 336 337 338 338 337 337 335 333 340 342 342 342 341 338 333 329 326 323 320 318 319 320 320 325 326 328 329 326 319 323 320 320 321 323 323 323
319 318 320 320 320 320 320 320 322 322 322 321 322 324 334 337 338 338 338 338 339 340 341 341 341 340 338 335 332 329 327 323 321 318 319 321 324 325 328 328 326 323 319 321 321 322 323 323 323
317 317 319 320 320 319 319 318 319 321 321 322 322 322 322 324 332 338 338 338 338 339 340 340 340 339 339 338 336 334 333 328 324 322 319 319 321 323 326 327 326 327 320 322 324 324 323 323 323
317 318 318 319 318 318 318 317 319 318 320 320 321 322 322 321 322 323 334 338 338 339 340 339 339 339 338 338 338 337 337 333 332 329 324 320 319 322 326 327 325 322 321 324 326 326 325 325 322
318 318 317 317 318 317 318 317 315 319 319 319 319 319 319 320 321 320 323 330 338 338 338 339 338 338 338 338 338 339 338 335 336 335 332 325 320 320 325 328 326 324 324 326 327 327 326 325 322
317 316 319 317 316 317 318 319 316 318 319 319 319 319 318 318 319 320 319 322 323 328 329 333 337 338 338 339 338 337 337 337 337 336 333 326 325 321 323 327 327 324 326 326 327 326 326 325 323
316 317 318 318 316 316 316 317 316 317 317 317 317 317 316 317 317 317 319 318 322 323 323 322 323 328 336 337 337 337 336 336 337 336 334 330 330 329 325 326 326 324 327 327 327 327 326 324 323
318 318 316 317 315 315 315 314 315 316 316 315 316 317 318 318 318 318 318 318 318 320 322 322 321 320 321 332 337 336 337 337 338 337 336 333 332 332 331 327 326 325 327 327 327 327 326 324 324
315 317 317 315 313 312 311 310 310 311 311 311 313 316 318 318 318 318 318 318 318 319 318 321 322 320 320 320 332 336 335 334 336 336 335 333 334 333 332 329 326 326 327 327 327 327 325 325 324
318 318 317 313 312 312 310 310 310 310 311 312 313 314 314 315 317 317 318 318 318 318 319 318 319 319 319 319 320 331 333 333 332 332 331 329 332 334 332 331 329 328 328 328 328 327 326 324 323
317 314 313 314 311 309 308 309 309 308 309 310 311 312 312 312 313 313 314 315 316 316 318 318 319 319 319 319 319 324 334 334 333 332 331 331 330 331 330 329 330 329 329 329 328 327 326 324 322
313 311 312 311 311 312 308 311 308 307 307 307 309 310 310 311 312 313 314 314 314 313 314 316 317 317 318 318 318 319 320 327 331 331 330 329 331 331 330 328 330 330 329 330 329 327 326 324 320
313 310 310 309 308 308 309 309 308 306 309 309 307 308 309 310 311 312 313 314 314 314 314 314 315 315 316 317 317 320 323 325 331 331 331 329 329 329 331 330 328 329 328 328 329 328 325 324 319
309 309 307 306 306 304 307 309 308 308 309 307 306 309 310 311 310 311 312 313 314 314 314 314 314 313 313 314 315 316 317 322 327 333 330 331 329 327 328 329 328 327 327 328 329 326 323 322 318
308 306 303 305 305 308 307 309 308 307 307 308 306 309 311 312 312 312 311 311 312 313 314 314 314 314 314 313 313 313 314 316 319 322 328 330 330 328 327 327 328 327 327 327 327 323 323 319 313
309 307 304 308 311 309 306 310 309 306 306 306 309 310 311 312 313 313 313 312 310 311 312 312 312 313 313 312 313 313 313 313 314 318 319 323 328 329 328 327 327 327 327 326 324 321 317 317 307
309 305 306 304 301 303 306 304 302 306 307 307 308 310 311 313 314 313 312 312 313 312 312 312 312 312 311 311 311 311 311 312 313 313 317 320 323 326 328 327 325 325 325 323 321 317 314 310 310
308 307 307 299 299 306 305 305 305 307 308 307 305 308 311 314 314 313 313 312 311 311 312 311 311 312 312 312 311 310 310 313 313 313 314 319 322 324 327 327 326 325 323 321 317 312 309 304 305
309 307 306 304 303 303 308 306 304 306 307 307 305 308 313 314 315 313 312 312 312 312 312 311 311 311 310 310 310 310 312 313 314 314 317 321 324 325 325 325 324 322 321 316 311 309 305 304 303
308 308 306 303 304 301 301 307 305 305 305 306 309 309 314 315 314 312 313 313 312 311 312 311 311 311 311 311 311 313 314 315 316 319 321 322 324 324 324 322 322 320 314 308 307 303 303 303 302

GFSSGP_850_thetae_054.txt.gz
Theta_e
322 323 322 323 319 317 321 319 318 320 321 321 322 322 322 326 329 330 336 338 335 333 341 343 341 338 339 342 340 340 339 339 338 338 337 334 329 329 322 314 326 334 327 326 337 335 331 328 326
322 322 321 323 318 318 317 317 319 319 320 321 321 330 329 332 336 335 338 334 335 334 334 337 340 338 337 338 338 339 339 339 334 330 326 327 327 324 315 332 333 331 323 333 336 336 331 327 328
322 322 324 319 317 318 317 316 317 319 320 320 321 323 326 332 334 335 335 334 334 336 331 331 339 338 339 336 337 338 337 337 338 335 330 325 325 320 311 328 334 332 328 331 332 331 327 328 327
322 321 321 319 320 318 315 318 317 317 321 321 321 324 333 334 334 334 336 335 333 336 331 331 342 342 339 340 337 337 336 337 335 330 326 328 323 312 311 314 321 330 324 322 324 324 326 326 323
321 322 320 321 321 319 316 317 319 318 318 319 320 322 331 335 335 334 336 337 335 335 332 328 339 341 341 338 337 333 336 337 335 325 328 328 314 311 310 310 312 314 317 317 316 315 321 315 311
322 320 318 322 320 318 316 319 318 318 318 319 320 325 333 336 335 335 335 337 338 335 331 327 325 331 332 329 326 325 324 322 319 334 329 326 312 311 311 311 310 311 311 311 312 313 312 313 316
320 318 320 319 320 317 316 319 318 318 318 319 320 327 330 333 334 336 337 337 338 337 333 330 325 321 319 320 319 319 317 316 317 332 330 324 314 312 312 312 313 313 313 314 315 316 317 318 319
322 317 319 318 318 318 317 318 318 318 320 320 320 324 328 331 333 337 338 339 340 338 335 332 327 324 322 320 322 321 317 316 317 321 325 323 315 314 313 314 315 315 316 316 317 318 319 320 320
319 317 318 319 318 318 318 319 320 320 320 320 320 322 327 332 332 336 340 341 342 340 337 335 331 328 325 324 323 322 318 316 318 319 323 321 316 317 316 315 315 315 316 317 318 319 320 320 321
316 316 318 317 316 317 319 320 320 321 319 320 322 330 328 334 334 333 336 339 342 341 341 340 334 332 333 329 325 323 320 317 319 320 322 319 318 321 326 321 318 316 317 318 319 321 321 321 321
316 317 317 319 319 321 320 320 321 320 320 319 319 328 334 337 338 337 339 337 337 341 341 341 340 340 340 338 332 326 324 319 318 321 321 319 319 324 327 327 321 318 318 319 320 322 322 322 322
318 317 318 318 320 320 319 320 320 321 320 321 321 322 329 335 338 339 338 335 335 334 337 340 341 341 340 338 336 331 326 324 320 319 320 321 320 324 325 327 327 324 320 321 320 322 324 324 323
317 317 318 320 320 319 319 318 318 319 320 320 321 321 322 322 334 337 338 339 339 337 337 336 339 340 340 339 336 334 331 328 324 321 319 320 320 322 324 326 327 326 320 320 321 322 323 323 323
317 318 318 318 318 318 317 317 318 318 319 319 320 320 320 321 322 322 330 337 337 338 337 335 338 340 339 339 338 337 335 333 331 327 323 320 319 321 323 325 326 326 326 320 322 324 324 323 323
317 318 316 316 317 317 317 316 315 318 319 319 318 319 319 319 320 321 321 322 332 337 337 337 338 340 339 338 338 337 336 336 336 333 329 328 322 320 321 324 326 325 323 321 323 325 326 324 324
316 316 319 316 316 317 317 316 315 317 317 318 318 318 318 318 319 320 320 321 320 324 335 338 338 338 339 338 338 337 337 336 336 335 334 334 332 325 320 322 327 327 326 323 325 326 326 325 325
316 316 317 318 315 316 315 317 315 316 315 315 317 317 316 316 316 317 318 317 319 320 321 326 330 332 334 336 338 337 336 335 335 336 335 336 335 328 324 319 325 328 327 325 325 326 326 326 325
318 318 316 317 314 315 315 313 311 314 314 315 316 317 317 317 317 317 316 317 317 318 318 319 320 320 322 323 328 335 335 335 335 336 336 335 335 331 328 324 323 328 326 325 326 326 326 326 324
315 316 316 315 313 312 312 310 310 311 311 310 312 314 316 318 318 318 318 318 317 318 318 318 318 319 320 320 320 322 328 334 335 334 333 335 335 333 331 331 327 327 326 324 326 327 327 326 324
317 316 317 314 311 311 310 309 309 311 310 312 313 314 314 315 315 315 315 315 316 317 317 318 318 318 318 318 319 320 321 323 330 333 333 331 332 334 332 331 330 328 326 325 326 327 327 326 323
317 317 314 314 310 308 307 309 308 308 308 309 309 310 310 310 310 311 311 312 312 313 315 316 318 318 318 318 318 318 319 321 325 333 332 331 331 331 332 330 330 329 327 326 327 327 327 326 325
318 312 312 311 311 313 307 313 308 307 306 306 305 307 308 310 310 310 311 313 313 313 313 313 315 317 317 317 317 318 318 319 319 321 329 331 331 330 330 330 329 328 329 327 327 328 327 326 325
313 310 310 309 308 308 309 309 307 306 308 306 305 308 311 312 312 312 310 311 312 313 313 313 313 314 316 316 316 317 317 318 319 321 324 330 332 332 330 328 328 328 328 328 328 328 327 327 326
308 308 306 305 305 305 307 308 306 307 307 306 306 309 311 313 314 313 312 311 311 312 313 313 313 314 314 314 314 314 315 316 317 320 323 325 330 331 330 329 328 327 327 328 328 328 327 326 326
308 309 306 303 304 306 307 308 307 306 306 306 307 309 311 314 314 314 313 313 312 311 311 312 313 313 313 313 313 313 313 314 315 316 318 323 325 328 330 330 328 327 327 327 327 327 327 325 324
308 307 305 306 309 308 305 309 308 305 305 307 308 308 310 313 314 314 313 312 312 313 311 312 312 312 312 312 312 312 312 312 313 314 317 317 319 322 327 328 329 328 326 327 327 327 325 322 321
308 304 304 302 301 301 305 304 302 305 306 307 307 309 310 312 314 315 314 313 312 312 311 312 312 312 312 312 311 311 311 311 311 311 312 314 317 319 321 327 329 329 327 326 326 325 323 321 316
308 305 307 297 299 305 303 304 304 307 308 305 305 307 310 313 314 315 314 312 312 314 312 311 311 311 311 312 312 312 311 311 310 310 312 313 313 316 321 324 325 326 328 326 325 323 320 317 311
309 306 305 303 303 304 307 304 302 305 307 307 305 311 313 314 314 314 313 313 313 313 312 311 312 311 310 310 310 310 310 310 311 312 313 313 314 315 321 325 325 325 325 324 322 319 314 307 304
307 307 305 302 303 300 302 305 305 303 305 306 307 311 314 314 312 312 312 312 312 313 312 311 311 311 311 311 310 310 310 312 313 314 316 316 317 319 321 322 322 322 321 319 315 309 304 302 301

GFSSGP_850_thetae_057.txt.gz
Theta_e
322 322 322 323 324 322 323 321 318 321 321 319 320 321 324 325 333 336 334 338 331 332 338 344 343 337 339 339 342 339 340 339 338 338 339 338 335 330 326 315 322 323 324 335 337 334 328 324 325
322 322 322 322 323 323 322 319 321 321 320 320 320 326 327 332 335 335 338 337 333 332 336 344 341 336 338 342 341 341 339 338 337 336 336 335 329 325 316 333 331 325 329 338 337 334 330 326 326
322 322 322 324 320 322 321 317 319 319 320 319 321 323 324 330 335 336 335 333 336 332 331 335 338 338 342 342 339 337 337 338 335 334 324 326 324 320 327 334 332 323 335 336 335 332 327 326 325
321 322 320 323 324 320 318 318 317 318 319 320 319 322 330 333 334 335 335 335 335 334 331 333 338 337 335 337 337 335 335 335 337 336 325 326 321 313 321 332 333 328 327 329 331 326 324 325 322
321 321 322 323 323 320 318 316 318 319 318 319 319 322 327 334 335 335 336 336 335 335 332 333 341 339 337 338 337 335 335 336 334 334 328 327 314 311 312 322 319 318 319 319 318 320 320 317 311
321 320 323 324 322 319 318 319 318 318 318 319 319 322 328 335 335 335 336 336 336 336 332 333 344 341 339 339 337 335 336 338 335 331 331 327 313 311 311 311 312 314 314 313 313 314 314 312 313
321 321 322 320 322 320 318 318 317 318 318 319 320 325 328 332 335 335 335 336 337 335 332 330 332 338 340 337 331 327 327 333 334 331 334 327 313 312 312 311 311 311 311 312 313 314 314 316 317
321 319 320 320 320 320 317 318 318 318 318 319 319 323 325 332 334 336 336 336 337 336 333 330 326 324 322 321 320 320 319 319 319 336 335 328 315 313 312 313 313 314 314 315 316 317 318 319 320
319 322 320 321 319 319 317 316 319 319 319 320 319 320 324 329 335 336 336 337 338 337 335 333 330 326 322 320 320 321 320 317 318 336 330 328 317 315 314 314 315 316 316 316 318 319 319 320 321
318 320 320 317 317 317 318 319 320 320 319 319 321 327 326 328 335 337 337 335 337 338 336 335 333 329 326 325 324 323 322 318 316 320 322 324 319 317 318 315 315 316 317 317 319 319 320 321 321
316 319 317 318 317 320 319 320 320 320 320 319 319 328 332 337 342 340 338 337 337 337 338 338 337 332 331 331 330 327 324 321 317 319 320 322 320 319 325 323 318 316 317 318 319 319 320 321 321
318 317 317 318 320 320 319 319 319 320 319 320 321 321 324 334 341 344 342 341 340 338 339 339 340 338 338 339 338 334 328 325 321 318 321 321 319 319 323 327 323 320 318 319 319 320 321 321 322
317 317 318 319 319 319 319 318 319 319 319 320 320 320 321 321 329 337 339 339 338 340 337 338 339 340 340 339 339 337 334 330 326 322 319 321 321 319 323 325 327 326 323 320 320 321 321 322 322
317 317 317 318 318 318 317 317 317 318 318 318 318 319 319 320 321 323 328 333 336 338 338 337 336 337 339 336 336 338 336 333 330 328 324 321 320 320 320 324 326 328 326 320 320 321 323 323 322
316 317 316 316 316 317 317 317 316 317 318 318 318 317 318 319 320 321 322 321 323 331 335 336 337 336 337 339 337 338 337 336 335 333 332 328 323 321 320 321 324 327 327 326 321 321 324 323 323
317 317 319 316 316 316 317 317 315 316 316 317 317 317 317 316 317 318 319 319 319 320 322 333 337 337 337 337 337 336 335 334 335 335 335 334 329 329 323 320 322 325 326 325 323 321 325 325 324
316 318 317 318 315 316 317 317 315 316 315 315 316 316 316 316 316 316 316 317 318 318 318 320 325 335 337 335 335 335 335 334 333 334 335 336 333 333 331 326 321 324 327 327 324 322 325 326 326
319 317 316 317 314 314 315 315 314 315 312 313 313 315 316 317 317 317 316 316 316 316 317 317 318 322 332 335 335 334 332 330 333 333 333 335 335 334 334 332 325 321 327 328 327 324 325 326 326
315 315 316 315 312 313 313 312 312 311 311 311 313 315 315 315 315 316 317 317 317 317 318 317 317 317 320 321 322 324 324 327 331 329 332 332 333 334 334 333 328 322 322 327 327 325 326 326 326
315 316 316 314 311 311 310 310 311 311 310 310 310 311 311 311 311 312 313 313 314 315 316 316 317 317 317 318 319 320 322 323 323 326 330 331 331 331 331 332 331 329 323 325 328 325 325 326 326
317 316 314 315 310 308 308 312 309 308 307 306 306 307 309 311 310 310 311 312 312 312 313 314 316 317 317 318 317 317 319 319 320 321 323 325 328 331 331 329 331 331 330 326 327 326 325 326 326
320 314 312 311 313 316 308 317 311 307 306 306 307 310 312 313 312 312 311 311 311 312 313 313 313 315 316 317 317 317 317 318 318 319 320 320 325 329 331 331 330 329 329 330 328 327 325 325 327
316 310 310 309 309 309 309 312 310 306 307 306 306 309 312 314 313 313 312 312 311 311 312 312 313 313 313 314 315 317 317 317 317 318 319 320 321 324 330 332 330 329 328 328 328 328 326 325 326
309 307 307 305 306 311 307 309 308 308 307 306 306 308 311 313 315 314 313 313 312 311 311 312 312 312 313 313 314 315 315 316 316 317 317 319 319 320 324 330 331 331 328 327 327 328 328 326 326
309 313 311 309 310 312 307 308 309 306 306 306 307 308 309 313 315 315 314 314 314 313 312 311 312 312 312 312 312 312 312 313 313 314 316 320 319 321 322 323 325 329 329 328 327 327 328 326 325
308 312 310 309 310 309 306 311 309 305 305 307 307 309 311 313 315 315 315 313 313 313 313 312 311 311 312 312 312 312 312 312 312 312 312 313 316 318 322 324 325 325 327 328 328 326 326 326 325
308 308 304 303 301 306 306 305 303 305 304 306 306 310 312 314 314 314 314 313 313 313 313 314 311 312 311 311 311 311 311 311 311 311 310 311 311 313 316 321 324 327 328 328 328 325 326 325 324
308 305 308 302 305 307 303 303 304 307 307 306 306 307 311 314 314 314 313 313 313 313 313 313 312 311 311 311 311 311 311 311 311 311 311 310 310 311 313 316 320 323 326 326 327 326 325 322 323
308 307 305 304 304 306 306 305 302 304 305 306 306 308 311 313 312 311 311 311 311 311 312 312 311 311 311 310 310 310 310 310 310 310 310 310 311 312 313 315 319 322 323 324 324 324 324 322 318
307 307 304 307 306 302 304 307 304 303 304 305 306 308 312 310 309 310 310 310 311 310 310 311 311 311 311 311 311 310 310 310 311 313 313 314 315 315 316 316 318 321 322 322 321 321 320 315 311

GFSSGP_850_thetae_060.txt.gz
Theta_e
322 322 322 323 326 325 325 324 323 326 325 323 323 325 327 327 333 337 333 338 339 342 345 343 342 336 338 337 337 339 341 341 342 341 340 339 337 333 326 315 320 321 327 337 336 333 326 323 325
322 322 323 324 326 326 325 324 324 324 323 322 322 323 329 333 337 341 342 338 341 346 345 342 342 333 343 342 339 339 340 340 341 339 337 335 330 326 324 332 331 326 335 338 337 332 328 322 322
322 322 325 326 326 326 324 323 323 322 322 323 324 325 327 333 338 342 340 336 344 345 345 342 339 335 343 344 342 340 339 338 339 334 327 332 326 321 334 332 331 334 338 339 335 331 327 324 321
322 323 323 326 326 325 324 323 322 323 322 322 322 326 330 333 337 341 335 337 344 344 344 340 339 340 345 342 340 338 336 335 331 333 323 324 323 321 334 333 327 335 335 336 334 331 324 324 316
323 324 327 327 326 325 324 321 322 323 322 322 321 326 328 335 335 335 337 337 345 344 344 340 338 339 341 341 338 337 336 335 335 333 326 325 314 314 328 331 328 326 328 328 328 321 321 318 311
323 324 327 328 326 325 323 322 321 322 322 321 322 324 329 334 336 336 337 342 344 344 342 342 339 338 338 335 337 336 335 338 337 335 330 324 312 311 315 325 318 318 318 318 316 315 317 311 314
324 325 326 325 326 325 324 322 322 322 322 321 321 325 330 338 335 336 337 344 343 343 341 341 343 342 341 340 338 337 338 340 338 336 333 326 312 311 311 312 313 314 314 313 313 313 312 315 317
322 324 325 325 325 325 323 321 320 320 321 320 321 325 328 334 335 336 337 343 343 341 338 341 340 342 341 339 339 335 332 334 335 333 333 330 315 312 312 311 312 312 312 313 315 315 316 317 321
321 323 324 324 323 322 320 321 319 319 320 320 321 324 327 327 334 338 338 338 338 340 340 340 340 339 339 338 332 327 323 320 320 329 337 331 320 314 313 314 314 315 315 316 317 318 318 319 320
318 321 320 321 321 321 320 319 321 321 321 321 323 324 325 324 333 338 340 339 338 337 339 340 339 338 333 324 324 321 322 321 321 327 334 333 329 325 323 315 316 316 316 317 318 319 320 320 322
318 319 320 320 319 319 320 321 322 321 322 321 322 325 335 330 336 340 339 340 337 337 337 334 339 337 331 327 328 329 327 327 331 334 331 333 330 322 320 318 316 316 317 319 319 319 321 323 321
320 317 318 320 321 321 321 321 321 321 321 321 322 321 325 338 340 343 340 339 339 337 337 337 337 337 334 333 331 333 331 329 330 333 333 332 331 327 328 330 328 324 323 328 328 329 326 321 321
319 319 319 319 320 320 320 321 321 321 321 320 320 320 322 322 335 339 339 338 338 336 337 338 339 339 337 336 337 337 336 332 328 326 329 330 330 327 326 331 330 329 327 327 328 327 325 323 322
319 318 319 319 319 319 319 320 319 320 319 319 319 319 320 320 322 324 332 339 341 341 338 337 337 338 340 339 339 338 337 336 333 330 328 322 324 328 327 329 330 330 329 327 327 326 325 324 323
318 319 318 319 318 318 318 319 319 318 318 318 318 318 318 319 320 320 323 323 326 333 339 341 338 337 336 336 339 338 337 337 336 334 331 328 324 324 325 327 329 330 329 329 327 325 323 323 323
319 318 320 317 318 318 318 317 317 317 317 318 317 317 317 317 317 318 319 319 319 320 322 331 339 337 336 336 335 337 337 336 335 335 335 334 332 327 323 323 325 323 329 329 328 324 320 323 324
319 318 317 319 318 317 318 316 317 316 317 317 317 317 317 317 317 316 316 316 318 318 319 319 321 333 336 335 336 336 335 336 336 335 335 334 334 334 330 327 327 325 328 329 327 326 322 322 325
319 318 318 317 318 318 319 317 317 317 316 316 317 316 316 316 316 317 317 316 316 316 316 317 317 319 329 334 330 336 335 333 334 334 334 334 334 334 334 332 331 328 326 328 328 326 324 322 325
317 317 316 317 314 317 318 319 318 317 316 316 316 316 316 316 315 315 316 316 317 317 317 317 316 317 318 330 324 331 337 334 330 330 328 332 333 333 333 333 333 332 328 327 327 327 327 323 325
317 316 317 316 314 316 317 317 317 317 316 314 314 314 314 312 311 311 313 315 315 316 316 317 317 317 317 319 327 321 329 333 333 329 327 328 332 331 331 331 332 331 331 327 326 326 328 326 325
318 317 318 318 314 312 314 317 315 310 309 308 309 310 312 312 312 312 311 311 311 312 312 313 314 316 317 317 320 329 330 329 324 322 324 325 326 327 331 330 331 331 330 330 326 323 326 328 325
319 317 317 316 318 320 313 318 314 311 311 312 313 313 314 313 313 313 312 311 311 312 312 312 312 313 315 316 316 322 328 328 320 319 320 321 321 323 326 329 329 331 331 329 329 328 324 328 327
318 316 315 314 316 315 314 318 313 311 312 312 312 313 314 315 314 314 313 312 312 311 312 312 312 312 312 313 314 316 326 326 326 328 322 318 318 319 321 322 328 328 331 330 329 328 327 326 328
310 312 312 312 314 319 314 315 312 311 312 311 311 312 312 314 315 315 314 313 313 313 312 311 312 312 312 312 312 313 314 321 327 324 324 319 320 319 319 322 323 327 328 329 329 329 328 327 328
312 315 320 320 320 319 310 312 313 310 309 311 312 312 312 314 315 315 314 314 314 314 314 313 312 311 312 311 311 312 313 314 323 326 327 325 324 318 318 320 323 324 325 327 329 328 328 328 328
313 317 320 317 314 314 309 314 312 310 308 310 308 310 312 314 315 315 314 314 314 314 314 314 314 312 311 311 311 311 311 311 311 311 312 313 315 315 314 317 321 325 327 327 326 326 328 327 327
312 316 309 312 308 313 312 311 309 308 308 309 310 311 312 314 314 314 313 313 313 313 313 313 314 314 312 311 311 311 311 311 311 311 311 311 310 311 311 312 313 318 324 326 326 327 328 327 327
312 309 314 314 316 315 310 309 312 310 310 310 311 312 313 314 313 311 310 311 312 311 312 312 312 312 312 311 311 311 310 311 311 311 311 311 311 311 310 310 311 313 317 321 324 325 327 326 326
311 313 309 310 309 313 310 310 311 313 312 310 310 311 313 313 310 309 309 310 310 310 310 311 311 311 311 311 311 311 310 310 310 311 311 311 311 310 311 312 313 316 318 320 324 324 325 324 323
310 311 310 314 312 309 312 311 308 311 311 308 310 311 313 310 307 308 309 309 310 310 310 311 311 311 312 312 311 311 311 311 311 311 311 311 312 313 312 314 315 317 319 320 320 321 321 320 318

GFSSGP_850_thetae_063.txt.gz
Theta_e
322 324 326 325 327 326 328 327 325 326 325 325 325 326 327 329 332 339 340 344 344 346 343 338 341 340 339 341 339 340 341 340 341 342 342 341 338 334 325 315 319 321 334 336 336 328 321 325 325
328 327 325 326 327 329 327 326 325 325 325 325 325 326 326 330 337 344 345 344 344 346 347 343 340 334 336 338 337 340 341 340 340 340 340 337 332 322 330 324 323 329 338 337 336 331 324 323 319
327 326 326 327 327 327 327 325 324 325 324 325 327 328 329 334 340 344 346 343 346 347 346 342 336 337 342 341 339 340 340 340 339 338 335 333 324 331 331 326 332 338 338 338 335 330 324 322 314
328 325 326 329 328 327 326 324 323 324 324 325 325 329 330 337 340 344 344 344 346 346 345 340 334 342 344 344 341 340 340 339 337 327 326 325 322 334 333 331 335 337 338 337 335 331 322 321 311
326 326 328 328 328 327 326 324 323 324 324 325 324 328 332 341 342 345 343 344 345 345 347 340 336 339 343 344 341 340 339 337 335 326 326 322 317 326 332 329 326 334 334 334 333 325 320 317 313
326 326 329 330 328 327 326 324 323 324 324 324 324 326 335 342 344 346 344 345 345 345 347 344 338 344 344 342 339 337 338 337 337 333 328 318 313 313 323 324 317 323 323 321 320 317 317 312 316
325 328 329 328 327 327 326 324 323 324 324 324 323 326 334 343 344 345 345 345 345 344 344 343 340 338 339 338 337 337 336 338 338 336 329 319 312 311 313 318 319 316 317 315 314 313 313 313 317
323 326 328 327 327 327 326 324 323 323 323 323 322 326 331 339 338 337 345 345 345 344 342 343 341 340 341 340 340 338 337 338 337 337 334 327 313 312 311 312 313 313 313 313 313 313 314 316 319
321 326 327 326 326 325 325 325 323 322 322 321 322 325 333 340 334 336 344 345 345 344 342 342 342 342 342 341 339 337 336 334 333 331 326 328 320 313 312 312 313 313 313 314 315 316 317 318 320
321 325 324 324 324 324 324 323 323 321 321 321 321 326 334 337 331 337 341 343 343 343 342 341 341 340 340 339 339 336 335 325 324 331 327 334 330 324 320 316 314 315 316 316 316 318 319 320 323
319 320 321 321 321 320 322 321 321 322 322 321 322 324 334 337 337 341 341 342 341 343 343 341 341 340 338 337 336 334 334 333 332 333 336 331 333 329 323 319 315 316 316 317 317 319 319 323 326
320 318 318 321 320 320 320 321 322 322 322 322 324 324 329 336 338 340 342 342 343 342 341 342 342 341 340 337 334 334 335 334 332 336 337 335 334 331 327 328 322 324 326 329 326 328 329 328 326
320 320 319 320 321 320 318 320 322 321 322 323 323 322 323 326 336 339 340 341 341 342 342 338 336 341 341 339 338 337 337 335 334 333 335 334 334 333 330 331 331 330 329 329 330 330 330 328 325
319 320 319 319 321 320 321 320 321 321 321 321 321 321 322 323 324 330 339 340 340 341 342 341 339 338 339 340 341 340 340 338 336 334 333 333 333 333 332 331 332 331 330 328 329 329 329 328 326
319 320 319 319 319 320 320 321 321 321 320 320 320 319 319 320 321 324 326 330 336 340 340 341 341 336 336 335 339 340 340 340 338 336 335 333 332 333 332 331 331 333 332 331 329 329 328 327 325
320 320 321 319 319 319 319 320 320 319 319 319 319 318 318 318 318 319 322 324 325 325 328 336 341 342 337 337 335 336 340 340 339 338 337 336 335 333 333 331 330 331 332 331 332 329 328 326 322
319 319 319 318 318 319 319 318 318 318 318 318 318 318 318 318 317 317 318 320 321 322 323 323 327 336 341 341 340 336 335 336 339 340 338 337 336 335 334 333 331 330 331 331 330 330 328 325 323
319 318 317 317 319 318 319 318 318 317 317 317 317 318 317 317 317 317 317 318 319 319 320 321 321 321 328 336 339 337 332 335 335 337 339 338 337 336 335 334 332 331 331 331 330 331 329 325 323
316 317 317 316 318 318 317 318 317 317 317 317 317 317 317 317 317 317 316 315 316 317 317 318 319 319 320 324 331 336 328 323 330 333 334 338 337 336 335 334 334 332 331 331 330 331 330 326 323
317 318 317 317 316 317 317 318 318 318 317 317 317 317 317 317 316 314 312 312 314 314 315 316 318 318 319 318 322 330 328 322 322 326 330 332 332 334 334 334 333 333 332 332 331 330 330 327 324
317 317 317 317 316 316 317 318 317 316 313 312 312 313 314 314 314 314 314 313 313 313 313 314 315 316 318 318 319 322 331 333 335 330 329 333 332 332 335 334 334 334 333 332 331 331 330 328 325
317 316 316 317 317 316 316 315 318 315 313 313 314 315 315 315 315 314 314 314 314 312 311 312 312 312 313 315 317 318 323 329 332 332 333 332 329 326 325 331 335 334 335 333 332 331 330 328 325
319 318 318 318 319 318 317 318 316 314 314 315 315 315 316 316 316 316 315 315 314 311 311 312 312 311 312 312 312 314 316 321 327 330 329 330 331 332 323 321 323 327 335 334 332 332 330 329 326
317 317 317 317 318 322 319 318 316 315 314 314 313 314 315 316 317 317 316 316 316 314 313 312 311 313 312 311 312 312 313 319 325 327 328 329 330 330 330 325 322 321 323 329 328 331 329 328 327
315 319 322 323 323 322 313 315 316 313 314 313 314 314 315 316 317 317 316 316 316 316 315 314 314 313 312 312 312 311 312 313 318 323 326 328 328 327 326 321 323 322 324 330 329 330 328 326 326
318 319 324 323 321 320 312 315 315 312 312 313 312 313 315 316 317 316 316 316 316 315 315 314 314 314 314 312 311 312 312 311 311 312 315 322 324 325 325 325 316 314 316 320 327 327 328 328 327
314 318 313 315 312 316 314 313 311 310 311 311 312 313 315 316 316 315 314 313 314 312 312 313 313 313 312 312 312 312 312 311 312 312 313 314 316 318 321 323 325 317 318 324 328 327 328 326 325
314 313 317 318 319 316 314 313 314 310 311 311 313 314 315 316 315 313 312 312 310 310 311 311 311 311 311 311 311 311 311 310 310 311 311 311 311 312 313 312 312 311 312 315 323 324 324 322 321
313 314 313 312 312 317 312 312 313 312 311 313 313 313 315 315 313 312 311 309 308 308 309 309 309 310 311 311 311 311 311 311 311 310 311 311 312 312 312 312 312 312 312 313 318 319 319 319 320
313 314 314 315 315 313 315 312 312 313 312 311 312 313 315 312 311 310 308 307 307 307 307 309 309 309 310 310 310 311 311 311 311 310 310 310 311 311 312 313 314 314 315 316 317 317 317 318 317

GFSSGP_850_thetae_066.txt.gz
Theta_e
322 321 327 326 328 327 328 327 326 326 325 326 325 326 324 327 342 347 342 343 343 336 335 339 343 342 340 339 341 340 340 341 340 340 340 339 336 328 318 315 319 326 337 336 330 322 321 324 324
322 327 328 326 327 328 326 325 326 324 325 325 325 325 326 338 343 342 344 344 346 342 339 339 340 340 340 342 338 341 340 340 339 339 338 336 328 320 325 319 323 334 338 336 334 328 320 317 314
322 330 328 327 328 327 327 325 324 324 324 325 326 326 326 339 343 345 347 345 347 347 341 338 336 336 341 338 337 340 340 339 339 337 334 330 323 332 326 328 333 338 338 336 334 329 320 316 311
321 329 327 329 327 327 325 324 323 324 324 325 326 328 335 339 343 345 343 345 347 347 347 338 332 337 338 337 339 339 339 338 330 325 330 323 332 334 331 335 336 337 336 334 334 329 320 314 314
323 327 327 327 328 327 325 324 323 323 325 325 325 329 340 342 344 342 345 346 346 346 346 338 333 344 342 342 339 339 339 337 333 326 323 320 330 334 328 326 334 336 336 335 332 322 317 312 316
327 326 329 329 328 326 325 324 323 324 324 324 324 331 341 344 345 343 345 345 345 346 347 341 335 344 343 343 340 339 338 337 334 325 325 315 317 328 326 322 323 327 326 321 319 316 315 312 317
326 327 330 328 328 327 326 325 323 323 324 324 324 326 343 345 346 345 345 345 345 346 346 337 335 342 341 342 339 337 337 336 336 334 327 314 312 314 319 321 316 316 317 315 314 313 313 313 319
324 326 329 328 329 328 326 325 323 323 323 323 323 328 342 344 343 345 345 345 344 344 344 340 337 343 341 339 337 337 336 336 336 334 326 320 312 312 312 314 315 313 314 313 313 313 314 315 319
322 326 328 330 328 326 326 325 324 323 323 322 322 331 339 342 336 344 346 345 345 343 343 343 339 339 340 339 339 338 337 338 337 335 330 326 317 312 312 312 313 313 313 313 314 315 316 317 319
320 323 325 325 325 324 324 324 324 322 322 322 322 329 335 333 338 342 345 345 345 343 342 342 342 341 338 341 340 336 335 335 332 328 326 327 324 319 314 313 314 314 314 315 316 316 317 318 319
319 321 322 323 321 320 323 323 323 322 321 321 321 325 335 337 336 337 338 343 344 343 342 341 341 341 341 341 339 336 330 329 323 328 328 326 332 329 323 319 315 315 316 316 316 317 318 319 322
320 319 319 320 320 320 321 321 321 321 322 323 323 327 334 336 336 336 340 342 337 342 342 341 341 340 339 338 336 334 334 334 331 331 331 329 333 333 328 320 318 315 315 316 317 317 318 321 326
321 319 318 319 320 320 319 319 319 322 322 324 323 323 325 331 337 337 341 342 343 342 341 342 342 341 340 338 336 334 335 335 333 332 335 335 335 334 330 325 325 325 323 324 326 327 330 329 326
320 320 319 319 321 320 318 318 318 321 322 322 322 322 322 323 326 335 339 340 341 342 342 340 337 341 340 340 338 337 337 337 336 333 334 336 335 334 332 329 331 331 329 328 330 329 330 330 327
320 319 319 319 321 320 320 319 319 320 321 321 321 321 320 320 321 324 328 337 340 339 340 340 335 335 338 340 340 340 340 339 339 336 334 333 333 333 333 331 331 332 331 329 328 329 329 329 328
320 319 321 319 319 320 319 320 319 320 320 321 320 320 319 319 319 320 322 325 327 332 333 341 341 341 336 335 337 340 341 341 339 339 337 335 334 332 332 332 330 330 331 331 329 329 329 328 327
321 320 320 320 318 319 318 319 318 319 319 319 319 319 319 318 318 318 318 319 322 324 326 330 335 338 342 340 338 334 337 339 340 340 338 337 336 335 334 332 331 329 330 331 332 329 330 328 327
321 319 317 318 319 318 319 318 317 318 318 318 318 318 318 318 318 317 317 317 317 319 320 322 323 326 334 337 341 340 334 333 334 337 338 338 336 336 336 335 334 333 330 330 329 331 329 329 328
317 317 317 316 318 318 318 319 317 317 317 317 317 317 317 317 317 317 317 317 318 318 319 320 320 321 321 326 332 336 336 331 331 327 334 335 335 335 333 334 333 334 333 331 330 330 331 329 328
318 317 316 316 318 318 317 317 316 316 316 317 317 317 317 317 316 316 315 315 315 314 315 316 317 318 319 319 320 325 329 332 328 326 324 327 332 335 335 334 333 331 332 332 331 331 331 329 329
317 316 315 317 316 316 316 316 316 316 317 315 314 314 315 314 315 314 314 313 313 312 313 315 316 316 318 318 319 319 320 325 332 327 322 320 323 329 331 334 335 335 333 333 332 331 331 330 329
319 315 317 317 316 316 314 312 315 316 312 312 312 313 314 314 314 314 314 314 313 312 312 312 312 313 314 317 318 318 319 321 331 331 328 327 327 327 326 330 331 335 334 333 333 332 331 330 329
317 317 317 317 316 317 315 315 316 313 312 312 313 315 315 315 315 315 315 315 315 312 311 312 312 312 312 312 312 313 316 318 321 326 330 332 332 329 330 330 329 329 330 332 332 331 330 331 330
318 317 317 317 318 318 317 316 314 312 313 313 314 315 316 317 317 316 316 316 316 315 314 313 312 313 312 312 311 311 312 312 314 318 324 327 328 329 330 329 329 331 329 328 330 329 330 330 329
318 316 319 319 320 318 314 316 315 312 313 312 312 314 315 316 317 317 316 316 317 316 315 314 314 314 314 312 312 312 312 311 312 317 322 324 326 327 328 327 327 328 327 330 331 327 326 327 327
317 317 317 318 319 315 312 314 312 311 313 313 314 314 315 316 317 316 316 315 315 315 315 314 314 314 314 314 313 313 314 313 312 311 313 318 324 325 324 324 325 326 326 326 327 325 325 325 325
315 318 313 314 312 313 311 311 310 310 310 311 312 314 315 316 316 315 314 313 313 313 312 312 312 312 312 312 313 313 312 312 312 312 312 312 313 315 319 321 323 323 324 321 321 322 321 322 322
315 315 316 313 313 316 311 312 311 309 310 310 311 313 315 316 315 313 312 312 311 310 310 310 310 310 311 311 311 311 311 311 310 310 310 311 311 311 312 312 312 313 314 315 314 322 319 319 320
313 315 314 311 312 314 311 309 310 309 310 309 311 314 315 316 314 312 312 310 309 309 309 309 309 309 310 310 311 311 311 311 311 311 310 310 310 311 311 311 312 312 312 312 313 315 316 315 316
312 314 313 313 315 310 309 310 309 308 309 312 312 313 315 314 312 311 309 308 307 308 308 308 308 308 309 309 309 310 310 310 311 311 310 310 310 310 310 310 310 310 310 310 312 314 313 314 315

GFSSGP_850_thetae_069.txt.gz
Theta_e
323 322 325 328 323 321 324 325 322 324 323 324 325 324 325 333 342 341 340 341 343 337 337 342 340 337 338 341 339 338 339 339 338 338 339 337 331 321 316 316 330 337 336 331 324 318 321 322 321
323 322 329 327 323 324 322 320 323 322 324 325 325 324 332 342 340 343 342 344 343 335 339 345 341 337 339 342 340 339 340 340 339 338 335 331 320 322 317 322 334 338 336 334 330 319 315 312 316
324 324 329 322 323 324 323 323 321 322 324 325 325 325 333 339 344 343 343 345 344 335 338 343 341 339 341 338 340 339 340 340 338 331 329 322 329 323 327 331 337 338 337 333 331 320 314 311 312
323 325 328 325 326 324 323 321 321 322 324 325 325 333 339 341 343 345 344 345 346 340 339 339 338 340 342 337 339 339 339 335 323 325 325 324 332 329 333 335 337 337 334 330 332 318 313 312 314
323 325 324 325 325 324 322 323 323 321 323 324 324 333 342 343 339 344 346 346 347 344 341 337 334 337 336 336 338 339 338 336 328 322 320 329 332 325 332 332 331 333 332 333 327 316 312 314 316
324 325 328 326 324 324 323 323 322 322 323 323 331 339 343 344 342 344 346 346 346 345 345 333 338 340 341 339 338 338 338 335 328 321 318 320 333 326 321 324 330 330 329 323 318 314 312 316 319
326 325 327 326 324 325 324 325 321 322 322 323 324 338 344 344 344 345 345 345 345 345 345 338 342 344 341 341 339 338 336 332 319 322 319 314 318 321 318 316 315 318 317 315 314 314 312 316 319
326 326 327 327 329 327 325 323 323 323 322 323 326 337 343 344 344 344 344 345 346 345 343 340 338 342 341 341 339 336 335 334 328 320 322 314 312 312 314 316 315 313 314 314 314 314 314 316 319
324 326 325 327 328 328 326 323 322 323 322 324 335 338 340 343 344 345 344 344 344 343 343 337 338 342 341 340 338 336 336 334 327 328 327 323 314 313 312 313 314 314 314 314 315 315 316 316 318
320 325 322 319 323 325 322 324 324 321 321 329 334 336 337 337 345 345 344 344 344 342 343 342 340 336 334 336 335 335 333 332 329 332 328 323 321 315 313 313 313 314 314 314 315 316 317 317 318
320 321 322 322 322 323 323 323 324 320 320 321 333 329 328 328 343 343 344 344 343 342 342 342 341 340 338 338 339 337 334 328 328 326 323 323 324 324 320 316 314 314 315 315 316 316 317 317 318
318 319 319 320 321 322 322 320 321 320 322 322 322 326 329 330 331 340 344 344 343 342 341 341 341 340 340 339 339 337 329 328 327 326 327 329 326 326 330 325 319 316 315 316 316 316 318 318 319
320 319 318 319 319 320 320 318 318 319 323 324 329 334 335 334 335 333 336 340 342 342 341 341 340 340 339 339 338 335 332 332 333 329 331 335 330 329 332 331 324 322 319 317 317 321 322 320 322
320 320 320 319 320 319 318 318 318 319 322 322 323 322 323 327 333 337 336 341 341 341 341 341 341 340 339 339 338 334 334 335 335 333 332 335 335 332 333 332 328 326 328 325 325 325 327 329 328
320 320 319 318 320 320 318 318 318 319 319 320 321 321 321 322 323 325 335 337 341 340 339 337 337 341 340 339 339 337 335 336 337 337 333 333 335 334 334 333 329 327 329 330 328 328 329 329 329
321 317 320 318 319 320 317 319 317 319 319 320 320 320 320 320 320 321 324 326 337 339 338 340 339 339 338 337 338 338 338 339 339 339 337 335 334 333 333 332 330 329 329 331 332 328 328 329 329
319 321 319 319 318 319 317 318 317 318 318 319 320 320 319 319 319 319 319 320 324 325 328 332 337 339 339 338 337 337 338 339 338 337 338 337 336 335 334 332 331 331 330 329 331 331 330 328 328
322 319 318 318 317 317 318 317 317 317 318 318 319 319 319 319 318 318 317 317 317 320 323 324 324 325 329 334 336 338 336 337 338 338 336 336 337 336 335 334 333 333 332 331 330 330 331 330 329
316 318 317 316 316 318 318 318 317 317 316 316 317 317 316 317 317 317 317 317 317 317 319 319 322 322 322 322 325 333 335 332 333 334 333 334 334 333 334 335 334 334 334 333 332 330 330 331 330
317 317 316 314 315 317 317 318 317 316 315 317 317 317 317 316 315 316 316 316 317 317 317 318 319 320 320 320 320 321 325 327 329 329 330 332 330 330 332 334 336 334 333 332 333 332 331 331 330
318 316 315 315 315 314 315 316 317 314 315 316 316 316 316 315 314 314 314 315 315 315 315 314 316 316 317 319 319 319 319 319 321 323 327 328 327 324 327 329 329 330 331 332 329 329 330 330 330
317 315 315 315 315 316 313 315 313 314 313 311 313 313 314 314 314 314 314 314 314 313 313 313 313 314 315 316 317 318 318 319 319 323 331 330 328 326 327 327 328 330 329 331 332 330 330 331 330
317 317 316 314 313 314 314 313 312 313 311 310 309 312 314 314 314 314 314 313 313 312 311 312 312 312 311 312 313 315 317 317 318 319 321 327 331 331 329 328 325 326 327 328 329 330 330 329 328
317 317 315 314 315 314 315 313 313 312 314 310 310 314 315 315 315 316 315 316 316 315 314 313 312 313 312 312 312 311 312 312 312 313 316 319 324 327 328 329 328 327 327 329 328 328 327 327 327
316 317 317 318 313 313 313 314 314 312 310 310 312 315 316 316 317 316 316 316 316 316 315 314 314 314 313 313 312 311 312 311 311 312 312 317 322 325 326 326 326 327 326 327 327 325 325 325 325
313 315 311 315 315 314 310 315 313 307 311 313 315 315 316 316 317 317 316 315 315 315 315 314 314 314 314 314 313 313 312 312 313 312 311 312 316 320 324 324 323 323 324 325 325 326 321 322 322
316 316 313 311 310 308 310 309 309 309 310 311 313 315 316 316 316 316 314 314 313 313 312 312 312 312 312 312 312 312 313 312 312 312 312 312 312 313 314 319 322 322 322 323 319 321 317 319 319
315 315 315 310 313 314 309 309 310 310 311 310 311 313 315 316 315 314 313 313 312 311 311 310 310 311 311 311 311 311 311 312 311 311 310 310 310 310 311 311 312 312 313 314 316 316 315 312 316
315 316 314 312 309 310 310 308 306 309 310 309 310 313 315 316 314 313 312 312 310 310 310 309 309 309 310 310 310 310 310 310 311 311 310 310 310 310 310 310 311 311 311 310 310 310 311 312 313
313 314 314 311 313 307 306 309 307 305 307 309 311 313 315 315 314 312 311 310 309 308 308 308 308 308 309 309 309 309 309 310 310 310 310 310 310 310 310 309 309 309 309 309 309 309 309 311 311

GFSSGP_850_thetae_072.txt.gz
Theta_e
323 323 321 326 322 319 323 324 321 322 322 323 324 331 334 332 339 333 339 340 342 339 337 337 335 335 337 337 337 336 337 337 337 335 334 330 326 318 318 335 336 335 332 322 316 320 320 321 321
322 323 323 326 323 323 322 319 322 320 323 323 324 331 337 342 341 340 341 341 342 339 337 337 335 336 338 338 338 337 337 337 337 337 330 324 318 316 320 336 338 336 333 328 317 313 314 319 317
322 323 327 321 321 323 322 321 318 322 322 324 324 331 338 342 342 340 341 342 342 337 337 339 337 337 341 339 337 339 339 338 335 327 326 319 320 323 329 337 338 336 333 329 320 312 310 313 313
323 324 326 325 326 323 321 321 322 320 323 325 331 336 341 342 342 343 342 344 343 335 339 343 338 338 341 339 338 339 340 332 326 325 320 324 319 330 333 337 337 335 331 330 319 312 312 312 314
323 325 325 324 325 323 322 323 324 319 322 323 328 337 343 344 344 344 344 345 339 337 340 342 339 339 338 338 338 338 335 331 324 323 321 321 320 332 331 334 326 324 327 328 317 312 313 313 316
323 323 326 327 325 323 321 324 323 320 322 330 339 340 342 343 344 344 345 346 344 336 340 339 338 341 337 336 338 337 330 331 323 320 334 331 321 323 325 321 321 326 327 318 314 313 314 316 317
324 323 324 325 325 323 323 324 320 319 321 321 337 337 342 343 343 345 346 346 345 342 339 335 334 337 335 337 337 337 336 332 321 318 325 335 324 318 316 320 325 323 317 314 314 314 314 318 318
324 324 324 325 328 327 324 324 324 320 321 332 336 340 342 343 344 345 346 344 345 345 344 333 339 341 340 339 338 337 336 331 321 319 314 314 314 315 319 317 315 317 315 314 314 314 314 318 318
324 326 326 326 328 326 325 324 323 321 322 325 334 340 341 343 344 345 344 344 345 345 342 340 342 342 340 340 339 336 335 333 326 322 320 316 314 313 313 316 317 314 314 314 314 314 315 317 319
322 326 325 323 324 325 324 324 323 322 325 338 339 341 343 343 344 344 345 345 345 343 341 335 336 341 337 339 338 336 335 332 325 326 323 321 320 315 313 313 313 314 314 314 314 314 316 316 319
321 321 320 322 321 321 323 323 324 321 318 333 339 340 341 341 340 344 344 344 343 342 342 341 339 338 339 339 335 334 331 331 328 325 324 323 323 320 315 314 313 314 314 315 315 316 316 317 318
320 319 322 322 323 321 323 323 322 319 321 322 323 327 333 338 338 340 342 342 343 341 341 341 341 339 338 335 336 336 334 332 327 324 322 324 323 324 326 326 323 318 315 315 315 316 316 317 318
320 319 319 319 321 320 320 322 322 317 323 322 328 331 328 332 336 337 339 339 342 341 341 341 341 340 339 339 338 337 335 327 328 326 326 327 330 328 327 329 329 323 319 316 316 316 316 317 318
321 320 319 319 318 319 322 320 320 320 321 331 332 334 334 334 333 332 339 342 342 341 341 341 340 340 340 339 338 337 333 330 333 334 331 331 332 333 332 331 331 329 325 326 322 321 322 323 323
320 320 319 319 319 318 318 319 319 320 319 321 322 322 322 327 335 331 335 336 339 340 341 341 340 340 339 339 338 337 335 332 335 336 336 332 333 334 334 333 332 331 329 327 328 327 326 327 327
319 318 320 318 318 319 317 319 317 318 318 319 320 320 320 320 320 324 330 338 338 339 340 339 340 341 340 339 338 337 335 334 335 337 337 336 334 333 333 333 332 332 331 329 329 329 330 327 327
319 319 318 318 318 319 316 317 316 317 317 318 319 319 319 319 319 319 320 323 328 337 339 336 339 339 339 339 339 339 338 336 336 337 338 337 337 336 334 333 332 332 332 331 330 329 330 330 329
319 318 318 318 318 318 318 317 316 317 316 317 319 320 319 319 319 318 318 319 320 323 324 328 330 334 335 338 339 339 339 338 338 338 338 336 336 336 336 335 334 334 333 332 332 331 330 331 331
317 317 318 317 316 317 319 317 317 317 317 315 317 318 319 318 319 318 317 317 317 317 319 322 323 323 324 325 325 329 336 337 337 337 337 337 337 335 336 335 335 335 335 333 333 333 332 330 331
317 317 316 314 314 316 316 318 316 316 316 316 317 318 318 316 315 316 316 317 317 317 317 317 319 319 320 321 322 324 323 324 329 332 333 333 333 332 332 331 332 333 333 333 332 333 332 331 331
317 315 315 315 314 314 315 315 315 314 315 316 316 317 317 316 315 315 315 316 316 316 316 316 317 318 318 318 319 319 319 320 320 321 324 325 328 333 332 328 327 329 329 330 331 330 330 329 328
319 314 315 314 315 316 313 315 310 314 315 313 315 315 315 314 314 314 314 315 315 315 315 315 314 314 315 316 316 317 318 318 318 319 319 319 320 322 325 326 325 327 328 328 329 329 329 329 329
317 317 315 314 313 313 313 313 311 310 313 313 310 314 314 314 314 314 314 314 314 313 312 312 312 312 312 313 314 315 315 316 317 317 318 319 321 325 326 328 328 327 323 326 326 327 328 328 328
315 315 313 313 315 314 313 312 311 310 311 312 308 311 312 313 314 314 314 314 314 313 312 312 312 312 312 312 311 311 311 312 313 314 314 315 316 318 325 327 327 326 325 327 326 326 326 327 327
316 313 317 319 319 316 311 312 314 310 310 311 308 311 314 314 315 315 315 315 315 315 315 314 314 313 313 313 312 312 311 311 311 311 311 312 313 317 322 325 326 326 326 325 325 325 324 324 323
315 315 311 316 315 312 310 314 314 308 308 311 312 314 315 315 316 316 315 316 315 315 315 314 314 314 313 313 313 313 313 313 312 312 312 311 311 313 317 321 323 324 323 321 323 322 322 319 320
314 316 313 308 307 306 309 308 307 309 309 311 313 314 316 316 316 316 316 315 314 314 313 312 312 312 312 312 312 313 313 313 313 312 312 312 312 312 312 312 314 317 321 322 322 322 321 316 316
314 314 314 305 309 312 310 308 311 310 309 311 312 313 315 316 316 316 315 314 313 312 311 311 310 310 311 311 311 311 311 311 311 311 311 310 310 310 310 311 311 311 312 312 313 313 314 315 315
314 315 313 311 308 309 310 308 304 308 310 312 312 314 316 316 315 315 314 313 312 311 310 310 309 309 309 310 310 310 310 310 310 310 310 310 310 310 310 309 309 310 310 310 310 309 309 309 309
314 315 312 311 314 305 304 307 304 304 308 311 311 314 315 315 315 314 313 312 311 310 309 309 309 308 308 308 308 308 309 309 309 309 309 309 309 309 309 309 309 309 309 309 309 310 310 309 309

GFSSGP_850_thetae_075.txt.gz
Theta_e
323 323 321 324 322 320 323 323 319 320 321 323 323 326 328 337 334 333 337 337 340 340 338 335 335 336 339 339 338 337 336 338 335 333 331 326 321 317 334 336 333 331 318 315 319 322 325 325 323
322 323 322 324 321 323 322 319 321 319 321 328 336 335 338 340 341 339 337 341 340 335 338 336 334 335 338 337 336 336 337 336 337 325 323 317 316 318 337 338 335 332 324 314 312 316 319 319 318
323 323 323 320 320 323 322 320 319 319 321 321 326 335 340 341 340 338 340 341 342 334 336 335 333 337 337 336 336 338 340 340 330 323 319 318 319 327 336 337 335 333 326 315 311 311 316 317 315
325 323 324 325 325 322 320 320 321 321 323 322 331 336 342 342 339 338 340 342 341 335 335 338 337 338 338 337 337 340 339 336 330 322 318 317 325 330 335 336 335 332 323 317 311 311 311 312 313
324 324 324 325 325 323 320 322 322 319 319 322 332 339 342 342 342 342 342 342 340 335 337 339 338 340 339 337 336 339 335 326 325 322 320 317 326 329 333 332 329 324 323 317 312 312 312 314 317
323 323 323 325 325 323 320 322 322 320 320 333 338 340 341 343 344 343 343 343 340 335 341 338 337 341 339 339 337 337 329 325 321 321 333 328 334 328 325 327 320 323 323 316 313 313 314 316 318
321 320 322 323 324 324 322 324 319 319 318 323 337 338 341 343 344 344 345 343 338 337 339 341 338 339 338 340 337 335 329 326 320 320 336 330 323 331 326 323 324 325 320 315 314 313 316 317 319
324 319 322 323 324 326 324 325 324 321 318 328 338 339 341 342 344 345 346 344 341 338 336 336 337 341 337 336 336 335 333 330 321 318 318 317 318 320 321 322 320 319 316 315 314 313 317 318 318
324 324 324 323 326 326 324 323 324 323 321 329 334 340 340 342 344 346 345 343 344 343 338 333 333 336 336 336 336 336 335 332 322 320 315 314 314 314 316 316 315 314 315 314 314 314 315 318 319
324 324 324 322 323 324 324 323 323 323 320 329 340 341 343 343 344 346 344 342 344 344 342 338 336 340 338 339 339 336 334 330 326 323 323 321 316 313 313 313 314 314 314 314 314 314 315 317 319
321 324 322 322 322 323 322 323 322 322 317 322 339 342 343 343 344 345 344 342 344 343 339 337 340 341 338 337 338 337 334 331 328 327 328 326 323 322 315 314 314 314 314 314 314 315 315 316 317
320 321 322 322 323 322 323 321 321 322 321 321 322 340 340 342 342 343 343 343 344 342 340 338 336 339 338 337 338 334 332 329 328 327 326 326 324 323 322 321 319 319 317 314 315 315 316 316 317
319 319 320 321 320 319 318 319 318 319 321 319 322 335 336 337 336 336 338 341 343 341 340 340 340 339 338 337 334 335 335 332 330 327 326 324 326 327 326 325 328 327 322 319 315 316 316 316 317
321 319 321 320 320 319 320 319 319 322 321 320 329 332 336 336 336 337 337 337 341 341 340 340 340 340 339 338 337 337 336 333 329 330 329 328 330 332 331 329 329 329 327 325 325 320 319 319 320
320 320 318 319 319 319 320 322 320 321 320 318 328 333 332 333 337 339 337 339 340 340 340 340 340 340 339 338 338 337 336 334 331 333 335 334 331 332 332 332 332 331 331 330 328 327 326 325 325
318 318 320 318 318 318 320 322 321 320 319 318 319 319 327 332 332 332 334 336 338 341 341 340 340 340 340 339 339 338 337 336 333 332 334 336 335 333 332 332 331 332 332 332 331 329 329 329 329
318 317 319 318 318 318 317 318 320 320 320 316 318 319 318 319 321 323 328 334 337 338 340 340 341 340 340 340 339 339 338 338 336 334 334 334 335 335 334 333 332 333 333 332 332 331 331 330 329
317 318 317 319 318 318 317 316 316 317 316 316 317 319 318 319 319 318 322 324 327 333 338 339 339 339 339 340 340 340 339 339 338 337 336 336 336 336 335 334 334 335 334 334 333 333 332 332 331
315 316 318 317 316 318 318 317 317 318 316 315 316 316 319 319 319 318 317 318 320 321 325 327 330 332 335 338 339 339 339 338 338 338 337 337 338 338 337 337 336 336 335 335 335 334 333 333 332
316 316 316 315 314 317 317 318 316 316 316 317 317 316 317 318 318 318 318 317 317 317 318 321 322 323 324 326 327 329 329 330 331 334 336 336 335 333 332 332 332 332 332 332 333 333 333 332 332
315 315 315 316 314 313 315 316 316 316 315 316 317 317 315 317 317 316 316 316 316 316 316 316 317 318 319 319 320 321 322 323 324 323 323 325 330 333 334 334 333 333 329 327 329 331 331 332 332
318 314 315 313 315 316 314 317 311 314 314 312 316 317 317 315 315 315 315 315 315 315 315 315 315 316 316 316 316 317 317 318 318 319 319 319 319 319 320 324 327 325 324 327 327 327 328 330 330
315 316 314 314 314 314 313 314 313 309 311 313 314 315 316 315 314 314 314 314 314 315 315 315 314 314 314 313 313 313 314 315 315 316 316 317 318 318 318 319 322 324 325 327 326 324 325 326 327
315 313 313 313 312 311 313 314 312 310 309 310 311 313 315 315 314 313 314 314 314 314 314 313 312 312 312 312 312 312 311 312 312 313 313 314 314 315 316 319 323 327 324 325 324 323 325 325 325
315 314 319 317 317 314 310 312 315 309 308 308 309 310 312 313 313 314 314 314 314 314 313 313 312 312 312 312 312 312 311 311 311 311 311 311 311 312 313 317 320 325 327 327 327 326 324 325 324
315 312 313 316 315 312 309 313 313 309 310 310 311 312 311 312 313 314 314 315 314 315 315 314 314 313 313 313 313 313 313 313 312 312 312 312 311 311 312 314 319 322 324 324 324 324 324 323 321
313 317 309 307 305 304 308 307 306 306 307 308 309 310 311 313 314 315 315 315 315 315 314 313 313 312 312 312 312 313 313 313 312 312 312 312 312 312 312 312 312 313 315 318 321 322 323 323 322
313 312 315 306 312 311 309 308 310 308 308 308 309 311 313 314 315 315 316 315 314 313 312 312 311 311 311 311 311 311 311 311 311 311 311 311 311 310 310 310 310 310 311 311 312 312 312 312 312
315 316 315 313 307 309 311 308 303 305 306 308 310 312 314 315 316 316 315 314 313 312 312 311 310 310 310 309 310 310 310 310 309 309 309 309 310 310 310 309 309 309 309 309 309 309 309 309 309
312 314 314 309 312 303 302 307 305 303 303 309 311 313 315 316 316 315 314 314 313 312 311 310 310 309 309 308 308 308 308 309 309 309 309 309 309 309 309 309 309 309 309 309 309 309 309 309 309

GFSSGP_850_thetae_078.txt.gz
Theta_e
322 322 321 323 319 318 322 321 318 320 319 320 321 323 324 335 334 332 339 333 335 336 336 337 336 335 336 340 339 339 337 336 334 332 328 322 318 332 335 331 327 316 314 318 322 326 327 327 324
323 324 323 323 319 319 319 319 321 319 319 329 332 336 337 339 339 338 336 339 336 336 335 336 334 335 338 338 338 337 336 334 330 325 320 316 318 336 337 333 328 321 314 312 316 318 319 319 318
323 324 322 319 317 320 320 319 321 320 323 322 326 335 339 340 340 336 338 339 336 334 335 335 334 338 339 338 335 337 337 338 326 322 317 316 325 335 337 335 331 324 315 311 311 315 317 316 315
324 325 323 322 322 321 320 318 320 320 323 320 325 337 342 340 337 337 340 339 338 335 334 339 337 337 337 335 335 338 340 336 328 323 318 322 327 333 336 334 332 323 317 311 311 311 313 313 313
324 323 323 323 324 323 320 321 321 320 319 320 331 338 341 340 339 340 339 340 338 336 335 341 337 339 337 335 337 341 335 333 329 323 319 323 325 330 337 333 328 321 318 312 312 312 312 314 316
324 322 321 324 323 322 320 322 321 319 319 321 336 339 341 341 343 341 341 340 339 333 336 339 339 340 337 335 339 338 329 324 322 320 325 327 326 333 331 328 322 322 318 314 312 314 315 316 318
321 319 321 320 322 323 322 323 321 319 318 317 335 338 339 342 343 342 342 342 339 335 337 340 338 341 338 338 336 335 328 325 319 318 322 323 332 331 328 323 320 320 318 315 313 314 316 317 319
323 317 321 321 323 324 323 324 323 324 321 322 337 336 339 342 343 343 343 341 339 338 341 338 338 340 338 340 337 334 328 326 320 317 321 318 319 320 321 321 320 320 316 315 314 313 316 317 320
323 322 320 321 324 324 323 323 323 323 322 321 333 339 339 342 343 344 342 340 339 340 340 340 337 337 338 337 336 334 332 329 321 319 317 318 318 318 319 317 316 315 316 315 314 314 315 317 318
321 322 321 320 323 324 323 323 323 323 322 323 325 340 341 342 344 345 343 342 341 340 339 338 336 338 339 334 335 334 332 329 326 321 317 315 315 314 314 315 317 316 315 314 314 315 314 316 318
322 322 321 322 322 323 323 323 322 322 320 318 321 321 340 342 344 345 343 343 343 343 341 337 333 333 336 336 336 336 334 331 330 324 325 325 323 321 316 314 313 314 314 314 314 315 315 315 316
321 321 321 322 322 323 323 322 320 320 322 322 320 321 336 343 342 343 342 341 343 343 341 338 335 337 339 336 336 336 336 334 330 329 327 326 325 323 322 319 316 316 316 316 315 315 315 315 316
318 320 322 322 321 319 319 320 318 320 322 323 321 325 335 336 336 338 340 340 342 342 339 336 335 339 339 338 336 337 333 332 331 330 327 326 324 325 325 324 326 328 326 322 319 316 315 316 316
319 319 321 320 320 319 319 320 320 322 322 322 321 324 335 333 334 336 339 340 343 342 340 339 338 338 338 338 336 334 335 335 331 328 328 326 327 328 331 330 328 328 329 328 325 325 322 320 319
319 321 318 319 319 320 319 320 321 321 320 320 321 319 332 333 333 335 333 334 339 341 340 339 340 339 339 338 337 337 336 336 332 329 332 333 332 331 331 332 332 331 331 331 330 328 327 326 326
319 319 321 318 320 319 319 321 320 319 319 320 321 319 322 333 334 336 338 336 338 338 339 339 339 339 339 338 338 337 337 336 335 332 331 334 335 335 333 332 331 331 332 332 331 331 330 330 329
317 321 318 318 319 320 320 319 320 318 319 320 319 320 317 327 334 334 334 335 338 337 338 339 339 339 339 339 339 339 338 338 337 336 334 333 334 335 335 334 333 333 333 332 332 332 332 331 331
320 318 318 317 317 319 320 316 320 319 318 320 319 319 317 318 322 327 333 335 336 338 338 338 340 340 340 339 339 339 339 338 338 337 337 336 335 336 336 335 335 335 335 334 334 334 334 333 333
314 315 316 316 316 317 319 317 319 318 318 318 319 318 316 318 318 318 321 324 326 331 336 337 338 338 339 339 338 338 338 338 338 338 337 337 337 336 336 337 336 336 336 335 334 334 333 333 332
315 315 316 315 315 317 317 318 316 316 316 318 318 317 317 317 318 318 317 318 319 321 324 330 334 335 335 334 335 336 337 337 337 336 335 336 335 335 335 334 334 332 331 331 331 331 331 332 332
314 314 314 315 313 314 315 317 316 316 316 316 316 316 317 316 316 317 317 317 317 317 318 320 323 324 324 325 329 331 329 329 328 327 328 328 330 332 333 333 333 334 334 333 333 329 327 328 330
317 314 314 314 314 317 314 319 313 316 315 313 315 316 317 317 316 315 315 317 316 316 316 316 316 317 318 318 318 318 318 318 319 321 323 324 323 321 320 320 321 321 327 330 326 325 326 325 325
315 315 314 313 312 313 313 314 314 310 311 314 315 315 316 316 316 315 314 314 315 315 315 315 315 315 315 315 315 314 314 314 315 316 317 317 317 317 317 317 318 320 324 326 327 328 326 325 325
314 313 312 311 310 316 311 313 314 312 310 310 310 313 315 316 316 315 313 313 314 314 314 314 314 314 313 313 312 312 312 312 312 312 313 313 314 314 315 315 316 318 320 325 328 325 326 324 326
313 315 313 312 317 316 309 311 315 311 308 308 309 311 313 315 315 314 313 313 314 314 314 313 313 312 312 312 312 312 312 311 311 311 311 311 311 311 311 312 312 314 316 321 325 326 326 326 324
313 313 311 314 314 311 308 312 312 309 310 311 312 311 312 312 313 313 313 314 314 314 314 313 313 313 313 313 313 312 312 312 312 312 312 312 312 311 311 311 312 316 320 324 325 326 327 325 323
313 313 308 310 303 304 308 307 306 305 305 306 308 308 310 311 311 312 314 314 314 314 314 314 313 313 313 312 312 312 312 312 312 312 312 312 312 312 312 312 312 312 312 314 317 320 321 321 320
313 310 314 310 313 312 309 307 309 308 307 306 307 309 309 309 311 313 314 315 315 314 314 313 312 312 311 311 311 311 311 311 311 311 311 311 311 311 311 311 310 310 310 310 311 312 313 315 315
315 315 312 310 307 308 310 309 303 306 305 303 306 310 310 310 312 314 315 315 314 313 313 312 312 311 311 310 310 310 310 310 309 309 309 309 309 309 309 309 310 309 309 309 309 309 309 309 309
313 314 314 315 312 304 301 310 304 303 302 303 307 311 311 312 314 315 315 315 314 313 312 311 311 311 310 309 309 309 308 308 308 308 308 309 308 308 308 308 308 308 308 308 308 308 308 309 309

GFSSGP_850_thetae_081.txt.gz
Theta_e
322 322 321 324 323 322 321 322 320 322 319 319 320 322 328 333 336 336 337 332 333 334 339 340 338 337 338 338 340 338 338 337 334 331 323 317 332 331 328 321 314 314 316 318 322 326 326 324 320
322 324 323 322 323 322 322 320 321 320 321 323 329 335 336 339 337 338 336 332 333 333 339 341 336 338 338 338 338 338 336 334 331 321 317 319 335 335 330 325 318 313 312 316 318 319 319 318 316
322 324 322 322 320 321 320 320 322 321 320 324 325 336 338 339 339 337 334 334 334 333 337 341 339 339 339 337 337 336 334 333 324 318 317 324 335 336 333 327 320 314 311 311 315 316 316 315 313
324 325 322 322 323 321 320 320 321 321 322 319 325 338 341 339 338 336 337 334 334 332 334 339 342 340 339 337 334 336 336 333 324 319 319 327 334 337 332 329 321 316 311 311 312 314 313 313 315
324 323 323 323 323 322 321 320 320 321 319 319 331 336 340 339 338 339 337 334 337 332 335 339 340 341 337 335 336 340 329 332 326 321 322 326 332 337 331 328 321 317 312 312 312 313 314 316 318
324 321 324 325 323 322 321 322 320 320 319 318 334 338 340 340 340 341 339 335 338 334 337 339 339 339 336 335 338 339 326 322 320 320 322 325 330 338 332 325 321 319 315 313 314 314 316 318 319
324 323 324 323 323 323 322 323 322 321 317 320 335 338 338 341 345 342 341 339 336 335 339 338 339 340 336 336 339 336 327 324 319 319 319 322 329 334 328 321 320 318 316 314 313 315 316 318 320
323 321 323 321 323 324 324 323 323 323 321 322 334 336 338 342 346 343 342 341 338 340 338 339 339 339 337 337 336 336 327 327 319 321 319 319 319 323 321 320 320 318 316 315 314 314 316 317 318
322 323 325 323 322 324 323 324 323 322 322 327 330 334 338 341 345 344 343 342 340 338 339 340 339 340 338 336 336 335 330 329 321 318 319 318 318 318 318 317 316 316 316 315 314 314 315 317 318
322 323 321 319 322 325 323 323 323 323 319 320 321 325 338 345 345 344 342 341 340 339 340 338 338 339 339 337 335 334 332 330 323 320 318 316 316 316 316 316 317 316 315 315 315 314 314 315 317
322 324 321 322 323 323 323 322 322 322 320 320 321 321 332 338 344 343 342 341 340 342 342 341 339 338 338 336 333 333 332 331 329 323 321 321 320 318 316 314 314 314 314 315 315 314 314 314 315
323 320 322 322 322 323 322 321 320 321 323 322 322 321 327 339 342 342 341 341 341 340 339 337 337 338 339 336 334 335 335 333 331 329 325 327 325 323 323 319 316 315 316 316 315 314 314 315 315
319 321 322 321 320 318 320 320 320 321 321 321 322 321 323 334 339 337 336 340 342 343 342 340 337 334 335 337 336 336 336 334 332 330 329 327 325 323 324 324 324 326 327 324 321 318 316 316 316
319 321 321 320 319 319 320 320 321 320 321 322 322 322 321 328 336 335 335 337 339 342 341 337 335 335 339 339 337 336 335 333 333 330 329 327 325 326 329 330 328 327 329 329 327 325 325 322 322
319 320 319 320 319 320 318 321 321 321 321 321 322 322 321 319 334 334 335 335 337 337 341 338 337 337 338 338 337 335 335 335 334 330 328 330 331 330 330 331 331 331 331 331 330 330 329 328 327
320 319 322 319 319 319 318 323 318 319 319 321 321 321 321 319 326 334 333 334 333 338 340 339 339 338 338 337 337 336 336 336 335 334 330 331 333 334 333 332 331 331 332 332 331 331 331 330 330
318 321 319 320 318 320 319 320 318 318 319 320 321 321 321 320 320 333 333 334 334 336 339 339 339 339 338 338 338 338 338 337 337 336 335 334 333 333 334 334 334 334 333 332 332 332 332 332 332
320 320 318 319 320 319 320 320 320 318 319 320 320 321 321 320 318 320 335 335 337 337 337 339 339 339 339 339 339 339 339 338 337 337 337 337 336 335 335 335 335 336 335 335 334 334 334 334 333
315 317 317 316 316 320 321 320 319 319 318 320 320 320 319 320 319 317 323 333 334 334 335 337 337 338 339 339 338 338 337 338 337 337 337 337 337 337 336 335 335 336 335 335 335 334 333 331 330
315 315 316 315 315 319 318 320 317 319 319 318 319 320 319 320 319 317 317 321 331 333 331 332 335 336 337 337 337 337 336 335 334 336 337 337 336 335 334 333 333 333 333 332 331 331 331 331 331
313 315 314 316 314 314 317 319 317 316 317 318 318 320 320 319 318 317 317 317 319 323 324 326 329 334 335 333 332 331 331 330 331 332 331 330 330 331 330 330 330 331 331 331 332 333 333 332 327
316 313 313 314 316 320 313 322 315 317 317 316 317 318 320 319 318 317 316 317 317 317 318 319 321 325 326 325 326 326 325 325 323 321 321 323 325 327 326 324 322 320 320 321 322 329 330 327 326
314 313 313 312 313 314 313 317 314 312 317 316 315 316 317 316 316 317 317 316 316 316 316 316 317 318 318 318 317 317 316 316 315 315 316 317 318 318 319 318 317 317 317 319 322 326 327 328 327
312 312 312 310 311 316 313 315 315 313 313 312 315 317 317 318 317 317 317 315 314 315 315 315 315 315 315 315 314 314 314 313 312 312 312 313 313 314 314 314 315 315 316 317 320 325 329 328 326
314 313 316 315 316 315 309 312 315 313 310 310 311 311 313 315 316 315 316 315 314 314 314 314 314 314 314 314 313 312 312 311 311 311 311 311 311 311 311 311 311 312 312 313 315 319 327 328 327
314 314 313 315 315 313 308 314 314 310 309 311 311 310 310 311 312 314 315 315 314 314 314 314 314 314 313 312 312 312 312 312 312 312 312 311 311 311 311 311 311 311 312 314 318 322 325 324 323
313 316 308 310 304 308 310 308 307 306 307 307 308 309 310 311 311 312 313 313 313 313 313 313 313 313 313 313 312 312 312 312 312 312 312 312 312 312 312 312 312 312 312 312 314 317 321 322 320
313 309 314 313 314 314 310 308 312 309 308 307 306 307 309 310 310 310 311 313 313 314 314 314 313 313 312 312 311 311 311 311 311 311 311 311 310 310 311 311 311 310 310 310 311 312 313 314 317
315 315 312 310 309 313 311 310 305 307 307 305 304 305 308 310 309 310 312 314 314 314 314 313 312 312 312 311 311 311 310 310 310 309 309 309 308 308 308 309 309 309 309 309 309 309 309 309 310
313 313 314 316 312 305 305 312 305 303 303 303 304 309 310 310 310 311 313 314 314 314 313 312 312 311 311 311 310 310 309 309 308 308 308 308 308 308 308 308 308 308 308 308 308 308 308 308 308

GFSSGP_850_thetae_084.txt.gz
Theta_e
323 321 322 325 324 324 323 323 324 325 323 322 323 325 332 337 338 340 340 340 342 344 344 340 337 337 337 338 338 339 336 335 332 327 320 328 328 323 316 313 315 315 317 321 326 326 324 320 316
323 323 323 324 324 324 324 323 324 325 324 324 329 331 332 336 341 342 342 339 341 345 345 343 337 337 339 339 340 338 336 332 327 320 323 336 334 327 321 315 312 313 317 319 320 319 318 316 313
323 324 323 324 323 325 324 323 326 325 323 327 329 336 338 341 342 343 343 340 343 345 345 343 340 338 339 340 339 337 333 327 319 317 327 335 336 331 325 318 312 310 312 316 316 316 314 313 314
326 325 323 324 323 323 323 325 325 325 323 323 328 338 342 340 343 343 343 344 343 345 345 341 338 339 340 338 337 335 338 325 319 318 329 334 337 333 327 320 313 311 312 314 314 313 313 315 317
325 326 325 324 323 324 324 324 324 325 324 325 330 339 342 342 339 343 343 343 344 344 345 340 341 340 339 337 335 337 335 332 321 320 328 334 338 333 328 322 317 312 312 313 313 314 316 319 321
325 325 326 325 324 325 324 324 324 325 323 326 333 338 342 339 345 347 346 345 344 343 346 342 341 342 338 335 339 337 328 324 321 322 326 333 339 333 324 321 319 315 313 313 314 316 317 320 321
326 326 325 325 324 324 324 324 325 323 322 327 334 337 343 344 347 349 348 344 341 343 345 343 342 341 337 335 339 334 325 321 321 321 325 331 338 330 326 322 320 317 315 313 315 316 317 319 321
325 326 325 325 326 324 325 325 325 325 324 328 338 339 343 342 345 347 348 346 339 342 344 346 342 340 339 337 339 333 326 322 321 325 324 324 328 321 321 319 319 317 316 315 314 315 317 318 319
323 327 328 327 326 325 325 325 324 323 326 327 326 329 334 339 342 344 344 343 343 340 344 344 344 341 342 341 338 336 328 327 321 326 321 322 326 322 321 319 318 317 316 315 314 314 315 317 318
324 326 327 324 324 325 325 325 325 324 326 325 325 325 337 343 342 343 344 346 345 342 340 342 343 342 340 341 336 336 332 329 329 325 322 326 321 320 318 317 317 316 315 315 315 314 314 314 318
323 325 323 323 323 324 325 325 325 324 325 324 323 323 335 341 342 344 342 343 343 343 340 342 341 340 340 339 339 338 335 333 329 327 321 319 317 316 315 315 314 315 315 315 315 315 315 315 315
324 323 323 325 325 325 325 324 324 325 324 323 322 323 329 339 340 340 342 341 340 340 339 339 340 339 339 339 338 338 337 334 332 329 323 325 325 324 323 323 315 315 314 316 315 315 314 315 315
322 323 323 323 323 323 323 324 324 323 322 321 322 323 324 330 337 339 342 343 340 341 342 341 343 340 338 339 339 338 338 336 335 332 329 327 327 325 324 323 323 324 326 326 322 320 316 316 316
320 322 323 322 322 321 323 324 323 324 322 322 322 323 323 322 329 338 339 341 342 341 341 341 339 337 338 338 338 338 338 337 333 332 330 329 327 325 326 329 327 326 327 329 328 326 325 325 323
320 322 323 322 322 323 321 324 324 323 322 323 323 323 323 322 321 334 338 337 339 338 339 340 337 338 336 337 338 338 337 336 334 332 328 328 329 328 329 331 332 332 331 330 330 330 329 329 329
320 320 323 322 322 322 321 326 323 322 322 322 322 323 323 322 321 323 335 336 335 338 339 340 337 335 337 339 338 337 337 336 336 334 330 330 332 333 333 332 331 331 332 331 331 331 331 330 330
321 321 320 323 322 322 322 323 321 320 320 321 322 322 323 323 321 321 327 334 335 336 336 339 338 337 338 338 337 337 337 336 336 336 335 333 332 332 333 334 334 334 333 332 332 332 332 332 333
321 320 320 320 321 321 322 322 321 321 320 321 321 323 323 323 322 320 323 334 334 335 335 340 339 339 339 339 338 338 338 337 337 337 336 336 336 336 335 334 334 335 335 335 334 334 334 334 334
319 319 320 319 320 321 321 322 321 320 320 320 321 322 322 323 322 320 317 332 335 333 333 335 337 338 339 339 339 338 338 338 338 337 337 337 337 337 336 336 336 335 335 335 335 335 335 333 331
318 318 318 318 318 321 321 322 320 320 320 319 320 321 322 322 322 320 317 317 331 333 333 331 332 335 336 338 338 338 337 337 337 336 335 336 336 337 336 335 335 334 334 334 333 333 332 332 332
317 317 318 318 318 320 319 320 321 320 319 320 319 321 323 322 322 320 318 316 317 330 331 330 329 330 331 332 334 336 335 333 333 332 331 333 334 333 332 332 332 330 331 332 333 332 332 334 333
318 317 317 318 319 320 319 321 320 320 319 320 319 319 320 322 322 320 318 316 317 317 324 326 328 328 329 331 336 336 335 334 331 329 328 327 325 325 325 326 327 327 326 323 323 325 328 332 333
316 316 317 317 319 319 318 320 319 318 319 319 319 318 318 320 321 317 320 317 317 317 316 318 320 323 328 331 330 328 326 323 320 319 317 316 316 317 318 319 321 321 320 319 319 320 324 328 329
315 316 316 316 317 319 316 319 318 318 317 317 318 318 318 318 320 317 317 317 317 317 316 316 316 318 320 320 318 317 316 315 315 314 314 313 313 313 314 315 316 316 315 315 316 318 321 327 328
316 317 319 320 320 317 314 317 316 316 316 316 316 316 317 317 318 318 315 315 317 317 315 315 315 315 315 315 314 314 314 314 313 312 312 311 311 311 311 312 312 312 312 312 312 313 314 324 325
316 316 316 316 315 315 312 316 315 315 314 314 314 313 311 312 315 317 320 315 315 316 316 315 314 314 314 314 314 313 312 312 311 311 311 311 311 311 311 311 311 311 311 311 311 313 316 321 323
317 318 314 316 310 316 315 315 314 315 314 313 312 311 312 312 312 313 314 313 313 314 313 313 313 313 313 313 313 312 312 312 312 312 312 312 312 312 312 312 312 312 312 312 312 312 315 321 321
315 314 316 317 318 317 315 314 314 313 313 313 312 311 309 310 310 311 311 312 312 313 313 313 313 313 313 313 312 312 312 312 312 311 311 311 311 311 311 311 311 311 311 311 311 311 312 314 315
314 315 315 314 315 317 314 314 313 312 312 311 312 309 310 310 310 310 310 311 311 313 313 313 314 313 313 312 312 312 311 311 311 311 310 310 310 309 309 309 308 309 309 309 310 310 310 310 311
315 314 315 316 315 314 314 315 310 310 309 309 311 312 312 311 310 310 310 311 312 313 314 314 313 312 312 311 311 311 311 310 310 309 309 308 308 308 308 308 308 308 308 308 308 308 308 309 308

GFSSGP_850_thetae_087.txt.gz
Theta_e
323 327 327 327 326 325 325 327 326 326 326 327 325 328 334 340 340 348 342 342 346 347 342 338 337 339 337 340 338 338 336 334 329 321 325 327 318 314 316 318 319 319 322 328 325 322 318 315 313
331 329 326 325 326 324 325 326 325 326 326 325 327 329 332 343 344 344 344 343 345 346 343 343 340 339 340 342 339 338 336 333 328 323 334 331 324 317 313 312 316 318 320 320 319 317 315 313 315
333 327 324 325 324 326 324 325 324 326 326 326 328 332 335 344 344 344 344 344 345 346 344 343 341 337 339 340 339 337 333 324 319 328 336 336 328 319 314 311 311 315 316 316 315 314 313 315 320
330 326 326 325 325 325 325 325 326 325 324 327 328 332 342 344 344 345 344 343 345 345 345 339 339 338 340 339 338 334 327 320 318 330 335 339 331 322 316 312 311 313 315 314 314 314 316 317 322
329 325 325 326 326 325 325 325 325 326 326 326 329 338 343 345 344 345 344 343 345 344 348 341 339 340 339 338 335 334 327 322 319 329 335 338 336 327 319 315 312 313 313 314 314 316 318 320 321
327 327 327 327 326 325 325 325 325 326 325 328 332 337 345 345 345 345 345 343 344 345 346 341 339 340 339 336 335 332 326 322 320 326 334 339 336 330 323 318 314 313 314 314 316 317 319 320 321
329 327 328 327 326 325 325 325 325 325 325 330 335 336 345 343 343 344 344 345 344 346 344 343 341 341 338 335 339 332 326 321 320 324 332 338 338 332 325 319 317 315 314 315 316 317 318 319 319
327 328 327 326 326 326 325 325 326 326 326 333 339 339 344 342 343 343 344 342 344 344 343 344 343 342 339 336 339 331 327 322 321 322 325 334 333 326 322 319 318 316 316 315 315 316 317 318 319
325 330 329 326 326 326 325 325 326 325 328 328 330 332 334 339 342 343 342 342 344 343 343 344 342 342 342 339 339 332 328 322 325 323 321 327 329 325 322 321 319 317 316 316 315 315 316 317 318
325 329 327 325 325 326 326 324 324 326 327 328 327 331 337 342 342 343 341 341 340 343 343 345 343 342 341 340 339 337 330 326 331 331 322 336 337 336 336 318 317 316 316 315 315 315 315 315 326
324 327 325 325 325 325 327 325 325 324 327 327 326 329 338 342 342 343 342 341 341 342 345 342 343 343 341 341 339 339 337 337 337 337 336 335 335 325 317 319 315 316 316 317 316 316 316 327 324
325 324 324 324 325 325 326 325 325 324 326 325 325 327 335 341 342 343 343 343 342 340 342 341 343 342 342 341 340 339 338 336 335 336 335 334 332 332 332 332 330 321 327 329 324 327 326 318 317
323 323 323 325 325 324 324 325 325 326 325 324 324 326 329 337 341 342 343 343 343 342 343 341 341 344 342 341 340 339 338 338 337 335 333 334 335 334 333 333 330 328 328 328 330 326 325 323 325
322 323 323 324 324 324 325 325 325 324 325 324 324 325 326 327 335 339 340 341 342 341 340 341 339 343 343 343 340 339 339 339 339 338 336 334 335 335 332 333 330 329 328 331 331 331 329 328 326
320 323 323 323 323 324 323 325 326 324 324 324 324 324 325 326 327 338 339 341 341 342 342 344 342 339 341 344 340 339 339 339 339 338 337 335 331 331 329 333 335 332 332 330 332 331 330 330 329
320 321 325 323 323 323 323 324 323 323 324 324 323 324 324 325 326 324 332 339 340 342 340 342 342 340 339 340 339 339 338 340 338 338 337 336 335 330 332 332 332 334 333 331 331 332 333 332 331
320 321 322 323 322 322 323 323 322 323 324 324 323 323 324 324 325 324 323 332 338 340 342 340 341 338 338 340 341 340 339 338 338 338 338 338 337 335 333 336 336 336 335 334 332 332 332 333 334
320 319 319 321 323 323 324 323 322 322 322 322 322 322 323 324 325 324 324 327 337 339 340 337 340 341 341 339 338 338 340 339 338 338 339 339 339 337 336 336 336 337 336 334 335 334 334 334 334
317 318 318 318 320 322 322 322 322 321 321 322 322 322 322 323 324 323 324 325 328 338 340 341 339 339 339 339 339 338 339 340 339 340 341 340 340 338 337 337 337 336 336 336 336 335 335 334 334
319 318 319 319 319 320 320 320 320 320 321 321 321 321 322 323 324 323 323 319 323 332 334 337 335 335 337 340 340 339 339 339 338 338 338 338 338 337 337 337 336 336 335 334 334 335 334 333 333
318 318 319 319 319 319 320 321 320 320 320 320 320 320 321 322 323 324 321 318 317 323 332 333 333 334 336 338 339 337 335 335 338 338 337 337 335 336 336 335 335 335 335 332 332 334 336 334 334
318 317 317 318 319 321 319 319 318 319 320 320 320 320 320 322 324 324 322 319 317 316 326 332 332 332 331 330 328 328 330 334 334 336 334 326 327 329 327 326 326 327 328 329 328 330 334 334 331
317 317 318 318 319 319 320 320 319 319 320 320 320 320 319 320 323 324 322 320 318 316 317 322 329 330 328 329 329 327 326 331 331 327 328 322 319 317 316 316 317 318 320 322 323 322 322 324 329
317 317 317 318 318 322 319 319 318 319 319 319 319 319 319 319 320 323 321 319 320 317 317 317 317 321 324 327 328 330 332 329 325 319 316 315 314 314 314 313 313 314 316 316 316 316 316 321 327
316 317 320 319 320 319 316 316 318 317 317 317 317 317 319 319 319 320 320 319 318 319 317 317 316 316 317 320 323 323 319 316 315 314 314 313 312 312 311 311 311 312 312 312 312 312 313 313 321
315 316 318 317 317 316 315 315 315 315 315 316 316 316 315 316 319 319 320 319 317 317 316 316 315 316 315 315 315 315 314 314 313 313 312 311 311 311 311 311 311 311 311 311 311 311 312 313 318
316 319 316 317 315 316 315 315 314 314 315 315 315 315 315 315 314 316 319 319 316 317 315 315 315 315 314 314 313 313 313 313 312 312 312 312 312 312 312 312 312 312 312 312 312 312 312 313 317
317 315 317 318 317 315 313 315 314 314 314 315 314 313 313 312 313 313 314 319 317 316 315 314 314 314 314 313 313 313 313 312 312 312 312 312 312 312 311 311 311 311 311 311 311 311 311 312 314
316 316 316 316 314 315 314 315 314 314 314 314 314 313 313 313 312 312 312 312 314 314 314 314 314 314 313 313 313 313 312 312 311 311 311 311 311 310 310 310 309 309 308 308 309 309 310 310 311
314 314 314 317 316 315 315 316 312 313 312 312 314 315 315 314 313 312 313 313 312 312 312 313 313 313 313 313 312 312 312 312 311 311 311 310 309 309 309 308 308 308 308 308 308 308 308 308 309

GFSSGP_850_thetae_090.txt.gz
Theta_e
323 321 327 328 330 326 324 325 326 329 328 326 326 328 340 344 344 347 341 345 347 335 334 336 339 340 340 340 340 341 338 330 321 323 319 314 318 323 327 329 329 323 327 320 319 316 313 314 316
324 331 327 328 327 324 324 323 326 326 325 326 327 331 337 345 344 341 343 346 343 333 333 336 340 339 340 341 339 336 333 327 323 334 326 318 313 313 314 315 317 319 319 317 315 313 313 316 322
331 331 327 328 325 326 323 324 325 326 326 326 329 332 340 344 344 344 345 347 346 336 334 336 339 340 341 342 337 332 326 322 328 336 333 322 315 311 311 314 315 316 315 314 313 313 316 322 327
330 330 327 324 326 323 324 323 324 325 325 325 329 342 344 345 345 344 345 346 346 340 338 338 340 340 339 340 335 328 319 319 330 336 334 328 319 314 311 313 315 315 314 314 314 315 318 322 325
329 327 327 326 324 323 324 326 326 325 324 326 328 343 345 345 345 344 344 345 346 344 342 338 340 340 339 338 333 323 318 319 330 335 336 330 324 317 313 313 314 314 314 315 317 318 319 321 323
329 328 325 327 325 324 325 325 325 325 325 328 329 345 345 345 345 344 344 345 345 346 345 338 339 340 339 336 332 323 321 320 328 334 339 332 326 319 316 314 313 314 315 316 317 318 319 319 320
328 328 328 325 325 325 325 325 324 325 325 332 337 343 344 344 345 344 343 344 345 346 342 339 341 340 338 335 335 324 321 320 325 333 338 336 322 321 319 317 315 315 316 317 317 318 319 319 319
328 328 328 326 325 326 325 325 325 325 327 335 336 342 344 342 345 345 344 345 346 346 340 340 340 340 338 336 336 327 322 320 322 328 332 335 321 320 318 318 317 316 316 316 317 317 317 318 319
326 329 329 328 327 325 325 326 326 327 328 329 331 337 339 341 342 343 345 345 346 344 339 342 341 341 338 338 338 329 324 320 321 323 327 332 326 321 320 319 318 317 316 316 316 315 316 317 318
325 328 328 326 325 325 325 325 324 327 327 328 332 336 341 341 343 341 343 344 345 341 341 342 341 339 339 338 338 332 329 322 321 321 326 332 331 325 322 319 317 316 316 316 316 315 315 315 318
324 326 326 325 326 326 326 324 324 326 328 327 327 336 340 341 341 341 340 340 344 342 341 342 341 340 339 338 338 335 332 327 328 323 333 337 337 334 324 318 316 316 316 316 317 316 317 318 321
324 324 324 325 325 325 327 326 325 325 326 326 327 334 339 342 341 341 340 340 342 342 341 342 341 340 339 339 337 338 335 337 338 337 334 335 334 329 323 325 325 319 320 319 320 320 321 319 317
320 320 324 324 325 325 326 326 325 325 325 325 326 332 337 339 340 342 342 340 338 341 343 341 341 341 339 339 338 339 338 336 335 336 336 334 331 332 332 331 330 324 325 325 327 325 323 322 321
319 318 322 323 325 324 324 325 325 325 324 324 325 327 331 337 339 342 342 341 342 339 340 339 341 342 341 339 338 339 338 338 337 336 333 333 335 334 334 332 331 327 326 327 328 329 329 326 326
319 319 322 324 324 324 324 325 326 325 325 324 324 325 327 328 336 339 341 341 341 341 340 340 339 343 342 340 340 338 339 338 338 338 336 333 334 334 333 330 332 330 329 327 330 330 330 328 328
321 322 322 321 323 324 324 324 324 324 325 324 325 324 325 326 327 337 339 340 339 339 339 339 339 342 342 341 340 338 337 337 337 338 337 337 333 332 330 329 333 333 332 331 330 329 329 329 330
319 322 321 322 322 323 323 323 321 323 323 324 324 323 324 325 326 325 335 338 338 340 339 340 341 343 344 340 338 338 337 337 337 337 337 337 335 335 333 334 334 334 333 332 331 330 331 331 332
319 318 319 322 322 322 324 322 320 321 323 323 324 323 323 324 325 325 324 333 338 339 339 340 340 339 337 339 338 338 338 337 338 337 338 337 336 336 335 334 336 337 337 334 334 334 334 334 334
317 317 317 319 322 323 321 322 320 320 322 322 322 322 322 323 324 325 325 327 333 337 339 337 339 339 339 338 338 339 338 337 336 337 337 339 338 338 337 336 338 336 336 336 336 335 335 336 334
318 316 316 319 320 322 320 320 319 319 320 322 322 321 322 322 323 325 324 324 329 332 337 339 337 336 337 338 337 336 335 337 336 336 337 337 336 338 337 337 338 337 337 337 336 335 336 334 334
318 317 318 319 319 318 318 318 317 317 318 320 321 321 321 321 322 324 324 324 325 329 332 335 336 336 334 336 338 335 334 334 335 334 335 335 336 336 335 337 336 336 339 339 338 339 335 332 331
318 317 318 319 319 319 317 318 317 317 317 317 319 320 320 320 321 322 324 323 323 327 329 332 333 333 333 334 334 333 332 331 330 330 331 329 327 330 329 330 331 331 329 328 331 334 336 331 330
317 317 318 318 318 317 319 318 315 316 318 317 317 319 320 320 320 321 322 322 321 320 324 330 332 332 332 333 331 332 329 330 328 327 325 323 326 324 319 318 317 317 317 317 318 320 324 329 331
317 317 317 317 317 318 318 318 316 315 315 318 317 319 319 320 320 321 322 321 319 318 317 319 328 331 331 331 330 328 327 329 325 326 329 326 321 316 315 314 314 313 313 313 314 315 316 316 320
317 317 318 318 319 315 315 316 316 315 315 316 315 316 318 319 319 320 322 321 320 318 317 317 316 318 322 327 329 326 329 330 331 329 323 316 314 314 314 312 311 311 311 311 312 312 312 312 312
316 316 318 317 316 314 313 315 313 313 314 315 316 316 316 316 318 320 322 321 320 319 318 318 316 316 316 318 320 323 325 323 321 317 314 314 313 313 312 311 311 311 311 311 311 311 311 312 312
315 314 315 317 315 312 314 314 312 311 313 314 315 315 316 315 315 319 319 320 319 319 319 317 315 315 315 315 316 317 317 315 314 314 313 312 312 312 311 311 311 311 311 312 312 312 312 312 312
317 315 316 313 313 315 310 310 312 313 312 313 312 313 314 314 314 315 318 318 318 319 317 317 315 315 315 314 314 314 314 314 314 313 312 312 312 311 311 311 311 311 311 311 310 310 310 310 311
316 318 317 315 313 311 313 313 310 312 311 311 312 314 314 313 312 313 313 313 316 316 316 318 318 314 315 314 313 314 314 313 312 312 312 311 311 311 311 311 310 310 309 309 308 308 308 309 309
314 316 316 318 316 313 310 313 312 309 309 312 314 315 314 313 313 313 312 312 313 315 317 319 320 317 314 314 319 314 312 312 312 312 312 311 311 311 310 310 309 309 308 308 308 308 307 307 308

GFSSGP_850_thetae_093.txt.gz
Theta_e
326 322 328 327 324 322 322 322 324 326 325 326 328 337 344 343 344 341 345 342 345 337 334 336 336 337 339 339 339 339 322 321 318 314 326 339 341 342 341 340 333 321 319 317 313 312 314 321 327
325 329 330 328 327 319 319 321 322 324 324 328 331 339 340 343 342 344 347 349 347 335 335 336 339 339 339 339 338 337 323 330 321 315 313 318 323 325 325 320 317 316 316 313 312 314 319 326 328
324 331 327 324 321 322 319 321 320 324 326 327 330 338 342 341 342 345 346 347 340 334 335 339 339 340 340 338 333 330 322 331 332 319 314 311 312 314 314 316 315 314 313 312 314 319 325 326 328
324 330 328 320 323 321 322 321 323 323 324 326 338 344 344 344 343 344 347 343 334 334 336 341 339 341 340 336 329 322 321 330 335 323 316 312 311 313 314 314 314 314 314 315 317 321 323 326 327
327 327 326 325 321 322 321 324 324 323 324 325 334 344 343 344 345 346 346 344 335 335 336 339 340 339 339 333 324 318 321 330 334 326 319 315 313 313 314 314 314 315 316 317 317 319 321 322 323
327 326 323 325 322 322 323 324 324 324 324 331 342 343 343 344 345 346 346 345 334 337 337 340 339 338 337 331 320 318 321 329 333 335 324 318 315 314 314 315 315 316 317 318 318 318 319 319 319
325 325 325 322 322 324 323 323 323 323 328 335 338 342 343 345 343 345 344 345 341 340 337 339 340 339 336 335 323 321 320 329 333 338 327 319 317 316 315 316 316 316 317 318 318 318 318 319 319
326 325 327 324 322 326 323 326 325 326 329 332 338 343 341 344 344 344 345 345 345 346 339 338 340 340 336 337 328 322 320 326 332 337 325 319 318 318 317 317 317 316 317 317 317 318 318 318 318
325 325 327 326 325 324 324 325 325 328 330 331 337 342 342 344 344 344 347 347 346 345 339 339 340 339 336 336 327 324 321 322 329 331 331 321 320 318 318 318 317 317 317 316 316 316 317 317 318
325 325 326 324 325 322 324 324 326 327 328 336 337 340 341 344 344 345 346 346 345 343 339 339 339 339 337 336 329 326 321 321 323 327 329 326 323 321 319 318 317 316 316 316 316 316 315 316 317
324 325 324 325 327 324 324 323 326 326 327 329 339 339 341 342 344 344 345 345 343 341 338 340 339 338 336 336 334 326 323 322 322 325 331 331 329 328 323 319 317 316 316 316 316 316 316 317 317
324 323 323 324 325 325 327 325 323 326 326 328 333 337 340 342 341 341 343 344 342 342 341 341 340 338 338 337 335 330 329 324 325 328 334 334 333 332 325 321 323 319 318 318 319 319 320 319 317
321 320 323 323 325 325 326 326 325 324 326 327 331 339 341 340 340 340 340 343 343 341 340 340 340 339 339 336 336 335 337 331 334 334 333 334 334 330 326 327 326 324 321 322 324 324 322 322 322
318 319 318 321 323 325 325 326 325 324 325 327 333 336 340 340 340 340 339 339 340 341 341 340 340 340 338 338 337 338 337 337 334 335 336 335 333 330 330 331 329 326 324 325 326 327 328 325 325
319 319 318 319 323 324 323 327 325 324 324 325 327 330 335 339 339 340 340 339 338 338 341 341 341 341 339 339 338 338 337 337 337 336 335 333 333 334 333 332 329 328 326 326 327 329 329 329 328
321 320 320 320 322 322 324 326 325 324 324 324 324 326 327 332 338 340 340 339 340 340 338 339 340 340 341 340 338 337 337 337 337 336 337 335 333 333 333 331 328 332 331 330 329 329 329 329 328
319 322 320 320 320 322 323 323 321 323 324 324 324 324 325 325 327 335 339 340 340 340 340 339 339 339 340 341 339 338 337 337 336 337 337 335 334 332 331 328 330 333 333 332 331 330 330 330 330
319 320 320 319 320 321 324 322 320 320 321 323 324 323 324 325 324 325 331 339 339 339 339 338 338 339 340 341 340 338 337 336 336 336 336 335 335 334 333 333 334 336 335 334 334 333 333 333 333
316 317 318 319 320 320 322 323 321 320 321 321 322 323 323 322 324 324 324 329 338 338 338 339 339 338 339 339 341 338 336 336 336 336 337 336 336 334 334 333 334 335 336 335 335 335 334 333 333
316 315 317 319 322 321 321 321 321 319 319 321 322 322 322 322 322 325 324 324 331 338 339 338 339 337 337 337 336 339 336 336 336 336 335 334 336 335 337 338 336 335 336 335 335 336 334 333 332
316 316 316 319 320 320 319 318 317 318 317 321 321 321 321 321 321 323 324 324 325 328 334 336 336 337 337 337 337 337 336 337 335 334 334 334 333 333 333 333 334 338 338 335 334 334 333 332 331
318 317 318 319 319 319 315 315 313 316 314 314 319 321 321 320 321 321 324 324 324 324 326 332 333 334 335 335 336 335 333 333 333 333 333 332 331 331 327 321 322 322 328 335 336 335 332 332 329
316 316 317 318 317 315 317 316 314 312 313 315 313 317 320 320 320 320 322 323 323 323 325 331 334 335 333 335 333 333 334 333 332 330 330 328 325 322 322 322 320 326 322 318 317 318 321 327 328
315 316 315 315 314 313 315 317 314 312 313 314 314 317 318 320 319 319 320 320 322 320 322 327 332 334 335 332 332 332 331 332 331 328 328 328 324 323 321 322 318 315 314 313 313 313 314 315 317
315 316 316 312 311 312 313 314 315 313 311 312 312 315 317 319 319 320 320 320 321 319 318 321 324 330 332 332 332 332 331 330 329 326 327 327 328 328 320 316 314 312 311 311 311 311 311 311 312
315 314 313 315 315 312 311 313 311 310 312 314 315 316 316 316 318 319 320 321 320 319 318 318 318 319 324 329 329 330 330 328 327 329 329 327 320 315 314 313 312 311 311 311 311 311 311 311 311
313 313 313 314 313 308 311 311 310 310 312 312 314 315 315 315 315 318 320 321 322 320 318 317 317 316 316 317 321 326 328 327 327 324 321 317 314 313 312 312 312 311 311 311 311 311 311 311 312
315 313 314 314 318 315 309 312 311 311 310 311 309 311 313 314 315 317 319 320 320 320 320 319 318 316 315 315 316 317 317 316 315 315 313 313 313 313 312 312 311 311 311 311 311 311 310 310 310
315 315 315 313 311 310 311 309 308 308 309 310 311 313 313 312 312 313 314 317 318 319 318 318 316 315 315 314 314 314 314 313 313 313 313 313 312 312 312 311 311 311 311 310 309 309 308 308 308
314 315 315 310 314 309 308 311 309 307 308 312 313 313 312 312 312 312 312 312 313 316 317 317 317 317 316 319 319 315 312 312 313 312 312 312 312 311 311 310 311 310 310 309 308 308 308 307 307

GFSSGP_850_thetae_096.txt.gz
Theta_e
327 327 323 328 325 320 322 324 323 328 325 325 331 338 343 341 342 339 346 344 341 338 339 336 336 336 339 337 331 321 317 315 340 340 341 342 342 342 341 338 332 324 317 312 313 317 322 325 328
327 326 328 327 322 319 321 320 323 330 324 335 337 339 339 341 341 345 346 343 339 337 339 336 336 338 338 337 333 329 320 314 327 340 340 341 341 340 339 329 316 315 312 312 316 323 323 326 330
324 324 328 323 321 319 317 319 319 326 326 325 336 339 339 342 344 344 345 345 339 335 337 336 337 338 338 337 333 328 329 317 313 319 329 331 330 325 317 314 314 313 312 316 320 324 324 326 332
326 325 327 323 322 319 317 322 321 323 330 330 342 343 342 342 345 346 348 346 337 335 336 338 338 338 337 335 332 325 335 319 314 311 311 312 313 314 314 314 313 313 315 318 321 323 324 324 325
324 327 325 325 321 321 319 323 321 322 324 332 337 342 343 342 344 344 347 345 334 335 339 338 340 339 337 329 323 324 337 324 316 313 312 313 314 314 315 315 315 316 316 318 320 322 323 323 323
325 325 324 325 322 320 320 323 323 321 330 335 340 341 343 343 345 346 343 340 334 337 339 339 341 338 334 323 319 324 334 333 321 316 314 314 315 315 316 316 317 317 318 318 319 320 320 320 323
326 325 321 322 320 322 322 323 321 323 332 335 338 339 343 341 343 345 343 335 335 338 339 340 338 337 330 320 318 323 329 337 329 321 316 315 315 315 316 316 317 318 318 318 318 319 319 318 319
325 324 324 321 321 324 321 325 326 329 329 337 339 341 343 341 339 338 344 338 335 338 339 339 339 337 331 322 319 321 329 334 335 327 319 317 316 315 316 316 317 317 318 318 318 318 319 319 319
325 327 325 325 324 323 323 324 326 329 331 333 340 341 340 341 337 337 344 340 339 338 339 339 339 336 334 325 321 320 326 331 335 326 319 319 318 317 316 316 316 316 316 317 317 317 318 318 318
324 325 325 324 325 323 323 324 327 329 334 338 342 341 342 342 342 341 343 344 344 340 338 339 339 337 334 327 322 320 321 327 328 328 321 321 320 319 319 318 317 317 316 316 316 315 315 316 318
323 325 325 325 327 326 322 323 326 327 327 337 340 342 344 342 341 341 337 342 344 341 338 340 339 337 334 330 324 320 320 322 325 326 324 322 321 321 320 318 317 316 316 316 316 315 315 316 319
324 324 325 324 326 326 326 323 323 325 326 330 339 340 343 343 343 343 342 344 344 340 339 339 339 338 336 333 327 323 319 321 321 323 325 326 327 327 325 320 319 317 318 317 319 319 320 319 318
322 322 321 323 324 325 326 325 325 324 328 332 335 340 341 342 343 343 341 342 343 340 340 340 339 338 334 334 332 328 325 322 321 325 327 329 330 328 325 323 325 325 321 321 323 324 322 322 321
319 319 319 321 323 325 326 325 325 324 330 332 336 339 341 340 341 342 343 343 342 341 341 340 339 337 336 330 332 331 332 331 330 329 330 330 330 330 328 327 327 326 324 324 325 326 327 326 324
318 320 319 320 322 324 324 326 324 323 325 333 332 339 340 340 340 340 341 344 342 341 340 340 340 339 338 338 334 335 333 335 335 333 332 332 332 331 329 330 329 327 326 325 326 327 328 328 328
319 317 319 320 321 322 323 328 324 324 322 325 330 331 338 340 339 339 339 340 342 341 341 340 341 340 339 338 337 337 338 336 336 336 335 335 333 331 331 332 331 329 329 329 328 328 329 329 329
318 319 319 320 320 322 323 324 321 323 322 321 325 327 328 334 339 339 339 339 339 339 339 341 342 341 340 339 338 337 338 337 336 336 336 335 336 334 333 333 332 329 332 331 331 330 330 330 330
318 319 318 319 320 322 324 323 322 320 321 321 322 324 325 326 327 334 337 338 338 338 339 338 338 339 341 341 340 338 337 336 336 336 335 335 335 334 334 333 330 331 333 333 333 333 333 333 333
315 319 320 318 319 321 321 321 322 321 320 319 321 322 323 325 324 324 330 335 337 338 338 340 339 339 339 340 339 339 337 336 336 336 336 334 334 334 333 332 333 335 334 334 334 334 333 333 332
315 316 316 319 319 319 319 318 319 321 320 318 320 322 322 322 324 324 325 331 332 335 337 338 338 337 338 338 338 339 339 337 336 336 335 336 336 335 333 333 335 334 334 334 334 333 333 333 332
314 314 316 320 321 319 319 319 319 319 319 319 320 321 322 322 322 322 323 324 330 329 330 334 336 337 337 337 336 337 338 338 336 335 336 336 334 334 334 333 331 331 332 328 331 332 332 331 331
317 316 316 320 321 322 319 319 313 313 316 316 317 319 321 322 321 321 321 322 324 330 332 331 331 332 334 336 336 335 335 335 336 336 335 334 334 333 333 331 330 330 327 321 323 322 332 331 330
315 316 317 318 316 315 316 317 314 312 313 314 312 317 319 320 320 320 320 321 323 324 329 335 336 336 335 336 335 334 333 334 335 336 335 333 333 333 330 330 326 322 322 325 322 325 326 323 322
314 315 315 317 315 318 314 317 315 313 312 312 312 315 317 319 320 320 320 321 322 323 324 332 333 335 336 336 335 334 332 333 332 333 333 333 332 330 327 322 324 321 321 323 320 315 314 314 314
315 318 318 319 319 319 311 316 316 312 310 310 310 313 316 317 318 320 319 319 320 321 321 322 325 332 332 331 330 331 331 332 332 332 331 330 329 328 325 326 324 321 317 315 313 312 311 311 311
314 315 315 316 316 313 312 315 313 310 312 313 314 315 315 317 317 319 319 319 319 319 320 320 320 324 330 331 330 331 330 330 330 330 330 329 328 327 327 326 318 314 312 313 311 311 311 311 311
313 314 312 312 310 308 310 310 309 309 310 311 312 313 314 315 316 317 318 319 319 319 321 322 319 319 320 325 329 329 330 329 329 329 328 327 325 322 321 316 313 312 312 312 311 311 311 311 311
313 312 316 313 317 316 309 311 311 310 309 309 309 311 313 314 314 317 318 318 319 321 321 319 317 316 316 316 319 322 326 327 327 326 325 324 322 318 313 313 313 312 312 312 311 311 311 310 310
315 314 314 313 312 312 310 308 304 307 307 308 308 311 312 312 313 316 318 319 319 320 319 318 317 316 316 316 315 316 318 319 318 317 317 314 313 312 312 312 312 312 311 311 311 310 309 309 309
313 314 314 313 312 308 307 310 308 308 308 310 311 312 312 312 312 312 313 314 316 318 318 318 317 317 317 315 315 314 314 314 314 313 312 312 312 313 312 313 312 311 311 311 310 309 309 308 308

GFSSGP_850_thetae_099.txt.gz
Theta_e
329 330 328 328 326 319 321 326 323 328 328 326 330 337 338 337 336 336 344 344 340 336 338 337 335 337 339 334 317 315 340 342 343 342 341 342 343 343 339 337 331 317 312 311 314 319 323 323 324
326 328 328 328 323 321 321 319 324 329 326 335 339 340 338 341 342 346 346 343 339 337 337 336 336 338 338 329 317 315 339 340 341 341 343 343 342 340 337 324 317 312 312 315 321 321 323 325 328
325 327 327 323 322 320 317 318 319 327 330 327 336 338 339 344 343 344 345 344 339 337 336 336 337 338 336 323 319 314 329 339 338 339 340 339 338 336 319 315 312 312 315 320 321 321 323 324 326
326 325 326 324 321 318 316 318 319 328 330 329 331 341 342 344 344 342 343 343 337 337 336 337 337 337 336 328 330 317 313 332 339 339 339 337 330 315 314 313 313 315 318 320 320 321 322 322 323
326 324 327 324 320 318 317 321 323 329 330 330 339 342 344 344 343 343 344 341 337 337 336 337 337 336 335 330 336 330 316 312 314 315 315 314 314 314 314 314 315 317 318 319 320 321 322 324 324
326 325 326 326 320 319 318 321 321 327 329 329 336 341 342 343 345 346 346 341 336 336 337 338 337 336 334 328 335 334 320 313 311 312 313 314 314 315 315 316 316 318 318 319 320 321 322 324 323
324 327 324 321 320 319 320 322 320 329 329 330 335 341 343 347 346 346 346 341 336 337 337 340 338 336 329 322 329 337 324 317 314 313 315 315 315 315 316 317 317 318 319 319 319 320 321 322 324
322 325 322 318 320 321 320 324 326 331 329 335 338 341 343 342 344 343 345 338 336 338 338 340 339 336 325 319 325 335 331 322 317 315 315 315 316 316 316 317 318 318 318 319 319 319 319 319 321
321 326 322 321 321 321 321 324 327 329 333 335 338 341 340 338 340 341 339 337 338 339 339 339 338 334 322 319 323 330 335 331 324 317 316 315 316 316 316 317 317 317 318 318 318 318 319 319 319
322 325 323 325 326 321 321 325 329 332 336 338 342 341 341 339 333 336 337 338 339 339 340 339 338 334 324 321 320 327 330 331 323 319 317 317 317 316 316 316 316 316 316 316 316 316 317 318 318
322 324 325 325 327 326 322 324 326 330 331 338 342 342 342 335 332 333 331 339 338 338 340 339 339 335 328 323 320 322 328 330 325 319 319 319 318 318 318 317 317 316 316 316 315 315 315 316 319
319 324 325 325 325 325 326 323 323 325 328 336 341 338 340 335 331 330 331 336 340 337 338 339 339 335 332 324 321 320 323 326 326 323 321 320 320 320 320 319 317 316 316 316 318 318 318 319 319
314 318 322 324 325 325 324 323 322 325 332 334 339 340 341 340 332 333 332 330 332 341 339 339 339 337 333 327 323 320 320 322 323 324 323 323 324 325 324 321 322 323 321 320 321 322 322 322 321
315 320 319 322 323 323 324 324 323 324 335 336 339 340 340 338 339 335 330 330 331 335 340 339 339 338 335 331 326 322 320 321 321 321 324 326 329 329 326 325 326 326 325 323 323 325 326 325 324
318 316 318 319 322 322 323 324 323 322 335 335 334 338 339 338 337 337 337 332 332 330 338 339 339 338 336 332 331 326 325 323 322 322 324 326 327 329 329 328 328 329 327 325 325 326 327 328 328
319 315 317 320 321 320 323 327 323 323 324 328 334 334 336 337 338 339 338 336 336 339 338 337 339 337 337 335 333 331 332 333 332 333 333 332 331 331 330 329 331 331 329 328 328 328 328 328 329
318 319 316 318 320 320 322 325 320 321 322 320 322 331 332 333 336 339 338 337 337 337 338 337 338 339 338 338 338 333 334 334 334 335 335 335 334 334 334 332 332 332 330 330 331 331 330 329 329
318 319 319 318 320 319 319 322 321 321 320 321 320 321 327 331 335 336 338 338 338 339 339 338 337 339 340 338 337 337 338 338 337 336 335 335 334 334 334 334 333 333 330 332 332 332 332 333 332
316 318 319 318 319 320 319 320 321 321 321 319 320 320 321 324 324 330 335 338 337 338 339 337 337 337 339 340 339 338 338 337 337 336 335 335 334 334 333 334 333 331 330 332 332 333 333 332 331
314 317 316 317 319 319 321 321 319 319 320 320 319 320 319 322 324 324 327 331 332 336 338 338 338 337 337 337 338 340 338 338 337 336 335 335 335 334 334 333 331 332 332 332 332 332 332 331 331
314 314 314 318 319 319 319 320 319 318 320 320 320 320 319 319 323 323 324 324 327 330 334 335 337 338 338 338 338 338 338 338 338 337 336 335 334 334 335 333 332 331 333 330 329 329 323 321 323
316 314 314 320 320 320 317 320 313 318 319 319 319 319 319 319 322 322 322 322 323 324 324 327 332 332 334 337 337 337 337 337 336 336 335 335 336 335 334 333 332 331 327 328 329 322 322 323 324
315 315 316 319 316 315 320 316 315 312 316 316 317 317 318 318 321 322 322 321 321 322 323 327 328 327 332 332 334 334 336 335 334 333 334 333 334 334 334 333 333 330 330 329 325 324 324 322 319
313 313 314 316 316 320 314 317 315 313 313 312 313 316 318 319 319 320 321 320 320 320 322 325 330 332 331 331 331 332 333 333 333 333 333 333 333 334 333 332 332 330 325 323 323 321 322 320 316
314 313 319 318 320 315 311 317 315 313 310 309 310 314 315 317 318 318 319 320 319 320 321 323 326 330 333 332 333 333 333 331 332 332 332 331 331 331 331 331 329 323 324 323 321 318 314 312 311
313 315 313 316 316 316 312 318 314 311 310 312 313 313 314 315 315 317 318 318 320 319 320 322 322 322 325 327 328 328 328 329 331 331 331 330 330 330 329 328 325 325 325 322 315 312 311 311 311
313 311 312 315 309 307 313 309 308 308 308 310 310 312 313 314 314 315 317 317 319 319 319 319 319 320 321 322 325 328 329 329 329 330 330 329 329 329 327 327 325 324 319 318 313 312 312 311 311
312 311 314 313 317 316 310 309 310 310 309 309 309 311 312 314 315 316 317 317 318 319 319 319 319 318 319 320 321 321 325 328 329 329 330 329 328 327 325 323 321 320 315 312 312 312 311 311 310
314 312 313 312 314 311 311 308 305 307 307 308 308 311 311 312 313 315 317 317 316 317 318 319 320 318 317 317 316 316 316 319 324 326 327 327 325 323 320 315 313 313 313 313 312 312 311 310 310
313 315 314 315 313 306 303 308 306 305 306 307 308 311 311 312 312 313 315 318 318 318 319 319 319 317 317 315 316 315 315 316 318 320 320 318 316 313 312 312 314 315 314 315 316 315 311 310 310

GFSSGP_850_thetae_102.txt.gz
Theta_e
327 329 327 326 328 322 324 324 325 328 329 327 327 334 333 333 333 333 342 341 337 338 339 338 334 333 333 319 317 341 342 340 331 335 336 337 340 341 337 334 322 313 311 313 317 320 320 323 327
326 327 326 326 328 324 323 319 326 327 327 328 331 339 338 338 342 343 343 341 336 337 339 336 338 336 334 317 318 341 342 342 339 337 338 341 342 339 334 323 314 311 314 318 319 321 323 322 324
324 327 326 326 326 326 319 318 321 327 332 332 338 338 340 341 343 343 343 341 336 337 337 336 337 337 332 315 318 340 342 342 343 342 343 343 340 335 318 314 311 314 319 318 319 320 322 323 322
323 326 326 327 326 321 315 316 319 328 329 330 339 340 342 343 344 343 343 341 336 337 335 338 337 336 328 316 317 336 340 341 342 342 338 336 333 316 314 312 314 318 319 319 319 320 321 322 322
319 325 327 326 324 321 313 318 320 326 330 331 334 340 343 343 343 344 342 339 337 336 336 338 337 335 322 319 314 330 337 338 338 338 337 332 317 313 312 314 316 320 320 320 321 321 321 323 323
321 322 321 325 323 317 314 319 326 327 330 330 330 337 342 343 343 343 342 339 338 335 337 338 337 333 325 330 318 314 330 336 336 331 321 314 314 313 314 316 318 319 321 321 323 323 323 323 323
320 324 316 322 322 318 315 320 326 328 329 328 328 338 343 344 345 343 342 339 338 336 338 338 336 333 329 337 329 315 312 312 312 313 314 314 315 315 316 317 318 319 320 322 322 322 323 323 323
317 324 322 320 319 319 318 321 327 329 328 329 329 335 342 345 345 344 341 338 338 336 338 338 336 334 330 337 335 320 314 312 313 314 315 315 316 316 317 317 318 319 319 320 321 321 321 321 320
315 318 324 322 321 319 320 323 328 328 330 334 328 328 337 344 345 345 341 339 337 338 338 339 336 334 326 328 337 327 319 314 314 315 315 315 316 317 317 318 318 318 318 319 319 319 319 319 319
314 321 321 321 321 320 320 324 330 333 336 336 337 335 337 341 341 342 341 338 338 338 339 340 338 334 323 322 335 336 328 320 316 315 315 315 316 316 317 317 318 318 318 318 318 318 318 318 318
313 321 320 322 325 326 321 324 326 333 334 336 336 341 338 337 335 333 337 336 338 338 339 339 337 334 322 320 328 334 336 327 320 317 316 316 316 316 316 316 316 316 316 315 315 315 315 316 318
315 313 313 325 325 325 323 323 323 326 329 336 334 338 341 339 334 328 330 336 333 338 339 339 338 334 324 321 322 329 334 329 323 319 318 318 317 318 318 317 317 316 316 316 316 316 315 317 319
312 311 316 321 324 324 324 322 325 326 334 338 336 337 338 337 333 328 333 336 334 333 339 338 337 335 332 325 321 323 329 330 326 321 320 320 319 319 320 319 318 317 318 318 319 320 321 321 320
311 313 314 319 322 322 323 322 324 328 335 337 336 335 334 333 336 335 335 332 328 333 338 339 338 337 333 327 324 321 322 327 328 326 323 322 322 323 324 321 322 324 323 321 322 324 324 323 323
313 314 311 319 321 321 321 324 323 321 332 336 336 338 337 334 332 332 331 329 328 326 336 337 336 338 336 332 327 324 321 321 324 325 325 325 328 329 328 325 325 327 327 324 323 324 325 326 327
315 310 313 315 320 320 322 326 319 321 326 326 333 334 335 335 333 332 331 331 328 328 328 331 338 337 337 335 332 328 325 321 322 322 325 328 329 330 330 328 329 329 329 327 326 326 327 327 328
317 317 314 314 318 320 320 323 319 320 320 319 322 330 333 335 335 335 332 330 330 329 328 328 332 337 338 336 334 333 331 328 326 327 330 332 332 332 331 331 331 332 331 329 329 329 329 329 329
320 318 317 315 318 319 318 318 317 317 319 319 320 320 328 333 334 335 336 335 331 329 328 329 332 335 338 337 335 334 334 334 334 335 335 335 335 333 333 334 333 333 333 330 330 330 331 331 332
316 318 318 317 318 316 317 317 318 317 317 317 319 320 320 328 331 332 334 335 335 335 333 332 332 328 330 336 336 335 330 336 337 337 336 335 335 334 334 333 333 333 332 330 330 330 330 332 332
315 317 317 318 319 318 318 317 319 317 317 317 318 320 320 320 324 328 332 333 335 334 335 335 335 335 333 333 329 332 331 335 337 336 336 335 335 334 334 334 334 332 330 329 331 331 332 331 331
313 314 314 319 320 318 318 319 319 317 317 317 318 319 320 320 320 323 325 331 333 335 335 335 335 335 335 334 333 331 334 336 337 337 337 336 335 335 334 334 334 332 330 332 333 333 329 328 326
315 313 314 319 319 319 317 318 317 318 318 317 318 318 320 320 320 321 323 324 327 328 330 333 334 335 337 335 334 334 334 334 334 336 334 335 335 336 335 335 334 334 332 329 330 328 328 326 324
314 314 314 318 316 318 319 317 315 316 319 318 316 317 319 319 320 319 322 322 322 323 324 328 333 333 334 335 333 333 333 335 336 334 334 335 336 335 334 333 333 332 332 331 328 328 329 323 323
312 314 314 314 315 318 315 317 315 313 315 316 316 316 317 318 319 319 320 322 322 322 321 322 325 330 331 329 330 332 332 334 333 333 333 333 333 334 334 333 333 333 332 332 329 326 324 323 322
314 314 317 319 320 315 310 317 317 313 311 310 311 314 316 318 319 318 318 319 321 320 319 320 321 323 329 331 332 332 331 330 330 332 332 332 332 331 332 332 332 331 331 326 324 323 321 316 312
313 312 310 315 315 312 312 317 315 311 310 310 311 312 313 314 315 314 316 318 319 320 319 319 320 322 323 325 327 329 328 330 330 331 330 330 330 330 330 330 330 330 325 324 325 318 313 312 311
313 311 311 309 308 305 311 310 307 308 308 308 309 311 313 313 314 314 315 316 317 318 319 319 320 322 323 322 322 324 324 326 327 327 328 328 330 329 329 329 328 326 324 324 322 319 316 313 312
313 310 315 316 317 316 310 308 309 309 309 309 309 309 311 312 315 315 315 315 317 317 318 319 319 320 320 319 320 321 322 324 326 327 328 329 329 330 329 328 327 326 324 322 319 314 313 312 312
314 316 313 312 312 311 311 308 304 307 306 307 307 310 310 311 313 315 316 316 316 317 318 318 319 319 319 319 319 319 318 318 317 318 323 327 328 328 328 326 323 320 315 313 313 314 312 314 314
313 314 313 314 313 305 303 308 305 305 305 306 307 310 311 311 312 313 315 317 317 316 316 317 318 319 319 318 317 316 316 316 316 319 323 325 326 325 322 319 313 312 314 316 315 315 314 312 311

GFSSGP_850_thetae_105.txt.gz
Theta_e
321 327 329 327 329 328 329 329 326 329 330 327 327 333 334 333 334 335 338 340 338 338 342 340 334 331 329 319 323 334 329 319 332 334 335 337 337 338 336 328 315 320 320 327 326 324 328 329 325
319 322 326 326 328 329 328 326 327 328 329 327 330 336 337 337 337 341 341 341 338 339 341 338 333 331 323 317 337 338 337 331 335 335 338 339 340 337 330 316 311 315 318 322 320 321 325 325 323
319 322 326 326 327 328 326 322 323 326 328 328 333 336 337 340 341 341 342 341 337 339 341 336 334 333 319 321 341 342 339 333 336 338 340 341 338 332 320 312 313 318 319 321 323 322 322 322 319
319 321 324 328 327 325 324 319 321 329 330 334 335 339 341 342 342 341 341 339 338 339 338 338 336 335 318 320 341 342 341 339 339 340 342 341 335 317 313 312 317 318 320 321 323 322 321 320 320
317 321 324 325 325 324 323 316 322 329 331 333 334 335 342 342 342 342 341 338 338 339 338 338 337 333 316 317 341 342 342 342 343 341 337 332 317 313 312 315 319 319 320 321 322 322 322 322 321
317 320 324 322 323 323 320 319 321 330 331 332 332 331 338 342 342 340 341 338 338 338 338 337 336 329 316 316 332 340 340 341 339 334 331 320 313 313 315 317 319 319 320 321 321 323 323 323 321
317 320 318 317 324 323 322 319 321 327 331 331 331 333 337 343 343 341 341 338 338 337 338 338 336 326 320 314 326 335 337 336 336 334 322 314 313 315 316 318 319 319 320 320 321 322 322 322 321
316 319 321 315 323 324 319 318 320 325 328 330 330 332 333 343 342 343 341 339 337 337 338 338 335 328 329 322 314 327 335 335 332 320 314 314 314 316 317 318 319 319 320 320 320 320 320 320 320
316 319 317 320 321 322 317 320 323 328 329 330 329 329 330 341 344 342 343 339 337 337 338 337 334 330 335 331 322 313 313 313 313 314 314 314 315 316 317 318 319 319 320 320 320 319 319 319 319
315 319 317 319 320 322 323 322 328 331 334 330 329 329 329 332 342 341 340 339 337 337 338 337 335 332 332 334 330 318 312 312 314 314 315 315 316 317 317 318 318 319 319 319 319 318 318 318 318
315 318 315 316 320 320 323 323 327 331 334 330 330 327 330 331 343 341 340 338 339 338 338 338 335 333 326 337 333 325 318 314 314 315 315 315 316 317 318 318 318 318 318 318 317 317 317 317 317
315 314 313 314 314 323 322 322 325 330 330 330 328 326 328 331 333 330 339 338 338 338 338 339 336 332 322 326 334 333 325 319 315 314 315 315 316 316 317 316 316 316 316 315 315 315 315 315 318
314 313 314 313 316 323 323 321 324 325 332 334 330 328 336 334 327 327 328 336 337 337 339 339 337 334 323 319 327 334 333 327 320 317 316 315 316 316 317 317 317 316 316 316 317 317 317 319 319
311 312 312 313 315 316 323 322 322 324 329 336 333 332 333 332 332 330 330 328 337 338 338 338 338 336 329 322 320 327 331 334 329 321 320 319 319 319 319 319 319 318 319 320 320 321 322 322 322
312 314 313 314 312 317 321 325 321 319 329 335 333 332 332 333 330 328 330 329 335 338 338 338 337 337 334 327 322 320 325 329 332 327 324 323 322 323 326 324 323 325 325 323 322 324 325 326 326
313 313 315 314 312 312 321 326 320 319 322 326 332 332 332 332 328 332 332 336 334 333 334 337 335 336 337 334 327 323 321 322 328 329 329 327 326 328 330 328 327 327 327 326 324 324 326 327 327
316 317 315 315 312 314 321 324 318 317 319 319 323 329 331 331 330 332 332 333 332 334 332 331 329 335 336 337 334 329 327 323 321 324 326 325 329 330 330 329 329 330 330 329 327 326 327 327 328
319 318 316 315 313 315 318 319 316 317 318 317 318 321 331 332 332 333 332 332 329 328 328 327 327 331 337 335 335 334 333 330 324 323 323 326 329 331 332 332 333 332 332 331 329 329 329 330 331
316 317 316 315 313 316 316 317 317 316 317 318 318 318 320 330 332 333 331 331 330 328 328 329 327 326 328 332 334 333 334 333 332 331 330 333 334 334 333 333 333 333 333 332 331 330 331 331 331
316 318 318 317 316 316 316 316 316 317 316 317 318 319 319 321 330 331 331 334 330 329 328 328 328 328 328 329 332 333 333 333 334 334 334 332 333 334 334 333 334 333 332 331 332 331 332 332 331
313 316 316 318 318 318 317 318 318 317 316 317 319 321 320 319 319 325 331 331 333 332 331 328 330 330 328 328 327 328 327 331 334 330 334 333 334 335 334 334 333 333 334 332 331 330 331 330 328
315 312 314 320 320 320 317 319 317 316 317 316 318 321 321 321 320 320 321 330 331 331 333 333 334 333 330 329 330 329 328 327 329 330 327 333 333 333 334 334 334 334 334 334 331 330 330 328 327
314 314 316 318 316 318 319 319 317 314 317 316 316 319 322 322 321 320 320 322 326 330 330 332 333 333 332 327 333 334 331 330 331 328 330 332 332 334 334 335 335 335 333 332 332 329 328 325 325
312 313 314 314 316 319 316 317 316 317 317 316 315 317 319 322 321 320 320 320 322 323 325 329 331 331 332 332 332 333 332 332 332 330 330 332 332 333 334 334 333 332 332 331 332 331 328 324 325
313 313 316 320 320 317 310 317 316 313 312 312 313 314 316 317 318 318 319 320 321 321 321 322 322 324 328 329 331 330 331 331 331 330 330 331 332 331 332 331 332 331 331 331 331 330 325 324 322
313 312 312 315 316 314 312 318 317 312 312 312 313 312 311 313 316 317 319 319 320 322 321 321 319 319 321 324 328 330 330 329 330 330 330 330 330 330 330 330 330 330 331 331 329 325 324 322 314
312 315 311 309 306 310 312 311 308 308 308 308 308 309 311 311 313 315 316 318 319 320 321 320 319 319 320 322 325 326 326 327 325 326 326 327 327 327 330 329 329 329 328 324 324 324 317 314 313
313 311 317 316 315 315 310 309 312 309 308 307 309 309 310 311 314 314 314 315 315 318 319 319 319 319 320 322 322 322 323 324 324 324 325 326 327 327 328 329 329 328 325 324 323 321 320 315 312
314 315 313 313 314 314 311 310 304 307 306 306 305 309 310 311 314 316 315 314 313 315 317 318 318 319 319 320 319 319 320 321 322 322 322 323 326 329 329 329 328 327 326 324 320 315 313 313 313
311 312 312 315 314 306 307 310 305 304 306 306 306 309 310 310 312 315 316 316 315 315 316 316 318 319 319 318 319 319 319 318 317 317 318 321 325 326 327 327 326 323 319 312 312 314 315 315 315

GFSSGP_850_thetae_108.txt.gz
Theta_e
318 322 324 328 333 330 331 331 332 334 336 334 332 336 338 338 340 345 337 343 343 345 345 342 337 332 329 325 319 324 319 330 327 330 337 338 340 338 334 328 335 334 330 332 336 333 325 321 319
317 320 323 326 331 332 331 328 331 332 333 333 331 336 337 338 339 342 341 344 345 347 344 342 335 331 329 320 326 323 321 334 332 334 338 340 338 337 328 322 328 322 333 332 331 329 325 321 319
317 318 322 326 328 330 329 327 329 329 331 332 333 335 336 338 343 343 345 344 346 346 344 341 333 331 324 320 334 323 324 335 334 336 339 340 338 331 315 313 317 333 324 321 324 325 323 320 316
315 317 320 325 327 327 325 326 327 328 329 331 333 336 341 344 344 344 343 345 346 346 344 336 332 329 318 336 338 336 337 335 336 338 339 341 335 320 312 315 318 320 322 321 322 323 320 319 316
315 316 318 324 323 325 324 324 325 327 330 330 332 338 340 343 344 346 343 345 346 345 344 334 334 324 320 341 342 338 334 336 338 340 342 338 325 314 313 318 319 320 321 321 320 320 321 320 317
314 315 319 321 324 322 323 324 324 325 328 333 335 336 338 342 343 343 342 344 345 345 341 337 336 322 325 341 341 341 338 338 340 342 341 331 315 312 316 318 318 319 320 320 321 321 320 320 321
314 317 319 318 320 321 323 324 322 324 327 331 333 336 335 340 342 342 343 345 344 344 341 339 336 320 324 341 341 342 341 342 342 336 329 316 313 314 318 318 319 319 320 321 321 321 321 321 320
314 316 318 317 321 322 322 321 323 322 327 329 333 336 336 334 341 342 343 343 343 343 341 338 335 321 323 339 341 342 342 341 335 331 321 313 313 315 318 319 319 320 320 321 321 322 322 321 321
315 316 318 319 319 321 320 322 322 322 329 332 332 332 334 333 336 342 342 340 341 341 340 339 335 333 328 332 337 338 338 337 334 326 315 313 314 316 319 320 320 320 321 321 321 321 321 320 320
315 316 317 317 318 319 320 321 322 322 327 332 332 333 334 331 334 342 342 340 340 339 340 340 335 335 333 324 325 335 337 336 333 320 314 322 326 328 331 320 320 321 321 321 320 320 319 319 319
314 316 317 316 316 318 319 319 322 323 326 330 332 333 333 334 334 341 340 340 341 340 339 338 336 337 334 331 327 325 325 330 331 330 328 329 330 319 320 320 321 321 321 321 320 319 319 319 319
315 316 316 315 317 315 319 318 322 323 326 329 330 332 333 332 330 327 333 339 338 339 338 337 336 336 337 332 330 325 325 324 328 328 326 324 323 319 323 321 320 319 319 319 318 318 317 317 317
317 316 315 315 316 315 317 322 322 324 328 328 331 333 333 330 329 326 324 324 337 339 338 337 335 334 336 334 332 323 328 322 317 316 315 316 317 318 318 318 318 317 316 316 315 315 315 315 320
315 315 315 314 313 315 317 321 322 323 324 325 333 333 332 331 329 326 326 323 327 337 337 338 336 332 324 336 334 328 325 321 314 315 315 315 316 316 316 316 316 316 316 316 318 319 320 321 321
315 317 316 315 314 314 313 322 324 322 322 325 332 333 334 329 326 326 326 326 327 338 338 339 337 333 323 320 330 332 326 322 318 317 316 316 316 317 318 318 319 317 318 320 320 322 323 323 323
316 316 319 316 314 313 314 323 324 321 323 328 330 333 335 333 330 328 329 327 333 337 338 338 338 335 328 323 320 323 330 330 326 323 322 322 321 321 323 326 323 325 326 324 323 324 325 328 328
316 318 318 315 315 315 315 322 322 320 324 327 330 333 332 332 331 330 329 329 329 335 337 339 339 337 334 331 325 322 321 327 330 331 329 327 326 325 328 329 327 327 327 328 326 325 328 329 329
318 317 316 317 315 316 316 318 321 320 322 324 326 329 331 332 330 329 330 330 329 332 336 338 338 337 338 336 334 330 327 324 323 325 331 330 329 327 330 330 330 329 330 330 330 328 327 330 332
318 318 316 317 315 316 316 316 318 319 323 323 323 325 329 331 331 330 332 332 332 329 329 333 330 332 335 336 336 335 333 331 328 323 323 325 326 329 330 331 331 332 332 332 332 331 330 330 331
319 319 320 318 316 317 317 317 318 318 322 322 321 321 325 329 330 329 331 332 331 331 330 329 329 328 329 330 332 335 335 335 333 332 327 326 327 331 333 333 333 333 333 332 332 332 330 331 330
319 319 319 319 318 317 319 320 319 319 320 321 320 320 320 325 330 330 333 331 329 330 329 328 328 328 327 327 329 331 332 332 333 333 334 334 333 333 334 334 334 334 333 333 333 333 331 330 330
317 316 318 319 320 322 318 323 321 318 322 322 323 321 320 320 323 329 332 331 325 326 329 329 328 328 328 327 326 327 328 327 328 328 331 331 329 332 332 331 332 333 333 334 334 333 331 330 329
316 316 317 319 319 318 319 320 322 319 319 321 324 323 322 321 320 323 328 331 331 329 326 329 330 328 328 327 326 327 327 327 328 328 328 328 329 327 327 327 330 331 334 334 333 332 331 329 328
315 318 319 319 319 320 317 319 317 321 322 321 321 321 322 322 321 320 321 323 328 330 330 331 332 329 331 331 330 326 326 326 328 327 327 327 327 326 328 327 330 332 332 333 332 332 331 330 325
316 318 320 319 321 318 314 319 317 316 317 317 317 319 318 320 320 319 319 319 319 322 329 331 330 332 331 331 332 329 328 330 328 329 327 327 329 329 330 330 331 330 331 332 332 331 332 330 329
315 316 318 316 317 317 315 319 317 316 315 316 314 315 314 314 318 320 319 318 319 320 322 324 327 330 331 331 332 331 331 331 331 331 330 330 329 330 330 330 330 330 331 330 329 331 331 327 325
316 317 314 316 312 317 317 316 314 312 313 313 313 311 312 312 317 320 319 317 318 319 321 321 321 320 321 327 329 329 329 329 329 329 329 330 330 329 329 329 329 329 329 331 330 330 328 324 323
313 313 318 319 319 316 314 313 314 313 312 311 313 312 312 312 314 319 320 317 318 319 319 320 321 319 319 320 322 327 329 329 330 329 328 328 328 328 328 329 329 329 329 330 328 324 324 319 314
312 313 314 314 317 316 314 314 309 311 311 312 311 311 312 313 315 315 314 314 314 317 315 318 319 319 319 319 321 323 324 325 326 325 325 326 327 327 328 329 329 329 329 325 324 322 319 318 314
310 311 312 316 316 314 313 313 309 311 311 309 310 310 310 311 313 315 315 314 313 313 313 316 318 318 319 320 321 320 319 320 321 322 322 323 324 325 327 327 328 328 326 324 322 320 314 312 313

GFSSGP_850_thetae_111.txt.gz
Theta_e
318 320 321 323 330 332 333 331 329 331 332 334 336 338 340 339 340 346 344 345 344 347 345 343 339 333 327 327 324 322 326 332 336 335 333 338 339 336 330 335 334 326 334 335 328 330 331 326 323
317 320 319 323 329 330 333 330 329 329 329 332 335 336 338 339 342 342 344 344 345 348 345 344 339 332 328 326 321 318 328 330 334 334 336 340 338 334 334 337 333 322 336 335 329 319 317 316 315
314 317 319 322 324 330 331 326 328 328 329 331 335 335 337 338 340 344 345 344 345 346 346 343 337 331 328 324 320 322 331 331 331 334 338 341 338 332 333 332 328 322 333 331 324 320 318 316 315
314 316 317 323 322 324 327 326 327 328 328 332 335 335 337 345 343 344 344 344 346 345 345 342 335 330 327 319 331 323 332 334 333 338 340 339 337 325 334 326 332 322 324 323 321 319 317 316 316
313 315 317 318 321 321 322 324 324 327 328 331 334 336 337 343 345 346 344 345 345 345 344 339 333 330 322 324 328 321 335 336 337 338 339 339 330 315 320 323 320 320 320 321 320 318 317 317 318
313 313 316 319 316 319 320 322 324 324 328 328 333 336 339 344 345 345 345 345 344 346 343 336 332 326 320 336 334 333 335 335 337 340 341 336 319 312 317 319 320 321 321 320 320 320 319 318 320
314 314 315 314 315 315 318 319 324 324 326 329 330 334 340 344 346 345 346 344 344 344 343 337 332 320 336 341 340 336 336 338 339 341 341 327 314 314 318 319 329 323 321 320 321 321 320 321 321
312 315 313 314 316 316 317 319 321 322 325 326 329 333 340 343 346 343 342 344 343 343 342 340 333 330 339 342 341 336 337 339 342 342 337 317 312 316 318 320 330 323 323 323 322 322 321 321 320
312 314 315 314 315 317 317 321 321 323 324 324 324 332 334 342 345 343 341 343 343 343 340 338 333 336 339 341 341 340 339 342 341 337 325 314 313 317 320 325 336 331 324 323 323 322 321 320 321
313 315 314 313 316 319 318 318 319 321 323 324 327 331 336 343 343 343 341 341 342 342 341 338 331 332 338 339 340 341 341 341 337 331 318 324 322 328 331 323 329 333 324 323 322 322 321 320 321
312 315 314 316 316 317 317 317 317 322 325 324 325 334 338 342 342 340 340 341 341 341 340 337 333 328 335 338 341 342 341 339 335 330 324 330 332 330 334 322 326 327 324 323 321 320 319 324 327
314 314 315 317 317 317 316 316 319 321 322 323 321 326 338 341 341 341 338 336 334 341 340 336 334 332 331 332 337 337 337 337 333 331 329 331 333 332 333 324 325 324 323 328 323 321 326 322 324
316 316 316 317 316 316 316 315 315 320 322 322 324 328 336 340 337 337 336 331 326 325 340 337 334 335 333 330 330 331 333 332 332 331 331 331 332 332 332 331 331 330 326 329 328 327 325 322 325
316 316 317 316 316 316 316 316 317 321 322 324 326 328 335 335 333 333 333 331 327 324 327 337 334 337 336 333 332 330 328 329 331 331 330 331 330 331 330 330 329 327 324 325 324 323 323 324 327
316 317 318 317 315 316 316 319 321 321 323 324 325 331 334 334 333 330 327 326 324 323 325 338 336 333 336 334 333 332 329 328 327 328 328 328 327 327 323 323 322 322 317 322 326 327 328 328 328
316 318 321 318 316 316 317 320 320 322 323 324 326 331 333 334 331 329 329 324 326 325 327 338 335 334 334 338 334 333 334 332 330 326 323 321 321 319 318 319 318 320 318 323 324 326 327 330 330
316 319 320 318 317 317 317 318 319 319 323 324 327 329 331 333 330 328 327 326 326 326 327 337 336 335 330 332 336 334 336 334 331 329 327 318 317 317 319 327 328 329 326 326 327 329 329 330 331
320 318 317 317 318 316 317 320 318 317 323 325 328 328 332 333 330 328 329 329 328 328 332 336 336 336 333 330 330 332 335 334 330 323 322 323 326 324 324 334 335 334 331 332 331 330 329 331 332
318 319 318 316 317 317 319 320 319 318 324 326 329 332 332 331 332 330 330 329 330 333 335 338 338 336 335 332 329 327 326 329 334 334 334 335 336 332 332 334 335 334 334 334 334 333 331 331 332
319 319 319 319 317 317 320 321 321 319 324 326 328 331 332 331 331 330 330 329 328 328 329 337 336 335 337 336 333 329 330 329 328 329 330 332 334 333 334 338 336 335 334 334 334 333 332 332 331
319 320 319 319 319 318 320 323 323 320 324 324 325 328 331 331 330 330 330 330 329 328 328 329 329 335 336 336 337 336 335 335 334 334 331 326 326 326 331 334 334 334 334 334 334 333 332 331 330
318 317 318 319 320 321 319 327 325 322 325 325 324 324 326 328 329 325 324 330 330 326 326 327 324 329 329 333 332 332 334 333 331 332 332 332 332 332 332 332 333 334 333 333 332 332 333 332 329
317 317 318 318 319 319 319 320 325 324 325 326 325 324 323 325 330 329 326 331 330 325 323 325 325 328 329 329 328 330 328 329 328 327 328 329 330 330 328 328 331 331 330 330 331 332 332 332 327
316 317 317 318 318 321 318 318 323 324 325 325 325 324 323 322 323 326 330 332 330 328 323 328 325 328 328 328 328 328 327 326 325 326 326 327 327 327 327 327 327 327 326 326 328 330 331 332 330
316 317 320 320 322 319 317 318 318 318 319 323 324 324 324 323 322 321 323 326 331 329 327 327 326 324 328 326 326 326 327 325 325 325 326 325 323 325 326 326 327 327 326 327 330 330 330 330 331
315 316 319 321 319 317 317 318 319 316 316 317 317 319 319 321 322 321 320 321 324 327 327 328 327 326 327 329 327 326 326 326 327 326 324 323 325 326 324 326 329 327 328 329 330 330 331 330 332
315 317 315 317 315 315 316 316 314 314 315 316 316 315 315 315 316 321 320 319 319 319 325 329 327 329 329 329 330 330 330 329 328 329 327 326 326 325 327 328 329 330 330 330 330 329 328 332 331
313 313 317 317 318 315 315 314 314 314 314 314 314 314 314 314 316 318 316 317 319 319 320 321 323 327 329 329 330 329 330 329 330 329 331 330 330 330 329 329 329 330 330 330 329 331 331 328 327
311 312 313 313 316 320 317 313 312 314 313 313 313 313 314 316 316 316 315 316 316 317 318 319 320 321 322 323 323 328 327 329 329 329 328 329 328 328 328 328 329 329 329 328 330 329 328 326 324
310 310 311 314 317 316 316 315 313 313 312 312 313 313 313 313 314 315 315 314 314 314 317 316 318 320 320 321 320 322 325 327 329 328 328 329 328 327 327 328 328 328 328 329 330 326 323 320 318

GFSSGP_850_thetae_114.txt.gz
Theta_e
316 319 321 323 330 332 330 329 327 328 327 331 332 334 335 337 339 342 346 346 345 343 341 337 333 326 325 326 330 334 336 337 337 336 337 339 337 334 336 336 328 328 329 321 331 333 328 323 326
316 318 319 322 327 329 326 325 327 327 327 327 332 332 333 336 340 343 347 345 344 345 340 339 336 329 325 325 325 325 332 336 336 337 336 339 336 333 334 334 326 337 329 321 328 323 319 317 319
313 318 318 321 322 324 324 323 324 326 326 327 328 332 333 338 342 344 345 344 345 346 343 341 337 331 326 326 324 326 325 332 335 335 338 339 335 336 335 332 331 337 328 319 317 316 315 315 315
314 315 317 319 321 320 321 322 322 323 326 327 327 331 334 343 344 343 344 345 346 347 343 342 338 331 327 325 321 330 329 328 334 335 339 339 335 337 334 329 331 336 327 320 318 316 316 316 316
312 314 316 318 319 318 318 319 320 322 324 324 327 331 338 344 344 345 344 345 346 347 343 342 337 331 327 323 321 328 331 326 332 336 340 338 334 329 322 322 326 331 324 320 317 316 316 317 318
312 312 314 315 314 314 316 317 318 319 320 323 324 334 335 343 344 344 345 346 347 345 343 342 334 330 327 319 329 329 331 332 333 339 340 338 329 322 319 319 320 322 323 320 318 317 317 319 319
313 314 313 313 313 313 312 315 318 319 318 321 324 325 339 343 342 342 346 347 346 344 343 340 333 330 323 330 320 331 335 334 337 339 339 336 318 320 321 318 319 323 332 320 320 319 319 320 320
312 313 314 314 312 312 312 313 316 317 318 320 321 327 334 341 345 341 345 344 345 343 343 337 332 326 330 336 320 333 337 337 338 340 340 327 314 319 319 332 322 325 332 322 321 320 320 320 321
313 314 314 313 313 313 311 317 316 316 318 320 323 325 327 334 342 343 344 345 345 344 343 335 330 329 336 338 334 336 335 338 340 341 340 317 315 323 321 335 329 322 322 322 322 321 320 320 320
313 313 313 312 312 313 315 317 317 317 317 317 321 323 325 328 338 343 344 345 345 343 342 335 332 333 340 341 339 336 338 339 341 340 334 314 315 320 324 336 330 324 323 323 323 322 321 320 320
312 313 313 313 313 314 317 316 316 318 318 317 320 323 326 331 336 344 343 344 344 343 341 336 335 335 340 341 340 337 339 341 340 340 320 318 317 327 331 335 334 329 323 322 322 321 320 322 325
313 313 313 314 315 316 316 316 314 315 316 317 318 321 324 329 329 341 342 343 342 341 339 334 334 338 338 340 340 339 339 339 335 326 322 331 328 328 329 325 331 325 322 322 321 320 320 322 326
315 314 314 315 315 317 316 315 315 314 315 317 319 321 323 323 325 341 342 341 339 337 336 335 329 336 337 338 339 340 340 338 333 322 330 330 332 330 329 323 323 322 324 324 322 324 327 321 322
315 316 315 316 316 316 316 315 316 315 316 319 320 322 323 324 324 338 338 336 334 333 333 329 331 332 334 335 338 339 337 336 332 327 331 331 333 332 330 323 325 326 326 330 327 323 323 321 325
315 317 317 317 317 317 316 317 315 315 319 322 322 325 325 324 323 335 338 335 335 334 333 332 330 331 329 330 333 335 335 332 332 329 331 331 331 331 329 330 329 327 324 323 322 323 325 325 327
315 315 318 317 318 317 316 317 316 320 320 322 323 324 325 324 327 328 332 331 330 331 331 330 331 334 331 330 330 329 331 331 332 330 330 330 328 328 327 327 323 321 319 321 323 326 327 327 327
316 318 318 318 318 318 317 318 318 320 322 323 324 325 326 327 331 330 327 326 326 326 327 328 333 333 333 332 330 330 328 328 330 330 328 328 326 325 322 321 320 321 320 321 324 324 325 328 330
321 321 318 319 319 318 318 318 316 319 322 323 323 325 329 331 331 329 327 327 326 325 327 331 331 334 334 332 331 332 331 329 327 325 323 323 321 319 319 325 328 329 327 328 327 329 328 330 331
317 317 318 316 317 318 318 317 318 320 319 321 322 325 330 329 330 328 327 329 326 326 326 327 329 333 333 333 332 330 332 330 330 329 329 321 320 320 324 332 334 334 331 331 332 331 331 329 331
317 318 319 319 317 316 317 318 319 320 319 323 325 327 330 330 330 328 328 329 329 329 328 328 330 331 329 330 333 333 333 333 332 329 329 329 328 327 325 331 333 334 333 333 334 334 332 331 330
317 319 319 319 319 317 318 320 319 320 320 322 326 328 329 329 330 330 330 330 330 330 330 330 333 331 329 327 327 330 335 335 335 336 336 334 333 333 333 331 333 333 334 333 334 333 333 332 331
317 317 317 317 318 322 319 318 323 322 320 323 324 329 331 330 330 329 326 329 329 329 328 328 329 333 332 331 328 328 327 328 329 326 326 326 327 327 329 332 333 332 332 331 332 332 332 332 331
316 315 316 317 317 317 318 317 324 322 323 323 322 326 329 330 330 329 325 323 323 324 327 327 325 327 330 331 329 329 329 330 333 333 333 332 331 332 331 330 330 330 330 331 330 331 332 331 331
313 315 316 316 318 316 317 317 321 322 324 324 323 324 325 328 329 326 324 323 324 324 323 324 324 324 329 330 328 328 328 329 330 328 328 329 330 330 330 328 328 328 327 327 326 326 326 328 324
314 314 314 314 313 315 316 316 317 316 318 322 321 323 323 324 327 328 326 327 327 327 325 323 324 323 326 325 327 327 327 327 327 326 327 327 326 326 325 325 325 325 325 326 326 326 326 326 326
313 315 318 322 322 321 316 320 313 313 315 319 318 317 323 323 322 324 327 330 327 328 326 324 325 326 323 324 325 324 326 327 327 326 325 325 325 325 323 324 324 324 324 326 327 326 327 329 329
312 313 313 318 315 314 314 312 311 312 312 313 315 317 316 315 321 322 322 323 325 326 327 327 328 326 324 324 324 325 326 326 326 326 326 325 325 324 325 325 324 323 325 328 329 327 329 329 331
312 312 314 315 312 315 312 311 314 312 311 312 312 313 315 316 316 319 320 320 319 319 325 327 328 324 324 325 326 327 327 326 326 325 326 325 324 324 324 324 324 324 327 328 329 328 328 329 328
311 310 311 311 313 319 319 317 312 310 310 311 311 313 314 315 316 316 316 317 319 319 319 320 325 327 327 327 328 329 328 328 329 328 325 323 327 327 325 325 326 327 327 328 328 327 327 330 330
308 309 309 310 310 313 317 316 311 310 310 312 312 312 312 313 315 316 315 315 315 317 319 319 321 322 325 328 327 327 328 328 329 328 328 328 328 328 328 329 329 328 329 328 328 326 329 327 326

GFSSGP_850_thetae_117.txt.gz
Theta_e
305 319 320 323 326 328 327 324 324 324 324 327 328 330 332 333 335 338 343 346 345 340 334 329 324 323 326 331 334 336 337 338 335 338 339 338 334 337 333 324 338 338 323 335 337 323 328 329 329
315 317 318 322 323 324 316 320 322 324 325 326 326 328 328 328 333 344 346 345 345 342 336 331 326 323 325 330 334 335 336 336 335 337 338 337 336 337 333 321 331 330 327 334 330 321 324 327 327
316 316 317 318 320 322 318 319 319 321 321 322 324 326 328 330 333 340 346 345 345 344 338 332 329 323 323 327 331 333 335 336 335 338 337 337 336 336 330 327 337 321 326 326 320 318 319 318 318
313 315 315 319 319 318 318 317 316 317 318 321 321 321 325 334 335 345 346 344 344 344 339 333 330 325 323 323 324 327 333 335 336 335 338 336 335 335 326 332 337 320 319 316 315 315 315 314 314
312 313 314 315 315 315 314 315 316 316 317 318 319 322 323 330 342 344 345 344 345 344 342 335 332 327 324 324 323 322 326 333 335 333 339 336 337 335 325 333 335 320 317 317 316 316 316 316 317
312 312 314 313 312 312 311 313 314 315 316 316 318 321 322 340 344 344 344 344 345 345 343 337 334 328 325 325 323 325 325 328 334 335 339 336 338 336 325 328 332 319 318 317 316 316 317 318 319
312 312 310 311 311 311 310 311 310 314 315 316 318 321 321 327 341 345 344 343 346 346 343 340 335 330 327 323 319 323 331 324 334 336 340 337 335 328 323 322 326 320 318 317 316 318 319 319 319
312 313 312 312 312 311 310 310 311 311 314 314 317 321 325 327 336 342 345 345 345 345 342 340 335 330 327 322 324 326 332 327 334 339 340 338 329 322 321 322 322 326 318 318 317 319 320 320 320
312 314 312 312 312 312 311 311 311 312 316 315 316 317 320 321 323 326 338 344 345 344 343 341 334 330 331 328 329 332 332 332 337 340 339 333 327 323 323 323 329 332 320 320 319 320 320 321 321
312 314 312 311 310 311 310 312 314 316 315 316 317 316 316 317 320 325 329 342 343 344 343 342 333 330 334 329 330 334 336 336 339 339 339 325 325 326 335 329 331 327 321 321 321 320 320 320 320
312 311 311 311 311 311 314 314 315 316 317 316 316 316 316 318 322 324 328 340 342 343 341 341 332 334 336 327 333 336 337 338 339 340 340 318 320 323 338 329 326 321 322 322 321 320 320 320 320
312 312 311 311 311 311 313 315 315 315 315 315 315 316 315 317 320 323 323 337 344 342 341 335 333 333 337 332 333 337 336 338 341 340 338 315 319 325 335 328 324 322 322 322 321 320 319 321 322
314 314 313 312 314 313 314 315 315 314 313 313 315 315 317 315 319 321 322 325 340 339 339 334 334 333 338 338 337 337 337 338 340 340 327 314 317 318 325 333 324 321 322 321 320 319 319 320 322
315 315 315 313 314 315 316 316 315 315 314 314 314 315 319 317 319 323 323 324 335 337 335 336 337 335 337 339 338 337 338 339 340 335 318 319 317 319 321 322 321 321 321 322 321 322 323 320 322
315 315 315 316 315 316 316 317 317 315 314 315 314 318 320 321 323 323 324 323 333 337 333 333 335 337 336 338 338 337 338 340 332 322 324 328 322 323 324 322 321 322 322 324 324 323 323 322 325
315 314 316 316 317 317 315 317 315 317 320 319 320 322 322 323 323 325 324 326 328 335 333 331 332 332 335 335 337 338 338 337 326 330 329 330 330 326 327 322 323 323 324 324 322 323 325 325 327
316 314 316 316 315 317 316 316 315 316 318 320 321 322 323 325 326 326 325 326 322 331 333 332 330 330 330 334 335 337 337 335 328 330 331 331 331 329 328 326 325 324 321 319 321 323 326 326 327
319 318 318 319 318 318 317 317 316 316 318 321 323 322 323 325 328 329 327 325 325 327 331 329 330 331 330 330 331 335 334 332 330 330 331 331 330 329 328 326 322 319 319 318 321 323 324 326 328
316 316 318 318 317 319 318 317 316 314 318 318 321 322 323 328 329 328 326 326 325 324 328 330 330 330 330 330 330 331 331 332 331 329 330 329 328 326 324 320 320 321 323 323 325 327 328 329 330
315 316 319 320 317 317 316 317 315 316 318 319 319 321 326 329 328 328 328 326 326 325 326 327 329 327 331 330 329 329 329 329 330 330 329 327 324 322 321 326 328 329 329 328 330 330 330 330 330
314 317 317 318 316 316 317 316 317 317 319 320 320 324 327 327 328 328 327 328 328 327 328 329 329 331 328 333 330 329 328 327 326 326 326 323 321 321 325 331 333 333 332 331 334 333 332 331 330
315 315 314 315 315 317 318 319 319 319 321 320 321 328 328 326 326 325 328 329 329 330 330 330 329 329 330 331 331 330 330 330 329 328 328 326 328 329 327 332 333 334 333 333 332 333 332 331 331
313 313 313 314 314 314 315 319 319 322 323 322 322 326 328 328 326 328 328 328 327 329 329 329 332 330 327 323 328 328 327 329 330 327 330 332 333 333 332 331 329 332 332 332 331 330 330 330 331
312 312 312 313 315 311 316 319 318 315 321 322 319 321 327 328 329 326 324 324 324 326 324 328 328 330 327 325 324 325 324 326 327 333 334 335 335 333 331 328 330 331 330 329 328 328 328 327 327
311 311 306 311 307 312 313 315 313 312 319 318 318 317 324 327 327 325 324 324 324 324 324 324 327 329 328 326 322 324 324 324 325 326 328 328 328 330 330 330 328 329 328 325 326 326 325 324 326
310 313 316 319 319 316 314 312 313 310 312 318 318 316 317 322 325 326 325 325 325 324 324 324 324 326 325 328 325 324 326 326 326 327 327 327 328 327 327 327 326 326 325 325 324 324 324 324 325
310 310 312 316 316 316 312 311 309 310 309 312 315 314 316 316 320 322 324 325 325 324 325 325 325 324 323 324 326 327 326 327 327 327 326 327 326 326 326 324 324 324 324 324 324 325 324 325 326
311 310 309 308 312 318 315 313 314 311 310 310 311 312 314 317 316 317 320 320 322 324 326 327 326 325 324 323 324 324 323 323 324 324 324 325 326 325 325 325 324 324 325 325 324 326 326 327 328
308 307 308 304 311 318 316 317 311 309 308 309 308 311 314 315 316 315 316 316 318 319 319 321 326 327 326 324 324 324 324 325 325 324 323 326 325 326 324 325 324 324 324 324 324 326 327 323 328
306 306 305 303 307 313 310 316 311 309 307 308 309 310 311 313 315 315 314 315 316 317 320 320 323 326 326 325 325 324 325 326 327 327 326 325 325 325 323 323 324 324 326 325 326 326 328 327 326